[[{"header":{"parameterUnit":"m.s-1","parameterCategory":1,"la1":30.6,"la2":29.2853,"lo1":-89.7004,"lo2":-87.6739,"dy":0.0162,"dx":0.0183,"nx":112,"ny":82,"refTime":"2024-04-25T12:00:00:Z","depth":0,"parameterNumber":2,"parameterNumberName":"U-component_of_WINDS"},"data":[0.0,0.0,0.0,0.0,0.0,0.0,0.0,0.0,0.0,0.0,0.0,0.0,0.0,0.0,0.0,0.0,0.0,0.0,0.0,0.0,0.0,0.0,0.0,0.0,0.0,0.0,0.0,0.0,0.0,0.0,0.0,0.0,0.0,0.0,0.0,0.0,0.0,0.0,0.0,0.0,0.0,0.0,0.0,0.0,0.0,0.0,0.0,0.0,0.0,0.0,0.0,0.0,0.0,0.0,0.0,0.0,0.0,0.0,0.0,0.0,0.0,0.0,0.0,0.0,0.0,0.0,0.0,0.0,0.0,0.0,0.0,0.0,0.0,0.0,0.0,0.0,0.0,0.0,0.0,0.0,0.0,0.0,0.0,0.0,0.0,0.0,0.0,0.0,0.0,0.0,-4.3424,-4.2608,-4.1961,-4.1294,-4.0756,-4.0606,-4.0277,-3.9619,0.0,0.0,0.0,0.0,0.0,0.0,0.0,0.0,0.0,0.0,0.0,0.0,0.0,0.0,0.0,0.0,0.0,0.0,0.0,0.0,0.0,0.0,0.0,0.0,0.0,0.0,0.0,0.0,0.0,0.0,0.0,0.0,0.0,0.0,0.0,0.0,0.0,0.0,0.0,0.0,0.0,0.0,0.0,0.0,0.0,0.0,0.0,0.0,0.0,0.0,0.0,0.0,0.0,0.0,0.0,0.0,0.0,0.0,0.0,0.0,0.0,0.0,0.0,0.0,0.0,0.0,0.0,0.0,0.0,0.0,0.0,0.0,0.0,0.0,0.0,0.0,0.0,0.0,0.0,0.0,0.0,0.0,0.0,0.0,0.0,0.0,0.0,0.0,0.0,0.0,0.0,0.0,0.0,0.0,0.0,0.0,0.0,0.0,0.0,0.0,0.0,0.0,0.0,0.0,-4.3337,-4.318,-4.2611,-4.2201,-4.2111,-4.1602,-4.0935,-4.0277,0.0,0.0,0.0,0.0,0.0,0.0,0.0,0.0,0.0,0.0,0.0,0.0,0.0,0.0,0.0,0.0,0.0,0.0,0.0,0.0,0.0,0.0,0.0,0.0,0.0,0.0,0.0,0.0,0.0,0.0,0.0,0.0,0.0,0.0,0.0,0.0,0.0,0.0,0.0,0.0,0.0,0.0,0.0,0.0,0.0,0.0,0.0,0.0,0.0,0.0,0.0,0.0,0.0,0.0,0.0,0.0,0.0,0.0,0.0,0.0,0.0,0.0,0.0,0.0,0.0,0.0,0.0,0.0,0.0,0.0,0.0,0.0,0.0,0.0,0.0,0.0,0.0,0.0,0.0,0.0,0.0,0.0,0.0,0.0,0.0,0.0,0.0,0.0,0.0,0.0,0.0,0.0,0.0,0.0,0.0,0.0,0.0,0.0,0.0,0.0,0.0,0.0,0.0,-4.329,-4.329,-4.329,-4.306,-4.2761,-4.244,-4.2111,-4.1662,-4.0965,-4.0307,0.0,0.0,0.0,0.0,0.0,0.0,0.0,0.0,0.0,0.0,0.0,0.0,0.0,0.0,0.0,0.0,0.0,0.0,0.0,0.0,0.0,0.0,0.0,0.0,0.0,0.0,0.0,0.0,0.0,0.0,0.0,0.0,0.0,0.0,0.0,0.0,0.0,0.0,0.0,0.0,0.0,0.0,0.0,0.0,0.0,0.0,0.0,0.0,0.0,0.0,0.0,0.0,0.0,0.0,0.0,0.0,0.0,0.0,0.0,0.0,0.0,0.0,0.0,0.0,0.0,0.0,0.0,0.0,0.0,0.0,0.0,0.0,0.0,0.0,0.0,0.0,0.0,0.0,0.0,0.0,0.0,0.0,0.0,0.0,0.0,0.0,0.0,0.0,0.0,0.0,0.0,0.0,0.0,0.0,0.0,0.0,0.0,0.0,0.0,0.0,0.0,0.0,-4.329,-4.329,-4.329,-4.329,-4.312,-4.2641,-4.262,-4.2312,-4.1692,-4.1145,0.0,0.0,0.0,0.0,0.0,0.0,0.0,0.0,0.0,0.0,0.0,0.0,0.0,0.0,0.0,0.0,0.0,0.0,0.0,0.0,0.0,0.0,0.0,0.0,0.0,0.0,0.0,0.0,0.0,0.0,0.0,0.0,0.0,0.0,0.0,0.0,0.0,0.0,0.0,0.0,0.0,0.0,0.0,0.0,0.0,0.0,0.0,0.0,0.0,0.0,0.0,0.0,0.0,0.0,0.0,0.0,0.0,0.0,0.0,0.0,0.0,0.0,0.0,0.0,0.0,0.0,0.0,0.0,0.0,0.0,0.0,0.0,0.0,0.0,0.0,0.0,0.0,0.0,0.0,0.0,0.0,0.0,0.0,0.0,0.0,0.0,0.0,0.0,0.0,0.0,0.0,0.0,0.0,0.0,0.0,0.0,0.0,0.0,0.0,0.0,0.0,0.0,-4.329,-4.329,-4.329,-4.329,-4.326,-4.323,-4.323,-4.3,-4.2381,-4.2291,0.0,0.0,0.0,0.0,0.0,0.0,0.0,0.0,0.0,0.0,0.0,0.0,0.0,0.0,0.0,0.0,0.0,0.0,0.0,0.0,0.0,0.0,0.0,0.0,0.0,0.0,0.0,0.0,0.0,0.0,0.0,0.0,0.0,0.0,0.0,0.0,0.0,0.0,0.0,0.0,0.0,0.0,0.0,0.0,0.0,0.0,0.0,0.0,0.0,0.0,0.0,0.0,0.0,0.0,0.0,0.0,0.0,0.0,0.0,0.0,0.0,0.0,0.0,0.0,0.0,0.0,0.0,0.0,0.0,0.0,0.0,0.0,0.0,0.0,0.0,0.0,0.0,0.0,0.0,0.0,0.0,0.0,0.0,0.0,0.0,0.0,0.0,0.0,0.0,0.0,0.0,0.0,0.0,0.0,0.0,0.0,0.0,0.0,0.0,0.0,0.0,0.0,-4.329,-4.329,-4.329,-4.329,-4.329,-4.329,-4.329,-4.32,-4.3,0.0,0.0,0.0,0.0,0.0,0.0,0.0,0.0,0.0,0.0,0.0,0.0,0.0,0.0,0.0,0.0,0.0,0.0,0.0,0.0,0.0,0.0,0.0,0.0,0.0,0.0,0.0,0.0,0.0,0.0,0.0,0.0,0.0,0.0,0.0,0.0,0.0,0.0,0.0,0.0,0.0,0.0,0.0,0.0,0.0,0.0,0.0,0.0,0.0,0.0,0.0,0.0,0.0,0.0,0.0,0.0,0.0,0.0,0.0,0.0,0.0,0.0,0.0,0.0,0.0,0.0,0.0,0.0,0.0,0.0,0.0,0.0,0.0,0.0,0.0,0.0,0.0,0.0,0.0,0.0,0.0,0.0,0.0,0.0,0.0,0.0,0.0,0.0,0.0,0.0,0.0,0.0,0.0,0.0,0.0,0.0,0.0,0.0,0.0,0.0,0.0,0.0,-4.3618,-4.3409,-4.329,-4.329,-4.329,-4.329,-4.329,-4.329,-4.329,-4.329,0.0,0.0,0.0,0.0,0.0,0.0,0.0,0.0,0.0,0.0,0.0,0.0,0.0,0.0,0.0,0.0,0.0,0.0,0.0,0.0,0.0,0.0,0.0,0.0,0.0,0.0,0.0,0.0,0.0,0.0,0.0,0.0,0.0,0.0,0.0,0.0,0.0,0.0,0.0,0.0,0.0,0.0,0.0,0.0,0.0,0.0,0.0,0.0,0.0,0.0,0.0,0.0,0.0,0.0,0.0,0.0,0.0,0.0,0.0,0.0,0.0,0.0,0.0,0.0,0.0,0.0,0.0,0.0,0.0,0.0,0.0,0.0,0.0,0.0,0.0,0.0,0.0,0.0,0.0,0.0,0.0,0.0,0.0,0.0,0.0,0.0,0.0,0.0,0.0,0.0,0.0,0.0,0.0,0.0,0.0,0.0,0.0,0.0,0.0,0.0,0.0,0.0,-4.4317,-4.3708,-4.3319,-4.329,-4.329,-4.329,-4.329,-4.329,-4.329,0.0,0.0,0.0,0.0,0.0,0.0,0.0,0.0,0.0,0.0,0.0,0.0,0.0,0.0,0.0,0.0,0.0,0.0,0.0,0.0,0.0,0.0,0.0,0.0,0.0,0.0,0.0,0.0,0.0,0.0,0.0,0.0,0.0,0.0,0.0,0.0,0.0,0.0,0.0,0.0,0.0,0.0,0.0,0.0,0.0,0.0,0.0,0.0,0.0,0.0,0.0,0.0,0.0,0.0,0.0,0.0,0.0,0.0,0.0,0.0,0.0,0.0,0.0,0.0,0.0,0.0,0.0,0.0,0.0,0.0,0.0,0.0,0.0,0.0,0.0,0.0,0.0,0.0,0.0,0.0,0.0,0.0,0.0,0.0,0.0,0.0,0.0,0.0,0.0,0.0,0.0,0.0,0.0,0.0,0.0,0.0,0.0,0.0,0.0,0.0,0.0,0.0,0.0,-4.5005,-4.4825,-4.4526,-4.4077,-4.4018,-4.3798,-4.3319,-4.329,-4.329,-4.329,0.0,0.0,0.0,0.0,0.0,0.0,0.0,0.0,0.0,0.0,0.0,0.0,0.0,0.0,0.0,0.0,0.0,0.0,0.0,0.0,0.0,0.0,0.0,0.0,0.0,0.0,0.0,0.0,0.0,0.0,0.0,0.0,0.0,0.0,0.0,0.0,0.0,0.0,0.0,0.0,0.0,0.0,0.0,0.0,0.0,0.0,0.0,0.0,0.0,0.0,0.0,0.0,0.0,0.0,0.0,0.0,0.0,0.0,0.0,0.0,0.0,0.0,0.0,0.0,0.0,0.0,0.0,0.0,0.0,0.0,0.0,0.0,0.0,0.0,0.0,0.0,0.0,0.0,0.0,0.0,0.0,0.0,0.0,0.0,0.0,0.0,0.0,0.0,0.0,0.0,0.0,0.0,0.0,0.0,0.0,0.0,0.0,0.0,0.0,0.0,0.0,0.0,-4.5693,-4.5454,-4.5155,-4.4736,-4.4466,-4.4167,-4.3708,-4.3439,-4.329,-4.329,0.0,0.0,0.0,0.0,0.0,0.0,0.0,0.0,0.0,0.0,0.0,0.0,0.0,0.0,0.0,0.0,0.0,0.0,0.0,0.0,0.0,0.0,0.0,0.0,0.0,0.0,0.0,0.0,0.0,0.0,0.0,0.0,0.0,0.0,0.0,0.0,0.0,0.0,0.0,0.0,0.0,0.0,0.0,0.0,0.0,0.0,0.0,0.0,0.0,0.0,0.0,0.0,0.0,0.0,0.0,0.0,0.0,0.0,0.0,0.0,0.0,0.0,0.0,0.0,0.0,0.0,0.0,0.0,0.0,0.0,0.0,0.0,0.0,0.0,0.0,0.0,0.0,0.0,0.0,0.0,0.0,0.0,0.0,0.0,0.0,0.0,0.0,0.0,0.0,0.0,0.0,0.0,0.0,0.0,0.0,0.0,0.0,0.0,0.0,0.0,0.0,0.0,-4.6369,-4.5873,-4.5454,-4.5394,-4.4855,-4.4466,-4.4407,-4.3768,-4.3379,-4.3379,0.0,0.0,0.0,0.0,0.0,0.0,0.0,0.0,0.0,0.0,0.0,0.0,0.0,0.0,0.0,0.0,0.0,0.0,0.0,0.0,0.0,0.0,0.0,0.0,0.0,0.0,0.0,0.0,0.0,0.0,0.0,0.0,0.0,0.0,0.0,0.0,0.0,0.0,0.0,0.0,0.0,0.0,0.0,0.0,0.0,0.0,0.0,0.0,0.0,0.0,0.0,0.0,0.0,0.0,0.0,0.0,0.0,0.0,0.0,0.0,-4.7309,0.0,0.0,0.0,0.0,0.0,0.0,0.0,0.0,0.0,0.0,0.0,0.0,0.0,0.0,0.0,0.0,0.0,0.0,0.0,0.0,0.0,0.0,0.0,0.0,0.0,0.0,0.0,0.0,0.0,0.0,0.0,0.0,0.0,0.0,0.0,0.0,0.0,0.0,0.0,0.0,0.0,-4.71,-4.698,-4.6681,-4.6142,-4.595,-4.5663,-4.5125,-4.4496,-4.4107,-4.4107,-4.3589,0.0,0.0,0.0,0.0,0.0,0.0,0.0,0.0,0.0,0.0,0.0,0.0,0.0,0.0,0.0,0.0,0.0,0.0,0.0,0.0,0.0,0.0,0.0,0.0,0.0,0.0,0.0,0.0,0.0,0.0,0.0,0.0,0.0,0.0,0.0,0.0,0.0,0.0,0.0,0.0,0.0,0.0,0.0,0.0,0.0,0.0,0.0,0.0,0.0,0.0,0.0,0.0,0.0,0.0,0.0,0.0,0.0,0.0,0.0,0.0,-4.7309,0.0,0.0,0.0,0.0,0.0,0.0,0.0,0.0,0.0,0.0,0.0,0.0,0.0,0.0,0.0,0.0,0.0,0.0,0.0,0.0,0.0,0.0,0.0,0.0,0.0,0.0,0.0,0.0,0.0,0.0,0.0,0.0,0.0,0.0,0.0,0.0,0.0,0.0,0.0,0.0,-4.7309,-4.7309,-4.7189,-4.683,-4.6501,-4.6172,-4.5813,-4.5185,-4.4646,-4.4347,-4.3947,0.0,0.0,0.0,0.0,0.0,0.0,0.0,0.0,0.0,0.0,0.0,0.0,0.0,0.0,0.0,0.0,0.0,0.0,0.0,0.0,0.0,0.0,0.0,0.0,0.0,0.0,0.0,0.0,0.0,0.0,0.0,0.0,0.0,0.0,0.0,0.0,0.0,0.0,0.0,0.0,0.0,0.0,0.0,0.0,0.0,0.0,0.0,0.0,0.0,0.0,0.0,0.0,0.0,-4.8446,-4.8745,-4.9299,-4.9299,-4.9299,-4.9239,-4.8117,-4.7638,-4.7638,-4.7638,0.0,0.0,0.0,0.0,0.0,0.0,0.0,0.0,0.0,0.0,0.0,0.0,0.0,0.0,0.0,0.0,0.0,0.0,0.0,0.0,0.0,0.0,0.0,0.0,-4.7309,-4.7309,0.0,0.0,0.0,0.0,0.0,0.0,0.0,0.0,0.0,0.0,0.0,0.0,-4.7309,-4.7309,-4.7309,-4.7309,-4.68,-4.6459,-4.6459,-4.5873,-4.5185,-4.4526,-4.4377,-4.4018,0.0,0.0,0.0,0.0,0.0,0.0,0.0,0.0,0.0,0.0,0.0,0.0,0.0,0.0,0.0,0.0,0.0,0.0,0.0,0.0,0.0,0.0,0.0,0.0,0.0,0.0,0.0,0.0,0.0,0.0,0.0,0.0,-4.707,-4.716,0.0,0.0,0.0,0.0,0.0,0.0,0.0,0.0,0.0,0.0,0.0,0.0,0.0,-4.8446,-4.906,-4.906,-4.909,-4.9179,-4.9179,-4.9209,-4.9299,-4.9299,-4.9299,-4.9299,-4.912,0.0,-4.906,-4.906,0.0,0.0,0.0,0.0,0.0,0.0,0.0,0.0,0.0,0.0,0.0,0.0,0.0,0.0,0.0,0.0,0.0,0.0,0.0,0.0,0.0,0.0,-4.7309,-4.7309,-4.7309,-4.7309,0.0,-4.7309,-4.7309,-4.7309,-4.7309,0.0,0.0,0.0,0.0,0.0,0.0,0.0,-4.7309,-4.7309,-4.7309,-4.7309,-4.7219,-4.7189,-4.7189,-4.6561,-4.5903,-4.5214,-4.4616,-4.4018,-4.3319,-4.329,0.0,0.0,0.0,0.0,0.0,0.0,0.0,0.0,0.0,0.0,0.0,0.0,0.0,0.0,0.0,0.0,0.0,0.0,0.0,0.0,0.0,0.0,0.0,0.0,0.0,0.0,0.0,0.0,0.0,-4.713,-4.7309,-4.7309,-4.7309,-4.7309,0.0,0.0,0.0,0.0,0.0,0.0,0.0,0.0,0.0,-4.888,-4.888,-4.903,-4.9299,-4.9299,-4.9464,-4.9823,-4.9823,-5.0002,-5.0361,-5.0361,-5.0361,-5.0361,-5.0361,-5.0361,-5.0301,-4.9629,-4.9299,-4.9299,0.0,0.0,0.0,0.0,-4.9299,-4.9299,-4.9299,-4.9299,0.0,-4.9299,0.0,0.0,0.0,0.0,0.0,0.0,0.0,0.0,0.0,0.0,-4.8327,-4.7938,-4.7848,-4.7758,-4.7399,-4.7309,-4.7309,0.0,-4.7309,-4.7309,-4.7309,0.0,0.0,0.0,0.0,-4.7309,-4.7309,-4.7309,-4.7309,-4.7309,-4.7309,-4.7309,-4.7309,-4.704,-4.6591,-4.5903,-4.5244,-4.4556,-4.3858,-4.3499,-4.329,0.0,0.0,0.0,0.0,0.0,0.0,0.0,0.0,0.0,0.0,0.0,0.0,0.0,0.0,0.0,0.0,0.0,0.0,0.0,0.0,0.0,0.0,0.0,0.0,0.0,0.0,0.0,0.0,-4.7309,-4.7369,-4.7549,-4.7549,-4.7608,0.0,0.0,0.0,0.0,0.0,0.0,-4.9269,-4.9299,-4.9389,-4.9523,-4.9523,-4.9583,-4.9763,-4.9808,-5.0002,-5.0435,-5.0435,-5.0704,-5.1229,-5.1229,-5.1229,-5.1229,-5.1229,-5.1229,-5.1139,-5.0182,-4.9808,-4.9808,-4.9808,-4.9808,-4.9808,-4.9808,-4.9808,-4.9808,-4.9808,-4.9808,-4.9808,-4.9808,0.0,-4.9733,-4.9553,0.0,0.0,0.0,0.0,-4.9464,-4.9359,-4.9299,-4.9179,-4.8656,-4.858,-4.8416,-4.7908,-4.7818,-4.7698,0.0,-4.7309,-4.7309,-4.7309,0.0,0.0,0.0,0.0,-4.7309,-4.7309,-4.7309,-4.7309,-4.7309,-4.7309,-4.7309,-4.7309,-4.7309,-4.701,-4.6309,-4.5843,-4.5185,-4.4347,-4.3798,-4.3469,-4.329,0.0,0.0,0.0,0.0,0.0,0.0,0.0,0.0,0.0,0.0,0.0,0.0,0.0,0.0,0.0,0.0,0.0,0.0,0.0,0.0,0.0,0.0,0.0,0.0,0.0,0.0,0.0,0.0,0.0,-4.8147,-4.8237,0.0,0.0,0.0,0.0,-4.9269,-4.9269,-4.9269,-4.9299,-4.9299,-4.9553,-5.0136,-5.0136,-5.0435,-5.1109,-5.1109,-5.1139,-5.1169,-5.1169,-5.1199,-5.1229,-5.1229,-5.1229,-5.1229,-5.1229,-5.1229,-5.1229,-5.1139,-5.1109,-5.1109,-5.1109,-5.1109,-5.1109,-5.1109,-5.1109,-5.1109,-5.1109,-5.1109,-5.1109,-5.1109,-5.1109,-5.102,-5.0345,-5.0584,0.0,0.0,-5.0136,-4.9986,-4.9434,-4.9299,-4.9299,-4.9269,-4.9269,-4.9239,-4.9209,-4.9209,-4.8805,0.0,-4.7309,-4.7309,-4.7309,0.0,-4.7309,-4.7309,-4.7309,-4.7309,-4.7309,-4.7309,-4.7309,-4.7309,-4.7309,-4.7309,-4.7309,-4.7309,-4.701,-4.6309,-4.6249,-4.5651,-4.4377,-4.4287,-4.3917,-4.329,-4.329,0.0,0.0,0.0,0.0,0.0,0.0,0.0,0.0,0.0,0.0,0.0,0.0,0.0,0.0,0.0,0.0,0.0,0.0,0.0,0.0,0.0,0.0,0.0,0.0,0.0,0.0,0.0,0.0,-4.894,-4.897,0.0,-4.9299,-4.9299,-4.9434,-4.9853,-4.9883,-5.0092,-5.0511,-5.0511,-5.0631,-5.0823,-5.0823,-5.1199,-5.1858,-5.1858,-5.2067,-5.2486,-5.2486,-5.2486,-5.2456,-5.2037,-5.1858,-5.1828,-5.1409,-5.1229,-5.1229,-5.1229,-5.1229,-5.1229,-5.1229,-5.1229,-5.1229,-5.1229,-5.1229,-5.1229,-5.1229,-5.1229,-5.1229,-5.1229,-5.1229,-5.1169,-5.093,-5.0973,-5.1169,-5.0883,-5.0823,-5.0764,-5.0571,-5.0511,-5.0421,-5.0002,-4.9883,-4.9763,-4.9389,-4.9299,-4.9179,-4.87,-4.8566,-4.8566,-4.8566,-4.8566,-4.8566,-4.8566,-4.8566,-4.8566,-4.8566,-4.8566,-4.8566,-4.8566,-4.8177,-4.7938,-4.7938,-4.7549,-4.7219,-4.698,-4.6561,-4.607,-4.5633,-4.4766,-4.4197,-4.3917,-4.3499,-4.329,0.0,0.0,0.0,0.0,0.0,0.0,0.0,0.0,0.0,0.0,0.0,0.0,0.0,0.0,0.0,0.0,0.0,0.0,0.0,0.0,0.0,0.0,0.0,0.0,0.0,-4.903,-4.9389,-4.9583,-4.9583,-4.9673,-4.9912,-4.9912,-5.0092,-5.0495,-5.0524,-5.0704,-5.1199,-5.1439,-5.1558,-5.1558,-5.1768,-5.2097,-5.2516,-5.2546,-5.2755,-5.3174,-5.3174,-5.3174,-5.3174,-5.2725,-5.2546,-5.2486,-5.1828,-5.1558,-5.1528,-5.1319,-5.1229,-5.1229,-5.1229,-5.1229,-5.1229,-5.1229,-5.1229,-5.1229,-5.1229,-5.1229,-5.1229,-5.1229,-5.1229,-5.1229,-5.1229,-5.1229,-5.1229,-5.1229,-5.1229,-5.1229,-5.1229,-5.1229,-5.1109,-5.0614,-5.0524,-5.0451,-5.0032,-4.9912,-4.9912,-4.9912,-4.9599,-4.9299,-4.9299,-4.9299,-4.9299,-4.9299,-4.9299,-4.9299,-4.9299,-4.9299,-4.9299,-4.9299,-4.891,-4.8626,-4.8626,-4.8027,-4.7638,-4.7638,-4.701,-4.6561,-4.6279,-4.5454,-4.4766,-4.4317,-4.3618,-4.329,-4.329,0.0,0.0,0.0,0.0,0.0,0.0,0.0,0.0,0.0,0.0,0.0,0.0,0.0,0.0,0.0,0.0,0.0,0.0,0.0,0.0,0.0,0.0,0.0,-4.9419,-4.9359,-4.9553,-5.0136,-5.0226,-5.0465,-5.1169,-5.1229,-5.1229,-5.1259,-5.1259,-5.1259,-5.1289,-5.1887,-5.2217,-5.2217,-5.2845,-5.3204,-5.3204,-5.3204,-5.3234,-5.3234,-5.3234,-5.3234,-5.3234,-5.3234,-5.3204,-5.3174,-5.2516,-5.2217,-5.2187,-5.1528,-5.1259,-5.1259,-5.1229,-5.1229,-5.1229,-5.1229,-5.1229,-5.1229,-5.1229,-5.1229,-5.1229,-5.1229,-5.1229,-5.1229,-5.1229,-5.1229,-5.1229,-5.1229,-5.1229,-5.1229,-5.1229,-5.1229,-5.1229,-5.1229,-5.1229,-5.1229,-5.1229,-5.1229,-5.1229,-5.1229,-5.0182,-4.9359,-4.9359,-4.9359,-4.9359,-4.9359,-4.9359,0.0,-4.9359,-4.9359,-4.9359,-4.9359,-4.9359,-4.9329,-4.9329,-4.873,-4.8327,-4.8327,-4.7698,-4.704,-4.6369,-4.6309,-4.5693,-4.4377,-4.3648,-4.3319,-4.3319,0.0,0.0,0.0,0.0,0.0,0.0,0.0,0.0,0.0,0.0,0.0,0.0,0.0,0.0,0.0,0.0,0.0,0.0,0.0,0.0,0.0,-5.084,-5.0674,-5.0062,-5.0391,-5.075,-5.093,-5.096,-5.102,-5.1199,-5.1229,-5.1409,-5.1887,-5.1947,-5.2127,-5.2606,-5.2815,-5.2905,-5.2905,-5.3084,-5.3414,-5.3922,-5.3922,-5.4162,-5.464,-5.464,-5.464,-5.461,-5.4132,-5.3922,-5.3892,-5.3204,-5.2905,-5.2905,-5.2725,-5.2366,-5.1887,-5.1409,-5.1229,-5.1229,-5.1229,-5.1229,-5.1229,-5.1229,-5.1229,-5.1229,-5.1229,-5.1229,-5.1229,-5.1229,-5.1229,-5.1229,-5.1229,-5.1229,-5.1229,-5.1229,-5.1229,-5.1229,-5.1229,-5.1229,-5.1229,-5.1229,-5.1229,-5.1229,-5.1229,-5.093,-5.069,-5.069,-5.069,-5.069,-5.069,-5.069,0.0,-5.069,-5.069,-5.069,-5.069,-5.0242,-4.9972,-4.9972,-4.9374,-4.906,-4.906,-4.8386,-4.7938,-4.7758,-4.683,-4.5903,-4.5035,-4.4377,-4.4047,0.0,0.0,0.0,0.0,0.0,0.0,0.0,0.0,0.0,0.0,0.0,0.0,0.0,0.0,0.0,0.0,0.0,0.0,0.0,0.0,0.0,0.0,-5.1229,-5.1079,-5.0644,-5.0913,-5.1229,-5.1229,-5.1229,-5.1319,-5.1588,-5.1618,-5.1917,-5.2546,-5.2606,-5.2785,-5.3144,-5.3443,-5.3623,-5.3623,-5.3862,-5.4341,-5.5029,-5.476,-5.494,-5.5598,-5.5329,-5.5179,-5.5179,-5.479,-5.461,0.0,-5.3892,-5.3623,-5.3593,-5.3294,-5.2965,0.0,0.0,0.0,0.0,0.0,-5.1229,-5.1229,-5.1229,-5.1229,-5.1229,-5.1229,-5.1229,-5.1229,-5.1229,-5.1229,-5.1229,-5.1229,-5.1229,-5.1229,-5.1229,-5.1229,-5.1229,-5.1229,-5.1229,-5.1229,-5.1229,-5.1229,-5.1229,-5.1229,-5.1229,0.0,-5.1229,-5.1229,-5.1229,-5.1229,-5.1229,-5.1229,-5.1229,-5.1229,-5.1229,-5.1229,-5.0823,-5.0614,-5.0614,-5.0062,0.0,0.0,0.0,-4.8566,-4.8297,-4.7279,0.0,0.0,0.0,-4.4736,-4.4736,0.0,0.0,0.0,-4.3419,-4.2901,0.0,0.0,0.0,0.0,0.0,0.0,0.0,0.0,0.0,0.0,0.0,0.0,0.0,0.0,0.0,0.0,-5.1229,-5.1229,-5.1229,-5.1229,-5.1229,-5.1229,-5.1289,-5.1558,-5.2127,-5.2276,-5.2576,-5.3234,-5.3294,-5.3324,-5.3414,0.0,0.0,0.0,0.0,-5.5688,-5.6286,-5.5688,-5.5688,-5.6308,-5.5688,-5.5359,-5.5299,-5.5299,-5.5269,-5.5149,-5.4581,-5.4311,-5.4281,-5.3653,-5.3354,-5.3234,-5.2576,-5.1917,-5.1319,-5.1319,-5.1289,-5.1229,-5.1229,0.0,0.0,-5.1229,-5.1229,-5.1229,-5.1229,-5.1229,-5.1229,-5.1229,-5.1229,-5.1229,-5.1229,-5.1229,-5.1229,-5.1229,-5.1229,-5.1229,-5.1229,-5.1229,-5.1229,-5.1229,-5.1229,-5.1229,-5.1229,-5.1229,-5.1229,-5.1229,-5.1229,-5.1229,-5.1229,-5.1229,-5.1229,-5.1229,0.0,0.0,-5.1229,-5.0644,-5.0315,-5.0315,-4.9733,-4.9075,-4.8416,-4.7758,-4.713,-4.6561,-4.5813,-4.5394,-4.5394,-4.5334,-4.5304,-4.5274,-4.4018,-4.3409,0.0,0.0,0.0,0.0,0.0,0.0,0.0,0.0,0.0,0.0,0.0,0.0,0.0,0.0,0.0,-5.1229,-5.1229,-5.1229,-5.1229,-5.1229,-5.1229,-5.1229,-5.1678,-5.2067,-5.2187,-5.2665,-5.3264,-5.3952,-5.4012,-5.4251,-5.476,-5.5418,-5.5777,-5.5777,-5.6406,-5.6795,-5.6915,-5.6795,-5.6795,-5.6915,0.0,0.0,-5.5987,-5.5987,-5.5688,-5.5179,-5.5059,-5.4999,-5.4999,-5.485,-5.4491,-5.3952,-5.3264,-5.2606,-5.2007,-5.2007,-5.1678,-5.1229,-5.1229,-5.1229,-5.1229,-5.1229,-5.1229,-5.1229,-5.1229,-5.1229,0.0,-5.1229,-5.1229,-5.1229,-5.1229,-5.1229,-5.1229,-5.1229,-5.1229,-5.1229,-5.1229,-5.1229,-5.1229,-5.1229,-5.1229,-5.1229,-5.1229,-5.1229,-5.1229,-5.1229,-5.1229,-5.1229,-5.1229,-5.1229,-5.1229,-5.1229,-5.1229,-5.1229,-5.1229,-5.1109,-5.0973,-5.0973,-5.0375,-4.9763,-4.9149,-4.8446,-4.8027,-4.7908,-4.6741,-4.6142,-4.6112,-4.5574,-4.5304,-4.5274,-4.4496,-4.4137,0.0,0.0,0.0,0.0,0.0,0.0,0.0,0.0,0.0,0.0,0.0,-5.1229,-5.1229,0.0,-5.1229,-5.1229,-5.1229,-5.1229,-5.1229,-5.1229,-5.1349,-5.1678,-5.2007,-5.2456,-5.3144,-5.3503,-5.3982,-5.464,-5.47,-5.497,-5.5658,-5.6038,-5.6368,-5.6615,-5.6944,-5.7244,-5.7603,-5.7274,-5.7274,-5.7603,-5.7244,-5.6944,-5.6615,-5.6368,-5.6038,-5.5658,-5.5329,-5.5179,-5.5179,-5.5179,-5.4999,-5.467,-5.4311,-5.3563,-5.2695,-5.2695,-5.2486,-5.2157,-5.1828,-5.1708,-5.1648,-5.1319,-5.1229,-5.1229,-5.1229,-5.1229,-5.1229,-5.1229,-5.1229,-5.1229,-5.1229,-5.1229,-5.1229,-5.1229,-5.1229,-5.1229,-5.1229,-5.1229,-5.1229,-5.1229,-5.1229,-5.1229,-5.1229,-5.1229,-5.1229,-5.1229,-5.1229,-5.1229,-5.1229,-5.1229,-5.1229,-5.1229,-5.1229,-5.1229,-5.1229,-5.1229,-5.1229,-5.1229,-5.0853,-5.0421,-4.9793,-4.9434,-4.9105,-4.882,-4.7818,-4.7309,-4.7309,-4.6621,-4.6292,-4.6292,-4.5633,-4.5125,0.0,0.0,0.0,0.0,0.0,0.0,0.0,-5.1229,-5.1229,-5.1229,-5.1229,-5.1229,-5.1229,-5.1229,-5.1229,-5.1229,-5.1229,-5.1229,-5.1229,-5.1319,-5.1648,-5.2306,-5.2396,-5.2875,-5.4102,-5.4311,-5.461,-5.5149,-5.5299,-5.5598,-5.6188,-5.6406,-5.6765,-5.7274,-5.7423,-5.7752,-5.8321,-5.7752,-5.7752,-5.8321,-5.7752,-5.7423,-5.7274,-5.6765,-5.6406,-5.6188,-5.5478,-5.5179,-5.5179,-5.5179,-5.5179,-5.5179,-5.5179,-5.4521,-5.3563,-5.3414,-5.3294,-5.3114,-5.2576,-5.2396,-5.2276,-5.1618,-5.1409,-5.1379,-5.1259,-5.1229,-5.1229,-5.1229,-5.1229,-5.1229,-5.1229,-5.1229,-5.1229,-5.1229,-5.1229,-5.1229,-5.1229,-5.1229,-5.1229,-5.1229,-5.1229,-5.1229,-5.1229,-5.1229,-5.1229,-5.1229,-5.1229,-5.1229,-5.1229,-5.1229,-5.1229,-5.1229,-5.1229,-5.1229,-5.1229,-5.1229,-5.1229,-5.1229,-5.1229,-5.0943,-5.0405,-5.0255,-5.0002,-4.9464,-4.8805,-4.8476,-4.8476,-4.7818,-4.7489,-4.7489,-4.683,-4.6142,-5.075,-5.1109,-5.1139,-5.1199,-5.1229,-5.1229,0.0,-5.1229,-5.1229,-5.1229,-5.1229,-5.1229,-5.1229,-5.1229,-5.1229,-5.1229,-5.1229,-5.1229,-5.1229,-5.1708,-5.2336,-5.2995,-5.3084,-5.3384,-5.4132,-5.473,-5.5119,-5.5179,-5.5718,-5.6107,-5.6218,-5.7274,-5.7932,-5.8022,-5.859,-5.8919,-5.9009,-5.8919,-5.8919,-5.9009,-5.8919,-5.856,-5.8022,-5.7932,-5.7274,-5.6188,-5.5478,-5.5179,-5.5179,-5.5179,-5.5179,-5.5179,-5.5179,-5.5089,-5.488,-5.4311,-5.3713,-5.3174,-5.3084,-5.3084,-5.2965,-5.2306,-5.2097,-5.1977,-5.1379,-5.1229,-5.1229,-5.1229,-5.1229,-5.1229,-5.1229,-5.1229,-5.1229,-5.1229,-5.1229,-5.1229,-5.1229,-5.1229,-5.1229,-5.1229,-5.1229,-5.1229,-5.1229,-5.1229,-5.1229,-5.1229,-5.1229,-5.1229,-5.1229,-5.1229,-5.1229,-5.1229,-5.1229,-5.1229,-5.1229,-5.1229,-5.1229,-5.1229,-5.1229,-5.1199,-5.1109,-5.0495,-5.0166,-5.0076,-4.9494,-4.9209,-4.9209,-4.8506,-4.8177,-4.8147,-4.7489,-4.683,-5.096,-5.1229,-5.1229,-5.1229,-5.1229,-5.1229,-5.1229,-5.1229,-5.1229,-5.1229,-5.1229,-5.1229,-5.1229,-5.1229,-5.1229,-5.1229,-5.1229,-5.1229,-5.1229,-5.1798,-5.2456,-5.3114,-5.3533,-5.4042,-5.473,-5.5029,-5.5179,-5.5179,-5.5807,-5.6316,-5.6705,-5.7603,-5.8291,-5.868,-5.8949,-5.9099,-5.9099,-5.9099,-5.9099,-5.9099,-5.9099,-5.8949,-5.868,-5.8291,-5.7393,-5.6166,-5.5867,-5.5538,-5.5179,-5.5179,-5.5179,-5.5179,-5.5179,-5.5179,-5.5149,-5.488,-5.461,-5.4281,-5.3922,-5.3773,-5.3653,-5.2995,-5.2785,-5.2725,-5.2456,-5.2097,-5.1798,-5.1798,-5.1498,-5.1229,-5.1229,-5.1229,-5.1229,-5.1229,-5.1229,-5.1229,-5.1229,-5.1229,-5.1229,-5.1229,-5.1229,-5.1229,-5.1229,-5.1229,-5.1229,-5.1229,-5.1229,-5.1229,-5.1229,-5.1229,-5.1229,-5.1229,-5.1229,-5.1229,-5.1229,-5.1229,-5.1229,-5.1229,-5.1229,-5.1229,-5.1229,-5.096,-5.0764,-5.0764,-5.0152,-4.9823,-4.9823,-4.9164,-4.8865,-4.891,-4.8566,-4.8087,-5.1079,-5.1229,-5.1229,-5.1229,-5.1229,-5.1229,-5.1229,-5.1229,-5.1229,-5.1229,-5.1229,-5.1229,-5.1229,-5.1229,-5.1229,-5.1229,-5.1229,-5.1289,-5.1468,-5.2067,-5.2725,-5.3384,-5.4072,-5.467,-5.5149,-5.5179,-5.5179,-5.5179,-5.5957,-5.6615,-5.7064,-5.7932,-5.862,-5.9099,-5.9099,-5.9099,-5.9099,-5.9099,-5.9099,-5.9099,-5.9099,-5.9099,-5.9069,-5.8411,-5.7603,-5.6675,-5.6316,-5.5897,-5.5448,-5.5269,-5.5179,-5.5179,-5.5179,-5.5179,-5.5179,-5.5179,-5.5179,-5.5119,-5.464,-5.4491,-5.4371,-5.3683,-5.3473,-5.3443,-5.3234,-5.2845,-5.2486,-5.2486,-5.2127,-5.1768,-5.1768,-5.1618,-5.1498,-5.1498,-5.1349,-5.1229,-5.1229,-5.1229,-5.1229,-5.1229,-5.1229,-5.1229,-5.1229,-5.1229,-5.1229,-5.1229,-5.1229,-5.1229,-5.1229,-5.1229,-5.1229,-5.1229,-5.1229,-5.1229,-5.1229,-5.1229,-5.1229,-5.1229,-5.1229,-5.1229,-5.1229,-5.1229,-5.1229,-5.1229,-5.0704,-5.0465,-5.0465,-4.9853,-4.9523,-4.9523,-4.9389,-4.906,-5.1199,-5.1229,-5.1229,-5.1229,-5.1229,-5.1229,-5.1229,-5.1229,-5.1229,-5.1229,-5.1229,-5.1229,-5.1229,-5.1229,-5.1229,-5.1229,-5.1229,-5.1439,-5.2067,-5.2725,-5.3414,-5.4102,-5.476,-5.5179,-5.5179,-5.5179,-5.5179,-5.5179,-5.6346,-5.7064,-5.7094,-5.8351,-5.9069,-5.9099,-5.9099,-5.9099,-5.9099,-5.9099,-5.9099,-5.9099,-5.9099,-5.9099,-5.9069,-5.8411,-5.8112,-5.7992,-5.6735,-5.6218,-5.6107,-5.5448,-5.5179,-5.5179,-5.5179,-5.5179,-5.5179,-5.5179,-5.5179,-5.5179,-5.5179,-5.5149,-5.5059,-5.4401,-5.4192,-5.4042,-5.3384,-5.3174,-5.3144,-5.3144,-5.3144,-5.3114,-5.3114,-5.2665,-5.2187,-5.2187,-5.1678,-5.1229,-5.1229,-5.1229,-5.1229,-5.1229,-5.1229,-5.1229,-5.1229,-5.1229,-5.1229,-5.1229,-5.1229,-5.1229,-5.1229,-5.1229,-5.1229,-5.1229,-5.1229,-5.1229,-5.1229,-5.1229,-5.1229,-5.1229,-5.1229,-5.1229,-5.1229,-5.1229,-5.1229,-5.1229,-5.1199,-5.1199,-5.1199,-5.0495,-5.0166,-5.0136,-4.9553,-4.9299,-5.1229,-5.1229,-5.1229,-5.1229,-5.1229,-5.1229,-5.1229,-5.1229,-5.1229,-5.1229,-5.1229,-5.1229,-5.1229,-5.1229,-5.1229,-5.1229,-5.1229,-5.1439,-5.2097,-5.2755,-5.3443,-5.4132,-5.479,-5.5179,-5.5179,-5.5179,-5.5359,-5.5807,-5.6615,-5.7304,-5.7752,-5.862,-5.9099,-5.9099,-5.9099,-5.9099,-5.9099,-5.9099,-5.9099,-5.9099,-5.9099,-5.9099,-5.9099,-5.889,-5.853,-5.8112,-5.7663,-5.7214,-5.6735,-5.6107,-5.5837,-5.5807,-5.5359,-5.5179,-5.5179,-5.5179,-5.5179,-5.5179,-5.5179,-5.5179,-5.5149,-5.494,-5.485,-5.482,-5.4581,-5.4221,-5.3862,-5.3862,-5.3533,-5.3174,-5.3174,-5.3025,-5.2845,-5.2845,-5.2665,-5.2516,-5.2516,-5.2516,-5.2516,-5.2516,-5.2516,-5.2396,-5.1947,-5.1858,-5.1708,-5.1289,-5.1229,-5.1229,-5.1229,-5.1229,-5.1229,-5.1229,-5.1229,-5.1229,-5.1229,-5.1229,-5.1229,-5.1229,-5.1229,-5.1229,-5.1229,-5.1229,-5.1229,-5.1229,-5.1229,-5.1229,-5.1229,-5.0943,-5.0853,-5.0853,-5.0661,-5.0331,-5.1229,-5.1229,-5.1229,-5.1229,-5.1229,-5.1229,-5.1229,-5.1229,-5.1229,-5.1229,-5.1229,-5.1229,-5.1229,-5.1229,-5.1229,-5.1229,-5.1229,-5.1528,-5.2426,-5.2905,-5.3533,-5.4461,-5.494,-5.5179,-5.5179,-5.5418,-5.5718,-5.6188,-5.6735,-5.7393,-5.8082,-5.874,-5.9099,-5.9099,-5.9099,-5.9099,-5.9099,-5.9099,-5.9099,-5.9099,-5.9099,-5.9099,-5.9099,-5.9099,-5.886,-5.8471,-5.8231,-5.7872,-5.7423,-5.6765,-5.6496,-5.6436,-5.5807,-5.5538,-5.5508,-5.5269,-5.5179,-5.5179,-5.5179,-5.5179,-5.5179,-5.5179,-5.5179,-5.5179,-5.5179,-5.491,-5.4551,-5.4551,-5.4251,-5.3892,-5.3892,-5.3743,-5.3563,-5.3563,-5.3354,-5.3174,-5.3174,-5.3174,-5.3174,-5.3174,-5.3174,-5.3054,-5.2636,-5.2366,-5.2067,-5.1618,-5.1379,-5.1229,-5.1229,-5.1229,-5.1229,-5.1229,-5.1229,-5.1229,-5.1229,-5.1229,-5.1229,-5.1229,-5.1229,-5.1229,-5.1229,-5.1229,-5.1229,-5.1229,-5.1229,-5.1229,-5.1229,-5.1229,-5.1229,-5.1229,-5.1229,-5.0943,-5.1229,-5.1229,-5.1229,-5.1229,-5.1229,-5.1229,-5.1229,-5.1229,-5.1229,-5.1229,-5.1229,-5.1229,-5.1229,-5.1229,-5.1229,-5.1229,-5.1229,-5.1678,-5.2995,-5.3174,-5.3683,-5.5029,-5.5179,-5.5209,-5.5239,-5.5807,-5.6248,-5.6308,0.0,-5.7453,-5.8141,-5.877,-5.9099,-5.9099,-5.9099,-5.9099,-5.9099,-5.9099,-5.9099,-5.9099,-5.9099,-5.9099,-5.9099,-5.9099,-5.9099,-5.9069,-5.8441,-5.8171,-5.8112,-5.7423,-5.7154,-5.7094,-5.6466,-5.6248,-5.6107,-5.5478,-5.5209,-5.5179,-5.5179,-5.5179,-5.5179,-5.5179,-5.5179,-5.5179,-5.5179,-5.5179,-5.5179,-5.5179,-5.5179,-5.5179,-5.5179,-5.473,-5.4251,-5.4251,-5.3773,-5.3294,-5.3294,-5.3294,-5.3294,-5.3294,-5.3264,-5.3234,-5.3234,-5.2695,-5.2247,-5.2217,-5.1678,-5.1259,-5.1229,-5.1229,-5.1229,-5.1229,-5.1229,-5.1229,-5.1229,-5.1229,-5.1229,-5.1229,-5.1229,-5.1229,-5.1229,-5.1229,-5.1229,-5.1229,-5.1229,-5.1229,-5.1229,-5.1229,-5.1229,-5.1229,-5.1229,-5.1229,-5.1229,-5.1229,-5.1229,-5.1229,-5.1229,-5.1229,-5.1229,-5.1229,-5.1229,-5.1229,-5.1229,-5.1229,-5.1229,-5.1229,-5.1229,-5.1229,-5.1229,-5.1678,-5.2995,-5.3174,-5.3683,-5.5029,-5.5179,-5.5388,-5.5867,-5.6128,-5.6585,-5.7543,-5.7782,-5.8141,-5.883,-5.9009,-5.9099,-5.9099,-5.9099,-5.9099,-5.9099,-5.9099,-5.9099,-5.9099,-5.9099,-5.9099,-5.9099,-5.9099,-5.9099,-5.9099,-5.8919,-5.886,-5.88,-5.8141,-5.7872,-5.7782,-5.7124,-5.6585,-5.6188,-5.5987,-5.5598,-5.5179,-5.5179,-5.5179,-5.5179,-5.5179,-5.5179,-5.5179,-5.5179,-5.5179,-5.5179,-5.5179,-5.5179,-5.5179,-5.5179,-5.5059,-5.494,-5.494,-5.479,-5.467,-5.467,-5.467,-5.467,-5.467,-5.4281,-5.3952,-5.3952,-5.3384,-5.2755,-5.2276,-5.2067,-5.1768,-5.1289,-5.1229,-5.1229,-5.1229,-5.1229,-5.1229,-5.1229,-5.1229,-5.1229,-5.1229,-5.1229,-5.1229,-5.1229,-5.1229,-5.1229,-5.1229,-5.1229,-5.1229,-5.1229,-5.1229,-5.1229,-5.1229,-5.1229,-5.1229,-5.1229,-5.1229,-5.1229,-5.1229,-5.1229,-5.1229,-5.1229,-5.1229,-5.1229,-5.1229,-5.1229,-5.1229,-5.1229,-5.1229,-5.1229,-5.1229,-5.1229,-5.1678,-5.2995,-5.3174,-5.3683,-5.5029,-5.5448,-5.5777,-5.6188,-5.6705,-5.7334,-5.8082,-5.8112,-5.8411,-5.9069,-5.9099,-5.9099,-5.9099,-5.9099,-5.9099,-5.9099,-5.9099,-5.9099,-5.9099,-5.9099,-5.9099,-5.9099,-5.9099,-5.9099,-5.9099,0.0,-5.9099,-5.9069,-5.871,-5.856,-5.8471,-5.7812,-5.7334,-5.6974,-5.6428,-5.5927,-5.5598,-5.5299,-5.5179,-5.5179,-5.5179,-5.5179,-5.5179,-5.5179,-5.5179,-5.5179,-5.5179,-5.5179,-5.5179,-5.5179,-5.5179,-5.5179,-5.5179,-5.5179,-5.5179,-5.5179,-5.5179,-5.5179,-5.5179,-5.491,-5.464,-5.464,-5.4072,-5.3503,-5.3144,-5.2576,-5.2067,-5.1708,-5.1409,-5.1229,-5.1229,-5.1229,-5.1229,-5.1229,-5.1229,-5.1229,-5.1229,-5.1229,-5.1229,-5.1229,-5.1229,-5.1229,-5.1229,-5.1229,-5.1229,-5.1229,-5.1229,-5.1229,-5.1229,-5.1229,-5.1229,-5.1229,-5.1229,-5.1229,-5.1229,-5.1229,-5.1229,-5.1229,-5.1229,-5.1229,-5.1229,-5.1229,-5.1229,-5.1229,-5.1229,-5.1229,-5.1229,-5.1229,-5.1678,-5.2995,-5.3174,-5.3683,-5.5029,-5.5777,-5.6248,-5.6286,-5.7393,-5.8171,-5.8261,-5.8261,-5.8501,-5.9069,-5.9099,-5.9099,-5.9099,-5.9099,-5.9099,-5.9099,-5.9099,-5.9099,-5.9099,-5.9099,-5.9099,-5.9099,-5.9099,-5.9099,-5.9099,-5.9099,0.0,-5.9099,-5.9099,-5.9099,-5.9039,-5.8471,-5.8201,-5.7992,-5.6855,-5.6368,-5.6128,-5.5508,-5.5269,-5.5179,-5.5179,-5.5179,-5.5179,-5.5179,-5.5179,-5.5179,-5.5179,-5.5179,-5.5179,-5.5179,-5.5179,-5.5179,-5.5179,-5.5179,-5.5179,-5.5179,-5.5179,-5.5179,-5.5179,-5.5179,-5.5179,-5.5179,-5.473,-5.4311,-5.4221,-5.3204,-5.2396,-5.2217,-5.1618,-5.1229,-5.1229,-5.1229,-5.1229,-5.1229,-5.1229,-5.1229,-5.1229,-5.1229,-5.1229,-5.1229,-5.1229,-5.1229,-5.1229,-5.1229,-5.1229,-5.1229,-5.1229,-5.1229,-5.1229,-5.1229,-5.1229,-5.1229,-5.1229,-5.1229,-5.1229,-5.1229,-5.1229,-5.1229,-5.1229,-5.1229,-5.1229,-5.1229,-5.1229,-5.1229,-5.1229,-5.1229,-5.1229,-5.1229,-5.1678,-5.2995,-5.3174,-5.3683,-5.5029,-5.5777,-5.6428,-5.6885,-5.7663,-5.8351,-5.889,-5.8949,-5.8979,-5.9099,-5.9099,-5.9099,-5.9099,-5.9099,-5.9099,-5.9099,-5.9099,-5.9099,-5.9099,-5.9099,-5.9099,-5.9099,-5.9099,-5.9099,-5.9099,-5.9099,0.0,-5.9099,-5.9099,-5.9099,-5.9099,-5.8979,-5.859,-5.8082,-5.7872,-5.7094,-5.6166,-5.6098,-5.5658,-5.5179,-5.5179,-5.5179,-5.5179,-5.5179,-5.5179,-5.5179,-5.5179,-5.5179,-5.5179,-5.5179,-5.5179,-5.5179,-5.5179,-5.5179,-5.5179,-5.5179,-5.5179,-5.5179,-5.5179,-5.5179,-5.5179,-5.5179,-5.5089,-5.485,-5.4281,-5.4012,-5.3443,-5.2336,-5.1618,-5.1229,-5.1229,-5.1229,-5.1229,-5.1229,-5.1229,-5.1229,-5.1229,-5.1229,-5.1229,-5.1229,-5.1229,-5.1229,-5.1229,-5.1229,-5.1229,-5.1229,-5.1229,-5.1229,-5.1229,-5.1229,-5.1229,-5.1229,-5.1229,-5.1229,-5.1229,-5.1229,-5.1229,-5.1229,-5.1229,-5.1229,-5.1229,-5.1229,-5.1229,-5.1229,-5.1229,-5.1229,-5.1229,-5.1229,-5.1678,-5.2995,-5.3174,-5.3683,-5.5029,-5.6047,-5.6765,-5.7064,-5.8022,-5.877,-5.9069,-5.9099,-5.9099,-5.9099,-5.9099,-5.9099,-5.9099,-5.9099,-5.9099,-5.9099,-5.9099,-5.9099,-5.9099,-5.9099,-5.9099,-5.9099,-5.9099,-5.9099,-5.9099,-5.9099,0.0,-5.9099,-5.9099,-5.9099,-5.9099,-5.9099,-5.8919,-5.859,-5.8261,-5.7723,-5.7094,-5.6406,-5.5957,-5.5658,-5.5299,-5.5179,-5.5179,-5.5179,-5.5179,-5.5179,-5.5179,-5.5179,-5.5179,-5.5179,-5.5179,-5.5179,-5.5179,-5.5179,-5.5179,-5.5179,-5.5179,-5.5179,-5.5179,-5.5179,-5.5179,-5.5179,-5.5179,-5.5089,-5.476,-5.4431,-5.3982,-5.3324,-5.2366,-5.1588,-5.1259,-5.1229,-5.1229,-5.1229,-5.1229,-5.1229,-5.1229,-5.1229,-5.1229,-5.1229,-5.1229,-5.1229,-5.1229,-5.1229,-5.1229,-5.1229,-5.1229,-5.1229,-5.1229,-5.1229,-5.1229,-5.1229,-5.1229,-5.1229,-5.1229,-5.1229,-5.1229,-5.1229,-5.1229,-5.1229,-5.1229,-5.1229,-5.1229,-5.1229,-5.1229,-5.1229,-5.1229,-5.1229,-5.1678,-5.2995,-5.3174,-5.3683,-5.5029,-5.6316,-5.7094,-5.7094,-5.8321,-5.9099,-5.9099,-5.9099,-5.9099,-5.9099,-5.9099,-5.9099,-5.9099,-5.9099,-5.9099,-5.9099,-5.9099,-5.9099,-5.9099,-5.9099,-5.9099,-5.9099,-5.9099,-5.9099,-5.9099,-5.9099,0.0,0.0,-5.9099,-5.9099,-5.9099,-5.9099,-5.9099,-5.9039,-5.853,-5.8231,-5.7992,-5.6944,-5.6406,-5.6077,-5.5568,-5.5299,-5.5179,-5.5179,-5.5179,-5.5179,-5.5179,-5.5179,-5.5179,-5.5179,-5.5179,-5.5179,-5.5179,-5.5179,-5.5179,-5.5179,-5.5179,-5.5179,-5.5179,-5.5179,-5.5179,-5.5179,-5.5179,-5.5179,-5.5179,-5.476,-5.4371,-5.4221,-5.3144,-5.2157,-5.1498,-5.1319,-5.1229,-5.1229,-5.1229,-5.1229,-5.1229,-5.1229,-5.1229,-5.1229,-5.1229,-5.1229,-5.1229,-5.1229,-5.1229,-5.1229,-5.1229,-5.1229,-5.1229,-5.1229,-5.1229,-5.1229,-5.1229,-5.1229,-5.1229,-5.1229,-5.1229,-5.1229,-5.1229,-5.1229,-5.1229,-5.1229,-5.1229,-5.1229,-5.1229,-5.1229,-5.1229,-5.1229,-5.1678,-5.2995,-5.3174,-5.3683,-5.5029,-5.6316,-5.7094,-5.7094,-5.8321,-5.9099,-5.9099,-5.9099,-5.9099,-5.9099,-5.9099,-5.9099,-5.9099,-5.9099,-5.9099,-5.9099,-5.9099,-5.9099,-5.9099,-5.9099,-5.9099,-5.9099,-5.9099,-5.9099,-5.9099,-5.9099,0.0,0.0,-5.9099,-5.9099,-5.9099,-5.9099,-5.9099,-5.9099,-5.9039,-5.865,-5.8058,-5.7992,-5.7184,-5.6218,-5.6158,-5.5688,-5.5179,-5.5179,-5.5179,-5.5179,-5.5179,-5.5179,-5.5179,-5.5179,-5.5179,-5.5179,-5.5179,-5.5179,-5.5179,-5.5179,-5.5179,-5.5179,-5.5179,-5.5179,-5.5179,-5.5179,-5.5179,-5.5179,-5.5179,-5.5149,-5.488,-5.4281,-5.3563,-5.2845,-5.2187,-5.1558,-5.1229,-5.1229,-5.1229,-5.1229,-5.1229,-5.1229,-5.1229,-5.1229,-5.1229,-5.1229,-5.1229,-5.1229,-5.1229,-5.1229,-5.1229,-5.1229,-5.1229,-5.1229,-5.1229,-5.1229,-5.1229,-5.1229,-5.1229,-5.1229,-5.1229,-5.1229,-5.1229,-5.1229,-5.1229,-5.1229,-5.1229,-5.1229,-5.1229,-5.1229,-5.1229,-5.1229,-5.1678,-5.2995,-5.3174,-5.3683,-5.5029,-5.6316,-5.7094,-5.7094,-5.8321,-5.9099,-5.9099,-5.9099,-5.9099,-5.9099,-5.9099,-5.9099,-5.9099,-5.9099,-5.9099,-5.9099,-5.9099,-5.9099,-5.9099,-5.9099,-5.9099,-5.9099,-5.9099,-5.9099,-5.9099,-5.9099,0.0,0.0,-5.9099,-5.9099,-5.9099,-5.9099,-5.9099,-5.9099,-5.9099,-5.8949,-5.865,-5.8261,-5.7782,-5.7214,-5.6436,-5.5987,-5.5718,-5.5299,-5.5179,-5.5179,-5.5179,-5.5179,-5.5179,-5.5179,-5.5179,-5.5179,-5.5179,-5.5179,-5.5179,-5.5179,-5.5179,-5.5179,-5.5179,-5.5179,-5.5179,-5.5179,-5.5179,-5.5179,-5.5179,-5.5179,-5.5089,-5.485,-5.3862,-5.3084,-5.2815,-5.1858,-5.1229,-5.1229,-5.1229,-5.1229,-5.1229,-5.1229,-5.1229,-5.1229,-5.1229,-5.1229,-5.1229,-5.1229,-5.1229,-5.1229,-5.1229,-5.1229,-5.1229,-5.1229,-5.1229,-5.1229,-5.1229,-5.1229,-5.1229,-5.1229,-5.1229,-5.1229,-5.1229,-5.1229,-5.1229,-5.1229,-5.1229,-5.1229,-5.1229,-5.1229,-5.1229,-5.1229,-5.1678,-5.2995,-5.3174,-5.3683,-5.5029,-5.6316,-5.7094,-5.7094,-5.8321,-5.9099,-5.9099,-5.9099,-5.9099,-5.9099,-5.9099,-5.9099,-5.9099,-5.9099,-5.9099,-5.9099,-5.9099,-5.9099,-5.9099,-5.9099,-5.9099,-5.9099,-5.9099,-5.9099,-5.9099,-5.9099,0.0,0.0,-5.9099,-5.9099,-5.9099,-5.9099,-5.9099,-5.9099,-5.9099,-5.9099,-5.9039,-5.859,-5.8291,-5.7962,-5.7034,-5.6496,-5.6077,-5.5628,-5.5359,-5.5179,-5.5179,-5.5179,-5.5179,-5.5179,-5.5179,-5.5179,-5.5179,-5.5179,-5.5179,-5.5179,-5.5179,-5.5179,-5.5179,-5.5179,-5.5179,-5.5179,-5.5179,-5.5179,-5.5179,-5.5179,-5.5179,-5.5179,-5.4192,-5.3414,-5.3204,-5.2187,-5.1439,-5.1229,-5.1229,-5.1229,-5.1229,-5.1229,-5.1229,-5.1229,-5.1229,-5.1229,-5.1229,-5.1229,-5.1229,-5.1229,-5.1229,-5.1229,-5.1229,-5.1229,-5.1229,-5.1229,-5.1229,-5.1229,-5.1229,-5.1229,-5.1229,-5.1229,-5.1229,-5.1229,-5.1229,-5.1229,-5.1229,-5.1229,-5.1229,-5.1229,-5.1229,-5.1229,-5.1678,-5.2995,-5.3174,-5.3683,-5.5029,-5.6316,-5.7094,-5.7094,-5.8321,-5.9099,-5.9099,-5.9099,0.0,-5.9099,-5.9099,-5.9099,-5.9099,-5.9099,-5.9099,-5.9099,-5.9099,-5.9099,-5.9099,-5.9099,-5.9099,-5.9099,-5.9099,-5.9099,0.0,0.0,0.0,0.0,-5.9099,-5.9099,-5.9099,-5.9099,-5.9099,-5.9099,-5.9099,-5.9099,-5.9099,-5.9099,-5.868,-5.8112,-5.8058,-5.7244,-5.6218,-5.6218,-5.5718,-5.5179,-5.5179,-5.5179,-5.5179,-5.5179,-5.5179,-5.5179,-5.5179,-5.5179,-5.5179,-5.5179,-5.5179,-5.5179,-5.5179,-5.5179,-5.5179,-5.5179,-5.5179,-5.5179,-5.5179,-5.5179,-5.5179,-5.5179,-5.461,-5.3952,-5.3264,-5.2576,-5.1917,-5.1289,-5.1229,-5.1229,-5.1229,-5.1229,-5.1229,-5.1229,-5.1229,-5.1229,-5.1229,-5.1229,-5.1229,-5.1229,-5.1229,-5.1229,-5.1229,-5.1229,-5.1229,-5.1229,-5.1229,-5.1229,-5.1229,-5.1229,-5.1229,-5.1229,-5.1229,-5.1229,-5.1229,-5.1229,-5.1229,-5.1229,-5.1229,-5.1229,-5.1229,-5.1229,-5.1528,-5.2396,-5.2905,-5.3503,-5.4401,-5.6047,-5.7453,-5.8381,-5.886,-5.9099,-5.9099,-5.9099,-5.9099,-5.9099,-5.9099,-5.9099,-5.9099,-5.9099,-5.9099,-5.9099,-5.9099,-5.9099,-5.9099,-5.9099,-5.9099,-5.9099,-5.9099,-5.9099,0.0,0.0,0.0,0.0,-5.9099,-5.9099,-5.9099,-5.9099,-5.9099,-5.9099,-5.9099,-5.9099,-5.9099,-5.9099,-5.8979,-5.871,-5.8261,-5.7842,-5.7334,-5.6436,-5.5718,-5.5179,-5.5179,-5.5179,-5.5179,-5.5179,-5.5179,-5.5179,-5.5179,-5.5179,-5.5179,-5.5179,-5.5179,-5.5179,-5.5179,-5.5179,-5.5179,-5.5179,-5.5179,-5.5179,-5.5179,-5.4355,-5.3675,-5.3675,-5.3121,-5.2428,-5.1787,-5.2013,-5.1947,-5.1289,-5.1229,-5.1229,-5.1229,-5.1229,-5.0793,-4.9873,-4.9824,-4.9824,-4.9824,-4.9824,-5.0287,-5.1229,-5.1229,-5.1229,-5.1229,-5.1229,-5.1229,-5.1229,-5.1229,-5.1229,-5.1229,-5.1229,-5.1229,-5.1229,-5.1229,-5.1229,-5.1229,-5.1229,-5.1229,-5.1229,-5.1229,-5.1229,-5.1229,-5.1229,-5.1528,-5.2456,-5.2935,-5.3713,-5.5119,-5.6346,-5.7633,-5.8979,-5.9099,-5.9099,-5.9099,-5.9099,-5.9099,-5.9099,-5.9099,-5.9099,-5.9099,-5.9099,-5.9099,-5.9099,-5.9099,-5.9099,-5.9099,-5.9099,-5.9099,-5.9099,-5.9099,-5.9099,0.0,0.0,0.0,0.0,-5.9099,-5.9099,-5.9099,-5.9099,-5.9099,-5.9099,-5.9099,-5.9099,-5.9099,-5.9099,-5.9099,-5.9039,-5.862,-5.8321,-5.7872,-5.6585,-5.5718,-5.5179,-5.5179,-5.5179,-5.5179,-5.5179,-5.5179,-5.5179,-5.5179,-5.5179,-5.5179,-5.5179,-5.5179,-5.5179,-5.5179,-5.5179,-5.5179,-5.5179,-5.5179,-5.5027,-5.4458,-5.3571,-5.2804,-5.2241,-5.1793,-5.147,-5.1391,-5.1114,-5.0924,-5.0825,-5.0607,-5.046,-5.046,-5.046,-5.0095,-4.921,-4.921,-4.921,-4.921,-4.921,-4.963,-5.046,-5.046,-5.046,-5.046,-5.0964,-5.1229,0.0,-5.1229,-5.1229,-5.1229,-5.1229,-5.1229,-5.1229,-5.1229,0.0,-5.1229,-5.1229,-5.1229,-5.1229,-5.1229,-5.1229,-5.1229,-5.1229,-5.1648,-5.2935,-5.3204,-5.4221,-5.6795,-5.7094,-5.7633,-5.8979,-5.9099,-5.9099,-5.9099,-5.9099,-5.9099,-5.9099,-5.9099,-5.9099,-5.9099,-5.9099,-5.9099,-5.9099,-5.9099,-5.9099,-5.9099,-5.9099,-5.9099,-5.9099,-5.9099,-5.9099,0.0,0.0,0.0,0.0,-5.9099,-5.9099,-5.9099,-5.9099,-5.9099,-5.9099,-5.9099,-5.9099,-5.9099,-5.9099,-5.9099,-5.9099,-5.9099,-5.865,-5.7902,-5.6675,-5.5837,-5.5239,-5.5209,-5.5179,-5.5179,-5.5179,-5.5179,-5.5179,-5.5179,-5.5179,-5.5179,-5.5179,-5.5128,-5.5027,-5.5027,-5.4947,-5.4896,-5.5027,-5.4947,-5.4458,-5.3174,-5.2804,-5.2187,-5.0713,-5.0546,-5.0821,-5.1599,-5.0079,-4.92,-4.9845,-4.9387,-4.9063,-4.9063,-4.9063,-4.9014,-4.8886,-4.8886,-4.8964,-4.9063,-4.9161,-4.9161,-4.9063,-4.9161,-4.921,-4.921,-5.0508,-5.1058,-5.1229,0.0,-5.1229,-5.1229,-5.1229,-5.1229,0.0,-5.1229,-5.1229,-5.1229,-5.1229,-5.1229,-5.1229,-5.1229,-5.1229,-5.1229,-5.1229,-5.1498,-5.2306,-5.3324,-5.473,-5.6855,-5.7094,-5.7633,-5.8979,-5.9099,-5.9099,-5.9099,-5.9099,-5.9099,-5.9099,-5.9099,-5.9099,-5.9099,-5.9099,-5.9099,-5.9099,-5.9099,-5.9099,-5.9099,-5.9099,-5.9099,-5.9099,-5.9099,-5.9099,0.0,0.0,0.0,-5.9099,-5.9099,-5.9099,-5.9099,-5.9099,-5.9099,-5.9099,-5.9099,-5.9099,-5.9099,-5.9099,-5.9099,-5.9099,-5.9099,-5.865,-5.8052,-5.7752,-5.6855,-5.5837,-5.5329,-5.5179,-5.5179,-5.5179,-5.5179,-5.5179,-5.5179,-5.5179,-5.5179,-5.5179,-5.4304,-5.3518,-5.3518,-5.2562,-5.2105,-5.3308,-5.2562,-5.2051,-5.2857,-5.1016,-4.9422,-4.908,-4.9022,-4.8896,-4.8561,-4.9146,-4.8789,-4.7029,-4.7298,-4.7605,-4.7605,-4.7605,-4.7094,-4.603,-4.5978,-4.6474,-4.7554,-4.8638,-4.8688,-4.7605,-4.8688,-4.921,-4.921,-4.9504,-4.9679,-5.1229,-5.1229,-5.1229,-5.1229,-5.1229,-5.1229,-5.1229,-5.1229,-5.1229,-5.1229,-5.1229,-5.1229,-5.1229,-5.1229,-5.1229,-5.1229,-5.1229,-5.1558,-5.2516,-5.3803,-5.5269,-5.6915,-5.7094,-5.7633,-5.8979,-5.9099,-5.9099,-5.9099,-5.9099,-5.9099,-5.9099,-5.9099,-5.9099,-5.9099,-5.9099,-5.9099,-5.9099,-5.9099,-5.9099,-5.9099,-5.9099,-5.9099,-5.9099,-5.9099,-5.9099,0.0,0.0,0.0,-5.9099,-5.9099,-5.9099,-5.9099,-5.9099,-5.9099,-5.9099,-5.9099,-5.9099,-5.9099,-5.9099,-5.9099,-5.9099,-5.9099,-5.886,-5.853,-5.8201,-5.7096,-5.5955,-5.5743,-5.5418,-5.5179,-5.5179,-5.5179,-5.5179,-5.5179,-5.5179,-5.5179,-5.5179,-5.4016,-5.3016,-5.3016,-5.1781,-5.0989,-5.1781,-5.1263,-5.0768,-5.0906,-4.9535,-4.8268,-4.7593,-4.7475,-4.7639,-4.7911,-4.7849,-4.7404,-4.642,-4.5896,-4.5742,-4.6083,-4.6135,-4.582,-4.5048,-4.4994,-4.5342,-4.6135,-4.6888,-4.6888,-4.6135,-4.6888,-4.7605,-4.8239,-4.8239,-4.8589,-5.1229,-5.1229,-5.1229,-5.1229,-5.1229,-5.1229,-5.1229,-5.1229,-5.1229,-5.1229,-5.1229,-5.1229,-5.1229,-5.1229,-5.1229,-5.1229,-5.1379,-5.1947,-5.3174,-5.4401,-5.5658,-5.6944,-5.7094,-5.7633,-5.8979,-5.9099,-5.9099,-5.9099,-5.9099,-5.9099,-5.9099,-5.9099,-5.9099,-5.9099,-5.9099,-5.9099,-5.9099,-5.9099,-5.9099,-5.9099,-5.9099,-5.9099,-5.9099,-5.9099,-5.9099,-5.9099,0.0,0.0,-5.9099,-5.9099,-5.9099,-5.9099,-5.9099,-5.9099,-5.9099,-5.9099,-5.9099,-5.9099,-5.9099,-5.9099,-5.9099,-5.9099,-5.9099,-5.9009,-5.8441,-5.7034,-5.5721,-5.6054,-5.5434,-5.4657,-5.4539,-5.4692,-5.4845,-5.4845,-5.4845,-5.4845,-5.4845,-5.3518,-5.2295,-5.2295,-5.1071,-5.0101,-5.0324,-5.0157,-4.9651,-4.8647,-4.83,-4.771,-4.6481,-4.6301,-4.6755,-4.8035,-4.6619,-4.5875,-4.6608,-4.5016,-4.4173,-4.48,-4.4724,-4.4671,-4.4671,-4.4887,-4.4887,-4.4671,-4.4887,-4.4887,-4.4671,-4.4887,-4.5608,-4.6785,-4.6785,-4.7402,-5.1229,-5.1229,-5.1229,-5.1229,-5.1229,-5.1229,-5.1229,-5.1229,-5.1229,-5.1229,-5.1229,-5.1229,-5.1229,-5.1229,-5.1229,-5.1229,-5.2157,-5.3144,-5.3952,-5.47,-5.5658,-5.6944,-5.7094,-5.7633,-5.8979,-5.9099,-5.9099,-5.9099,-5.9099,-5.9099,-5.9099,-5.9099,-5.9099,-5.9099,-5.9099,-5.9099,-5.9099,-5.9099,-5.9099,-5.9099,-5.9099,-5.9099,-5.9099,-5.9099,-5.9099,-5.9099,0.0,-5.9099,-5.9099,-5.9099,-5.9099,-5.9099,-5.9099,-5.9099,-5.9099,-5.9099,-5.9099,-5.9099,-5.9099,-5.9099,-5.9099,-5.9099,-5.9099,-5.9069,-5.8979,-5.7441,-5.5756,-5.5805,-5.4057,-5.2044,-5.1512,-5.2348,-5.3361,-5.3361,-5.3361,-5.3361,-5.3361,-5.1126,-4.9194,-4.9194,-4.7977,-4.7357,-4.8647,-4.7802,-4.7298,-4.8358,-4.7416,-4.6541,-4.6301,-4.6301,-4.6361,-4.6576,-4.6345,-4.6069,-4.575,-4.4936,-4.4324,-4.4029,-4.3548,-4.3295,-4.3295,-4.4427,-4.4481,-4.3351,-4.4427,-4.4427,-4.3295,-4.4427,-4.5102,-4.5289,-4.5289,-4.5449,-5.1011,-5.1229,-5.1229,-5.1229,-5.1229,-5.1229,-5.1229,-5.1229,-5.1229,-5.1229,-5.1229,-5.1229,-5.1229,-5.1229,-5.1319,-5.1678,-5.2546,-5.3414,-5.4132,-5.5089,-5.6077,-5.6974,-5.7423,-5.8022,-5.9009,-5.9099,-5.9099,-5.9099,-5.9099,-5.9099,-5.9099,-5.9099,-5.9099,-5.9099,-5.9099,-5.9099,-5.9099,-5.9099,-5.9099,-5.9099,-5.9099,-5.9099,-5.9099,-5.9099,-5.9099,-5.9099,0.0,-5.9099,-5.9099,-5.9099,-5.9099,-5.9099,-5.9099,-5.9099,-5.9099,-5.9099,-5.858,-5.7804,-5.7804,-5.7804,-5.7804,-5.7804,-5.8386,-5.9099,-5.9099,-5.7181,-5.4965,-5.4627,-5.3105,-5.154,-5.1237,-5.1459,-5.1781,-5.1781,-5.1781,-5.1781,-5.1781,-5.0016,-4.8474,-4.8474,-4.7324,-4.6541,-4.7205,-4.6755,-4.6541,-4.7205,-4.6755,-4.6301,-4.6301,-4.6301,-4.6301,-4.6301,-4.6301,-4.6075,-4.5547,-4.5246,-4.4593,-4.3438,-4.3112,-4.2986,-4.2986,-4.3602,-4.3657,-4.3042,-4.3602,-4.3602,-4.2986,-4.3602,-4.4264,-4.4994,-4.4264,-4.4318,-5.087,-5.0964,-5.0793,-5.1105,-5.1229,-5.1229,-5.1229,-5.1229,-5.1229,-5.1229,-5.1229,-5.1229,-5.1229,-5.1229,-5.1498,-5.2306,-5.2845,-5.3473,-5.4311,-5.5448,-5.6406,-5.7034,-5.7693,-5.8381,-5.9039,-5.9099,-5.9099,-5.9099,-5.9099,0.0,-5.9099,-5.9099,-5.9099,-5.9099,-5.9099,-5.9099,-5.9099,-5.9099,-5.9099,-5.9099,-5.9099,-5.9099,-5.9099,-5.9099,-5.9099,-5.9099,-5.9099,-5.9099,-5.9099,-5.9099,-5.9099,-5.9099,-5.9099,-5.9099,-5.9099,-5.9099,-5.8081,-5.6736,-5.6736,-5.6423,-5.6137,-5.6137,-5.6991,-5.797,-5.797,-5.605,-5.374,-5.3275,-5.2081,-5.0864,-5.0594,-5.0447,-5.032,-5.0184,-5.0157,-5.0157,-5.0157,-4.9022,-4.7977,-4.7977,-4.7087,-4.6301,-4.6301,-4.6301,-4.6301,-4.6301,-4.6301,-4.6301,-4.6301,-4.6301,-4.6301,-4.6301,-4.6301,-4.6075,-4.5547,-4.5497,-4.4819,-4.3263,-4.3062,-4.2986,-4.2986,-4.2986,-4.2986,-4.2986,-4.2986,-4.2986,-4.2986,-4.2986,-4.3547,-4.4535,-4.3492,-4.3547,-5.087,-5.0287,-4.963,-5.0917,-5.1229,-5.1229,-5.1229,-5.1229,-5.1229,-5.1229,-5.1229,-5.1229,-5.1229,-5.1229,-5.1618,-5.2905,-5.3144,-5.3623,-5.494,-5.5718,-5.6406,-5.7034,-5.7693,-5.8381,-5.9039,-5.9099,-5.9099,-5.9099,-5.9099,0.0,-5.9099,-5.9099,-5.9099,-5.9099,-5.9099,-5.9099,-5.9099,-5.9099,-5.9099,-5.9099,-5.9099,-5.9099,-5.9099,-5.9099,-5.9099,-5.9099,-5.9099,-5.9099,-5.9099,-5.9099,-5.9099,-5.9099,-5.9099,-5.9099,-5.9099,-5.9099,-5.8081,-5.6736,-5.6736,-5.5734,-5.4564,-5.4564,-5.4623,-5.4741,-5.4741,-5.3549,-5.2148,-5.2095,-5.0587,-4.8761,-4.7688,-4.8368,-4.9282,-4.8753,-4.8647,-4.8647,-4.8647,-4.7475,-4.6481,-4.6481,-4.6361,-4.6301,-4.6301,-4.6301,-4.6301,-4.6301,-4.6301,-4.6301,-4.6301,-4.6301,-4.6301,-4.6301,-4.6301,-4.6075,-4.5547,-4.5497,-4.4995,-4.3815,-4.3263,-4.2986,-4.2986,-4.2986,-4.2986,-4.2986,-4.2986,-4.2986,-4.2986,-4.2986,-4.3017,-4.3129,-4.3042,-4.3017,-4.9357,-4.9582,-4.9308,-4.9824,-5.0603,-5.1229,-5.1229,-5.1229,-5.1229,-5.1229,-5.1229,-5.1229,-5.1229,-5.1558,-5.2127,-5.3025,-5.3533,-5.4132,-5.5059,-5.6077,-5.6825,-5.7064,-5.8052,-5.883,-5.9069,-5.9099,-5.9099,-5.9099,-5.9099,0.0,-5.9099,-5.9099,-5.9099,-5.9099,-5.9099,-5.9099,-5.9099,-5.9099,-5.9099,-5.9099,-5.9099,-5.9099,-5.9099,-5.9099,-5.9099,-5.9099,-5.9099,-5.9099,-5.9099,-5.9099,-5.9099,-5.9099,-5.9099,-5.9099,-5.9099,-5.9099,-5.744,-5.5269,-5.5269,-5.4268,-5.2883,-5.2883,-5.361,-5.4386,-5.4386,-5.3248,-5.1989,-5.1989,-5.0699,-4.9113,-4.836,-4.8038,-4.7854,-4.7649,-4.7402,-4.7146,-4.7146,-4.6695,-4.6301,-4.6301,-4.6301,-4.6301,-4.6301,-4.6301,-4.6301,-4.6301,-4.6301,-4.6301,-4.6301,-4.6301,-4.6301,-4.6301,-4.6301,-4.6225,-4.6024,-4.5673,-4.5296,-4.4869,-4.3991,-4.3338,-4.2986,-4.2986,-4.2986,-4.2986,-4.2986,-4.2986,-4.2986,-4.2986,-4.2986,-4.2986,-4.2986,-4.2986,-4.7859,-4.8239,-4.7959,-4.8439,-4.921,-5.0017,-5.046,-5.0917,-5.1058,-5.065,-5.0917,-5.1229,-5.1229,-5.1768,-5.2426,-5.3084,-5.3773,-5.4431,-5.5089,-5.6107,-5.6885,-5.7064,-5.8112,-5.889,-5.9069,-5.9099,-5.9099,-5.9099,0.0,0.0,0.0,-5.9099,-5.9099,-5.9099,-5.9099,-5.9099,-5.9099,-5.9099,-5.9099,-5.9099,-5.9099,-5.9099,-5.9099,-5.9099,-5.9099,-5.9099,-5.9099,-5.9099,-5.9045,-5.858,-5.8055,-5.7637,-5.7637,-5.7915,-5.8276,-5.7804,-5.628,-5.4327,-5.379,-5.2578,-5.1268,-5.1268,-5.1989,-5.291,-5.291,-5.2112,-5.1268,-5.1268,-5.0436,-4.9515,-4.9138,-4.8335,-4.7556,-4.723,-4.6853,-4.6527,-4.6351,-4.6301,-4.6301,-4.6301,-4.6301,-4.6301,-4.6301,-4.6301,-4.6301,-4.6301,-4.6301,-4.6301,-4.6301,-4.6301,-4.6301,-4.6301,-4.6301,-4.6301,-4.6301,-4.5974,-4.5673,-4.5497,-4.4769,-4.4016,-4.3263,-4.3062,-4.2986,-4.2986,-4.2986,-4.2986,-4.2986,-4.2986,-4.2986,-4.2986,-4.2986,-4.2986,-4.6682,-4.6083,-4.5342,-4.6733,-4.7094,-4.7453,-4.8837,-5.0191,-5.0793,-4.9455,-5.0287,-5.1229,-5.1229,-5.1768,-5.2426,-5.3084,-5.3773,-5.4431,-5.5089,-5.5748,-5.6406,-5.7034,-5.7693,-5.8381,-5.9039,-5.9099,-5.9099,-5.9099,0.0,0.0,0.0,-5.9099,-5.9099,-5.9099,-5.9099,-5.9099,-5.9099,-5.9099,-5.9099,-5.9099,-5.9099,-5.9099,-5.9099,-5.9099,-5.9099,-5.9099,-5.9099,-5.9045,-5.8936,-5.7328,-5.5791,-5.4386,-5.4386,-5.5327,-5.648,-5.4976,-5.4386,-5.4149,-5.2516,-5.0979,-4.959,-4.959,-4.959,-4.959,-4.959,-4.959,-4.959,-4.959,-4.959,-4.959,-4.959,-4.9188,-4.851,-4.7405,-4.7093,-4.6918,-4.6426,-4.6301,-4.6301,-4.6301,-4.6301,-4.6301,-4.6301,-4.6301,-4.6301,-4.6301,-4.6301,-4.6301,-4.6301,-4.6301,-4.6301,-4.6301,-4.6301,-4.6301,-4.6301,-4.6301,-4.6075,-4.5522,-4.5497,-4.497,-4.384,-4.3288,-4.2986,-4.2986,-4.2986,-4.2986,-4.2986,-4.2986,-4.2986,-4.2986,-4.2986,-4.2986,-4.5262,-4.5289,-4.5102,-4.5502,-4.637,-4.694,-4.637,-4.8088,-4.9679,-4.9259,-5.0287,-5.1349,-5.1828,-5.2456,-5.3114,-5.3803,-5.4461,-5.497,-5.5149,-5.5748,-5.6406,-5.7034,-5.7693,-5.8381,-5.9039,-5.9099,-5.9099,-5.9099,0.0,0.0,0.0,-5.9099,-5.9099,-5.9099,-5.9099,-5.9099,-5.9099,-5.9099,-5.9099,-5.9099,-5.9099,-5.9099,-5.9099,-5.9099,-5.8495,-5.744,-5.744,-5.6792,-5.5762,-5.5269,-5.48,-5.4386,-5.4386,-5.4682,-5.5035,-5.4564,-5.367,-5.2639,-5.2148,-5.0979,-4.959,-4.959,-4.959,-4.959,-4.959,-4.959,-4.959,-4.959,-4.959,-4.959,-4.959,-4.9464,-4.9163,-4.846,-4.7682,-4.7043,-4.6928,-4.6577,-4.6301,-4.6301,-4.6301,-4.6301,-4.6301,-4.6301,-4.6301,-4.6301,-4.6301,-4.6301,-4.6301,-4.6301,-4.6301,-4.6301,-4.6301,-4.6301,-4.6301,-4.6301,-4.625,-4.6075,-4.5698,-4.5146,-4.4418,-4.384,-4.3564,-4.3564,-4.3162,-4.2986,-4.2986,-4.2986,-4.2986,-4.2986,-4.2986,-4.2986,-4.4016,-4.4209,-4.4209,-4.4209,-4.5262,-4.603,-4.5209,-4.7197,-4.921,-4.921,-5.0287,-5.1409,-5.2067,-5.2725,-5.3414,-5.4102,-5.476,-5.5179,-5.5179,-5.5538,-5.6017,-5.6645,-5.7304,-5.7992,-5.865,-5.8949,-5.9099,0.0,0.0,0.0,0.0,-5.9099,-5.9099,-5.9099,-5.9099,-5.9099,-5.9099,-5.844,-5.8136,-5.8136,-5.7526,-5.7216,-5.7272,-5.786,-5.7608,-5.6679,-5.6022,-5.4918,-5.3429,-5.3429,-5.3066,-5.2482,-5.2482,-5.291,-5.3368,-5.2727,-5.2297,-5.1927,-5.1268,-5.0436,-4.959,-4.959,-4.959,-4.959,-4.959,-4.959,-4.959,-4.959,-4.959,-4.959,-4.959,-4.959,-4.9464,-4.8912,-4.8259,-4.7657,-4.723,-4.6878,-4.6577,-4.6351,-4.6301,-4.6301,-4.6301,-4.6301,-4.6301,-4.6301,-4.6301,-4.6301,-4.6301,-4.6301,-4.6301,-4.6301,-4.6301,-4.6301,-4.6301,-4.6301,-4.6301,-4.6301,-4.5999,-4.5648,-4.5296,-4.4543,-4.4016,-4.3815,-4.3463,-4.3187,-4.2986,-4.2986,-4.2986,-4.2986,-4.2986,-4.2986,-4.2986,-4.2986,-4.2986,-4.2986,-4.4016,-4.4994,-4.4833,-4.6991,-4.9014,-4.9014,-5.0095,-5.125,-5.1965,-5.2688,-5.3365,-5.4013,-5.469,-5.5179,-5.5179,-5.5179,-5.5448,-5.6107,-5.6675,-5.7251,-5.7809,-5.8543,-5.8985,0.0,0.0,0.0,0.0,-5.8743,-5.8743,-5.8882,-5.8882,-5.8882,-5.8882,-5.744,-5.6593,-5.648,-5.5094,-5.4386,-5.4446,-5.5849,-5.6423,-5.6194,-5.4623,-5.3126,-5.1803,-5.1803,-5.0916,-4.959,-4.959,-5.0499,-5.1616,-5.0142,-5.0563,-5.1554,-5.0142,-4.959,-4.959,-4.959,-4.959,-4.959,-4.959,-4.959,-4.959,-4.959,-4.959,-4.959,-4.959,-4.959,-4.9464,-4.8962,-4.8875,-4.8485,-4.7431,-4.7093,-4.6979,-4.6426,-4.6301,-4.6301,-4.6301,-4.6301,-4.6301,-4.6301,-4.6301,-4.6301,-4.6301,-4.6301,-4.6301,-4.6301,-4.6301,-4.6301,-4.6301,-4.6301,-4.6301,-4.6301,-4.6301,-4.6301,-4.6301,-4.5271,-4.4468,-4.3966,-4.389,-4.3614,-4.3062,-4.3062,-4.3037,-4.2986,-4.2986,-4.2986,-4.2986,-4.2986,-4.2986,-4.2986,-4.4016,-4.4725,-4.3657,-4.5555,-4.7554,-4.7554,-4.8638,-4.9979,-5.1041,-5.2289,-5.3189,-5.3244,-5.4369,-5.5179,-5.5179,-5.5179,-5.5448,-5.6107,-5.6286,-5.6377,-5.6281,-5.7503,0.0,0.0,0.0,0.0,-5.7187,-5.6108,-5.5993,-5.7187,-5.7187,-5.7187,-5.7187,-5.6849,-5.6079,0.0,-5.4564,-5.4386,-5.4386,-5.4741,-5.4208,-5.2917,-5.133,-5.0436,-5.0142,-5.0142,-4.9886,-4.959,-4.959,-4.9847,-5.0078,-4.9719,-4.9847,-5.0078,-4.9719,-4.959,-4.959,-4.959,-4.959,-4.959,-4.959,-4.959,-4.959,-4.959,-4.959,-4.959,-4.959,-4.959,-4.9565,-4.9439,-4.9088,-4.8586,-4.7883,-4.7431,-4.6979,-4.6426,-4.6301,-4.6301,-4.6301,-4.6301,-4.6301,-4.6301,-4.6301,-4.6301,-4.6301,-4.6301,-4.6301,-4.6301,-4.6301,-4.6301,-4.6301,-4.6301,-4.6301,-4.6301,-4.6301,-4.6301,-4.6301,-4.5673,-4.5246,-4.5121,-4.4669,-4.4166,-4.3614,-4.3614,-4.3388,-4.2986,-4.2986,-4.2986,-4.2986,-4.2986,-4.2986,-4.2986,-4.3547,-4.3852,-4.3129,-4.4126,-4.5289,-4.5978,-4.7197,-4.8556,-4.9775,-5.1215,-5.2158,-5.1906,-5.3727,-5.4692,-5.3279,-5.3675,-5.4266,-5.4642,-5.4274,-5.4281,-5.4835,-5.5495,0.0,0.0,0.0,-5.5618,-5.5618,-5.556,-5.5502,-5.5618,-5.6308,-5.6366,-5.5618,-5.4831,-5.4061,-5.3248,-5.2482,-5.2112,-5.2112,-5.2883,-5.2359,-5.079,-4.995,-4.959,-4.959,-4.959,-4.959,-4.959,-4.959,-4.959,-4.959,-4.959,-4.959,-4.959,-4.959,-4.959,-4.959,-4.959,-4.959,-4.959,-4.959,-4.959,-4.959,-4.959,-4.959,-4.959,-4.959,-4.959,-4.959,-4.959,-4.9364,-4.8937,-4.8083,-4.7682,-4.728,-4.6476,-4.6301,-4.6301,-4.6301,-4.6301,-4.6301,-4.6301,-4.6301,-4.6301,-4.6301,-4.6301,-4.6301,-4.6301,-4.6301,-4.6301,-4.6301,-4.6301,-4.6301,-4.6301,-4.6301,-4.6301,-4.6301,-4.6024,-4.5748,-4.5497,-4.5196,-4.4769,-4.4192,-4.4192,-4.4041,-4.3765,-4.3489,-4.3363,-4.2986,-4.2986,-4.2986,-4.2986,-4.2986,-4.2986,-4.2986,-4.2986,-4.3295,-4.4427,-4.5767,-4.7062,-4.8186,-4.9679,-5.0602,-5.0271,-5.2583,-5.3541,-5.1044,-5.1781,-5.2615,-5.2615,-5.1958,-5.1961,-5.2984,0.0,0.0,0.0,0.0,-5.3969,-5.3969,-5.4948,-5.5007,-5.4029,-5.5182,-5.5269,-5.3969,-5.2639,-5.1865,-5.1554,-5.0245,-4.959,-4.9654,-5.0954,-5.0853,-4.959,-4.959,-4.959,-4.959,-4.959,-4.959,-4.959,-4.959,-4.959,-4.959,-4.959,-4.959,-4.959,-4.959,-4.959,-4.959,-4.959,-4.959,-4.959,-4.959,-4.959,-4.959,-4.959,-4.959,-4.959,-4.959,-4.959,-4.959,-4.959,-4.959,-4.9314,-4.8284,-4.7983,-4.7631,-4.6652,-4.6376,-4.6301,-4.6301,-4.6301,-4.6301,-4.6301,-4.6301,-4.6301,-4.6301,-4.6301,-4.6301,-4.6301,-4.6301,-4.6301,-4.6301,-4.6301,-4.6301,-4.6301,-4.6301,-4.6301,-4.6301,-4.6301,-4.61,-4.5648,-4.5623,-4.5347,-4.4769,-4.4769,-4.4719,-4.4618,-4.4141,-4.394,-4.2986,-4.2986,-4.2986,-4.2986,-4.2986,-4.2986,-4.2986,-4.2986,-4.3017,-4.324,-4.4318,-4.5501,-4.6192,-4.7892,-4.8977,-4.8225,-4.9884,-5.1153,-5.0768,-5.0878,-5.0989,-5.0989,-5.0879,-5.0597,-4.997,0.0,0.0,0.0,-5.2013,-5.2332,-5.2332,-5.1205,-5.1079,-5.2271,-5.2516,-5.2516,-5.2332,-5.2112,-5.133,-4.9886,-4.9719,-4.959,-4.959,-4.9847,-4.9783,-4.959,-4.959,-4.959,-4.959,-4.959,-4.959,-4.959,-4.959,-4.959,-4.959,-4.959,-4.959,-4.959,-4.959,-4.959,-4.959,-4.959,-4.959,-4.959,-4.959,-4.959,-4.959,-4.959,-4.959,-4.959,-4.959,-4.959,-4.959,-4.959,-4.959,-4.9414,-4.8786,-4.8259,-4.7732,-4.7129,-4.6652,-4.6301,-4.6301,-4.6301,-4.6301,-4.6301,-4.6301,-4.6301,-4.6301,-4.6301,-4.6301,-4.6301,-4.6301,-4.6301,-4.6301,-4.6301,-4.6301,-4.6301,-4.6301,-4.6301,-4.6301,-4.6301,-4.6276,-4.62,-4.62,-4.5924,-4.5372,-4.5372,-4.5121,-4.4618,-4.4543,-4.4518,-4.2986,-4.2986,-4.2986,-4.2986,-4.2986,-4.2986,-4.2986,-4.2986,-4.2986,-4.2986,-4.3436,-4.4032,-4.4622,-4.6394,-4.7476,-4.6604,-4.8849,-5.0101,-4.8447,-4.8965,-4.9451,-4.9451,-4.8736,-4.8405,-4.8816,0.0,0.0,0.0,-4.9867,-5.033,-5.0638,-5.0853,-5.0853,-5.0664,-5.1492,-5.1554,-5.0664,-5.0664,-5.0308,-4.959,-4.959,-4.959,-4.959,-4.959,-4.959,-4.959,-4.959,-4.959,-4.959,-4.959,-4.959,-4.959,-4.959,-4.959,-4.959,-4.959,-4.959,-4.959,-4.959,-4.959,-4.959,-4.959,-4.959,-4.959,-4.959,-4.959,-4.959,-4.959,-4.959,-4.959,-4.959,-4.959,-4.959,-4.959,-4.959,-4.954,-4.9289,-4.8535,-4.7657,-4.6828,-4.6476,-4.6301,-4.6301,-4.6301,-4.6301,-4.6301,-4.6301,-4.6301,-4.6301,-4.6301,-4.6301,-4.6301,-4.6301,-4.6301,-4.6301,-4.6301,-4.6301,-4.6301,-4.6301,-4.6301,-4.6301,-4.6301,-4.6301,-4.6301,-4.6301,-4.6175,-4.5949,-4.5949,-4.5824,-4.5573,-4.5246,-4.5095,-4.2986,-4.2986,-4.2986,-4.2986,-4.2986,-4.2986,-4.2986,-4.2986,-4.2986,-4.2986,-4.2986,-4.3112,-4.3514,-4.4955,-4.5917,-4.5347,-4.7581,-4.8665,-4.6576,-4.7265,-4.7919,-4.7919,-4.6968,-4.6755,-4.7802,0.0,0.0,0.0,-4.8435,-4.9012,-4.9565,-5.0727,-5.0853,-4.9654,-5.079,-5.079,-4.959,-4.959,-4.959,-4.959,-4.959,-4.959,-4.959,-4.959,-4.959,-4.959,-4.959,-4.959,-4.959,-4.959,-4.959,-4.959,-4.959,-4.959,-4.959,-4.959,-4.959,-4.959,-4.959,-4.959,-4.959,-4.959,-4.959,-4.959,-4.959,-4.959,-4.959,-4.959,-4.959,-4.959,-4.959,-4.959,-4.959,-4.959,-4.959,-4.9515,-4.9238,-4.851,-4.7581,-4.6527,-4.6301,-4.6301,-4.6301,-4.6301,-4.6301,-4.6301,-4.6301,-4.6301,-4.6301,-4.6301,-4.6301,-4.6301,-4.6301,-4.6301,-4.6301,-4.6301,-4.6301,-4.6301,-4.6301,-4.6301,-4.6301,-4.6301,-4.6301,-4.6301,-4.6301,-4.6301,-4.6301,-4.6301,-4.6301,-4.6301,-4.5899,-4.5698,-4.2986,-4.2986,-4.2986,-4.2986,-4.2986,-4.2986,-4.2986,-4.2986,-4.2986,-4.2986,-4.2986,-4.2986,-4.3011,-4.352,-4.413,-4.4568,-4.5263,-4.5876,-4.6225,-4.6361,-4.6421,-4.6421,-4.6361,-4.6301,0.0,0.0,0.0,0.0,-4.8435,-4.9012,-4.9565,-4.9654,-4.9719,-4.959,-4.9654,-4.9654,-4.959,-4.959,-4.959,-4.959,-4.959,-4.959,-4.959,-4.959,-4.959,-4.959,-4.959,-4.959,-4.959,-4.959,-4.959,-4.959,-4.959,-4.959,-4.959,-4.959,-4.959,-4.959,-4.959,-4.959,-4.959,-4.959,-4.959,-4.959,-4.959,-4.959,-4.959,-4.959,-4.959,-4.959,-4.959,-4.959,-4.959,-4.959,-4.959,-4.9289,-4.8234,-4.7958,-4.7581,-4.6527,-4.6301,-4.6301,-4.6301,-4.6301,-4.6301,-4.6301,-4.6301,-4.6301,-4.6301,-4.6301,-4.6301,-4.6301,-4.6301,-4.6301,-4.6301,-4.6301,-4.6301,-4.6301,-4.6301,-4.6301,-4.6301,-4.6301,-4.6301,-4.6301,-4.6301,-4.6301,-4.6301,-4.6301,-4.6301,-4.6301,-4.6276,-4.6276,-4.2986,-4.2986,-4.2986,-4.2986,-4.2986,-4.2986,-4.2986,-4.2986,-4.2986,-4.2986,-4.2986,-4.2986,-4.2986,-4.3438,-4.3991,-4.4543,-4.5121,-4.5673,-4.6225,-4.6301,-4.6301,-4.6301,-4.6301,-4.6301,0.0,0.0,0.0,0.0,0.0,-4.846,-4.9038,-4.9414,-4.959,-4.959,-4.959,-4.959,-4.959,-4.959,-4.959,-4.959,-4.959,-4.959,-4.959,-4.959,-4.959,-4.959,-4.959,-4.959,-4.959,-4.959,-4.959,-4.959,-4.959,-4.959,-4.959,-4.959,-4.959,-4.959,-4.959,-4.959,-4.959,-4.959,-4.959,-4.959,-4.959,-4.959,-4.959,-4.959,-4.959,-4.959,-4.959,-4.959,-4.959,-4.959,-4.959,-4.9389,-4.8636,-4.8159,-4.7682,-4.6979,-4.6552,-4.6301,-4.6301,-4.6301,-4.6301,-4.6301,-4.6301,-4.6301,-4.6301,-4.6301,-4.6301,-4.6301,-4.6301,-4.6301,-4.6301,-4.6301,-4.6301,-4.6301,-4.6301,-4.6301,-4.6301,-4.6301,-4.6301,-4.6301,-4.6301,-4.6301,-4.6301,-4.6301,-4.6301,-4.6301,-4.6301,-4.6301,-4.2986,-4.2986,-4.2986,-4.2986,-4.2986,-4.2986,-4.2986,-4.2986,-4.2986,-4.2986,-4.2986,-4.2986,-4.2986,-4.3263,-4.3714,-4.4267,-4.4819,-4.5397,-4.5949,-4.62,-4.6301,-4.6301,-4.6301,-4.6301,0.0,0.0,0.0,0.0,0.0,0.0,-4.8736,-4.9289,-4.959,-4.959,-4.959,-4.959,-4.959,-4.959,-4.959,-4.959,-4.959,-4.959,-4.959,-4.959,-4.959,-4.959,-4.959,-4.959,-4.959,-4.959,-4.959,-4.959,-4.959,-4.959,-4.959,-4.959,-4.959,-4.959,-4.959,-4.959,-4.959,-4.959,-4.959,-4.959,-4.959,-4.959,-4.959,-4.959,-4.959,-4.959,-4.959,-4.959,-4.959,-4.959,-4.959,-4.949,-4.9138,-4.8611,-4.8033,-4.7506,-4.7104,-4.6853,-4.6853,-4.6853,-4.6853,-4.6853,-4.6853,-4.6853,-4.6853,-4.6853,-4.6778,-4.6602,-4.6602,-4.6502,-4.6326,-4.6301,-4.6301,-4.6301,-4.6301,-4.6301,-4.6301,-4.6301,-4.6301,-4.6301,-4.6301,-4.6301,-4.6301,-4.6301,-4.6301,-4.6301,-4.6301,-4.6301,0.0,0.0,0.0,-4.2986,-4.2986,-4.2986,-4.2986,-4.2986,-4.2986,-4.2986,-4.2986,-4.2986,-4.2986,-4.2986,-4.3162,-4.3689,-4.4242,-4.4794,-4.5397,-4.5949,-4.6301,-4.6301,-4.6301,0.0,0.0,0.0,0.0,0.0,-4.7581,-4.8134,-4.8711,-4.9289,-4.959,-4.959,-4.959,-4.959,-4.959,-4.959,-4.959,-4.959,-4.959,-4.959,-4.959,-4.959,-4.959,-4.959,-4.959,-4.959,-4.959,-4.959,-4.959,-4.959,-4.959,-4.959,-4.959,-4.959,-4.959,-4.959,-4.959,-4.959,-4.959,-4.959,-4.959,-4.959,-4.959,-4.959,-4.959,-4.959,-4.959,-4.959,-4.959,-4.959,-4.959,-4.959,-4.959,-4.959,-4.959,-4.9163,-4.8636,-4.8033,-4.7908,-4.7908,-4.7908,-4.7908,-4.7908,-4.7908,-4.7908,-4.7908,-4.7908,-4.7908,-4.7707,-4.7143,-4.7093,-4.6928,-4.6376,-4.6326,-4.6326,-4.6301,-4.6301,-4.6301,-4.6301,-4.6301,-4.6301,-4.6301,-4.6301,-4.6301,-4.6301,-4.6301,-4.6301,-4.6301,-4.6301,-4.6301,-4.2986,0.0,0.0,0.0,0.0,0.0,-4.2986,-4.2986,-4.2986,-4.2986,-4.2986,-4.2986,-4.2986,-4.2986,-4.3037,-4.3187,-4.3664,-4.4367,-4.5347,-4.5623,-4.5874,-4.625,-4.6301,0.0,0.0,0.0,0.0,0.0,-4.7054,-4.7581,-4.8109,-4.9063,-4.959,-4.959,-4.959,-4.959,-4.959,-4.959,-4.959,-4.959,-4.959,-4.959,-4.959,-4.959,-4.959,-4.959,-4.959,-4.959,-4.959,-4.959,-4.959,-4.959,-4.959,-4.959,-4.959,-4.959,-4.959,-4.959,-4.959,-4.959,-4.959,-4.959,-4.959,-4.959,-4.959,-4.959,-4.959,-4.959,-4.959,-4.959,-4.959,-4.959,-4.959,-4.959,-4.959,-4.959,-4.959,-4.9464,-4.9213,-4.8636,-4.8184,-4.7908,-4.7908,-4.7908,-4.7908,-4.7908,-4.7908,-4.7908,-4.7908,-4.7908,-4.7857,-4.7707,-4.7682,-4.7481,-4.6892,-4.6903,-4.6728,-4.6326,-4.6301,-4.6301,-4.6301,-4.6301,-4.6301,-4.6301,-4.6301,-4.6301,-4.6301,-4.6301,-4.6301,-4.6301,-4.6301,-4.6301,-4.2986,-4.2986,-4.2986,-4.2986,0.0,0.0,-4.2986,-4.2986,-4.2986,-4.2986,-4.2986,-4.2986,-4.2986,-4.2986,-4.2986,-4.2986,-4.3237,-4.3765,-4.4669,-4.5196,-4.5598,-4.5924,-4.6175,0.0,0.0,-4.6301,-4.6301,-4.6301,-4.6828,-4.7456,-4.8234,-4.9113,-4.959,-4.959,-4.959,-4.959,-4.959,-4.959,-4.959,-4.959,-4.959,-4.959,-4.959,-4.959,-4.959,-4.959,-4.959,-4.959,-4.959,-4.959,-4.959,-4.959,-4.959,-4.959,-4.959,-4.959,-4.959,-4.959,-4.959,-4.959,-4.959,-4.959,-4.959,-4.959,-4.959,-4.959,-4.959,-4.959,-4.959,-4.959,-4.959,-4.959,-4.959,-4.959,-4.959,-4.959,-4.959,-4.959,-4.949,-4.9163,-4.8837,-4.8611,-4.8611,-4.8611,-4.8611,-4.8611,-4.8611,-4.8611,-4.8611,-4.8611,-4.8535,-4.8284,-4.8259,-4.8058,-4.7506,-4.7456,-4.733,-4.7004,-4.6778,-4.6652,-4.6652,-4.6426,-4.6301,-4.6301,-4.6301,-4.6301,-4.6301,-4.6301,-4.6301,-4.6301,-4.6301,-4.6301,-4.2986,-4.2986,-4.2986,-4.2986,-4.2986,0.0,-4.2986,-4.2986,-4.2986,-4.2986,-4.2986,-4.2986,-4.2986,-4.2986,-4.2986,-4.2986,-4.2986,-4.3162,-4.3714,-4.4669,-4.5347,-4.5472,-4.5924,0.0,-4.6301,-4.6301,-4.6301,-4.6301,-4.6878,-4.7631,-4.8636,-4.9264,-4.959,-4.959,-4.959,-4.959,-4.959,-4.959,-4.959,-4.959,-4.959,-4.959,-4.959,-4.959,-4.959,-4.959,-4.959,-4.959,-4.959,-4.959,-4.959,-4.959,-4.959,-4.959,-4.959,-4.959,-4.959,-4.959,-4.959,-4.959,-4.959,-4.959,-4.959,-4.959,-4.959,-4.959,-4.959,-4.959,-4.959,-4.959,-4.959,-4.959,-4.959,-4.959,-4.959,-4.959,-4.959,-4.959,-4.959,-4.959,-4.959,-4.959,-4.959,-4.959,-4.959,-4.959,-4.959,-4.959,-4.959,-4.959,-4.9414,-4.8912,-4.8862,-4.8636,-4.8058,-4.8008,-4.7983,-4.7908,-4.7481,-4.723,-4.723,-4.6753,-4.6476,-4.6476,-4.6476,-4.6476,-4.6476,-4.6376,-4.6301,-4.6301,-4.6301,-4.6301,-4.2986,-4.2986,-4.2986,-4.2986,-4.2986,0.0,-4.2986,-4.2986,-4.2986,-4.2986,-4.2986,-4.2986,-4.2986,-4.2986,-4.2986,-4.2986,-4.2986,-4.3162,-4.3714,-4.3991,-4.4468,-4.5372,-4.5573,0.0,-4.6276,-4.6301,-4.6301,-4.6301,-4.7205,-4.7857,-4.8058,-4.9038,-4.959,-4.959,-4.959,-4.959,-4.959,-4.959,-4.959,-4.959,-4.959,-4.959,-4.959,-4.959,-4.959,-4.959,-4.959,-4.959,-4.959,-4.959,-4.959,-4.959,-4.959,-4.959,-4.959,-4.959,-4.959,-4.959,-4.959,-4.959,-4.959,-4.959,-4.959,-4.959,-4.959,-4.959,-4.959,-4.959,-4.959,-4.959,-4.959,-4.959,-4.959,-4.959,-4.959,-4.959,-4.959,-4.959,-4.959,-4.959,-4.959,-4.959,-4.959,-4.959,-4.959,-4.959,-4.959,-4.959,-4.959,-4.959,-4.9565,-4.9439,-4.9439,-4.9213,-4.8661,-4.8611,-4.841,-4.7933,-4.7807,-4.7757,-4.7757,-4.7657,-4.7606,-4.7606,-4.7606,-4.7606,-4.7606,-4.6728,-4.6301,-4.6301,-4.6301,-4.6301,-4.2986,-4.2986,-4.2986,-4.2986,-4.2986,0.0,0.0,-4.2986,-4.2986,-4.2986,-4.2986,-4.2986,-4.2986,-4.2986,-4.2986,-4.2986,-4.2986,-4.3062,-4.3338,-4.3639,-4.4116,-4.4945,0.0,0.0,-4.625,-4.6301,-4.6301,-4.6301,-4.7054,-4.7631,-4.7883,-4.8711,-4.9314,-4.959,-4.959,-4.959,-4.959,-4.959,-4.959,-4.959,-4.959,-4.959,-4.959,-4.959,-4.959,-4.959,-4.959,-4.959,-4.959,-4.959,-4.959,-4.959,-4.959,-4.959,-4.959,-4.959,-4.959,-4.959,-4.959,-4.959,-4.959,-4.959,-4.959,-4.959,-4.959,-4.959,-4.959,-4.959,-4.959,-4.959,-4.959,-4.959,-4.959,-4.959,-4.959,-4.959,-4.959,-4.959,-4.959,-4.959,-4.959,-4.959,-4.959,-4.959,-4.959,-4.959,-4.959,-4.959,-4.959,-4.959,-4.959,-4.959,-4.959,-4.949,-4.9213,-4.9188,-4.9063,-4.8761,-4.8485,-4.8335,-4.8335,-4.8058,-4.7908,-4.7908,-4.7908,-4.7908,-4.7908,-4.738,-4.6979,-4.6702,-4.6451,-4.6301,-4.2986,-4.2986,-4.2986,-4.2986,-4.2986,-4.2986,0.0,0.0,0.0,-4.2986,-4.2986,-4.2986,-4.2986,0.0,0.0,-4.2986,0.0,0.0,0.0,-4.3363,0.0,-4.4392,0.0,0.0,-4.61,-4.625,-4.6301,-4.6301,-4.6828,-4.7355,-4.7883,-4.846,-4.9038,-4.9565,-4.959,-4.959,-4.959,-4.959,-4.959,-4.959,-4.959,-4.959,-4.959,-4.959,-4.959,-4.959,-4.959,-4.959,-4.959,-4.959,-4.959,-4.959,-4.959,-4.959,-4.959,-4.959,-4.959,-4.959,-4.959,-4.959,-4.959,-4.959,-4.959,-4.959,-4.959,-4.959,-4.959,-4.959,-4.959,-4.959,-4.959,-4.959,-4.959,-4.959,-4.959,-4.959,-4.959,-4.959,-4.959,-4.959,-4.959,-4.959,-4.959,-4.959,-4.959,-4.959,-4.959,-4.959,-4.959,-4.959,-4.959,-4.959,-4.959,-4.959,-4.959,-4.959,-4.959,-4.959,-4.9163,-4.8937,-4.8937,-4.8485,-4.8234,-4.8234,-4.8234,-4.8234,-4.8234,-4.8134,-4.7807,-4.728,-4.6828,-4.6627,-4.2986,-4.2986,-4.2986,-4.2986,-4.2986,-4.2986,0.0,0.0,-4.2986,-4.2986,0.0,0.0,-4.2986,0.0,0.0,0.0,0.0,0.0,-4.2986,-4.3037,-4.3263,-4.384,-4.4392,0.0,0.0,-4.6024,-4.6301,-4.6301,-4.6828,-4.7355,-4.7883,-4.846,-4.9038,-4.9565,-4.959,-4.959,-4.959,-4.959,-4.959,-4.959,-4.959,-4.959,-4.959,-4.959,-4.959,-4.959,-4.959,-4.959,-4.959,-4.959,-4.959,-4.959,-4.959,-4.959,-4.959,-4.959,-4.959,-4.959,-4.959,-4.959,-4.959,-4.959,-4.959,-4.959,-4.959,-4.959,-4.959,-4.959,-4.959,-4.959,-4.959,-4.959,-4.959,-4.959,-4.959,-4.959,-4.959,-4.959,-4.959,-4.959,-4.959,-4.959,-4.959,-4.959,-4.959,-4.959,-4.959,-4.959,-4.959,-4.959,-4.959,-4.959,-4.959,-4.959,-4.959,-4.959,-4.959,-4.959,-4.954,-4.9515,-4.9515,-4.9439,-4.9414,-4.9414,-4.9414,-4.9414,-4.9414,-4.8912,-4.8385,-4.7832,-4.7757,-4.7732,-4.3463,-4.3212,-4.2986,0.0,0.0,0.0,-4.2986,0.0,-4.2986,0.0,0.0,0.0,0.0,0.0,0.0,0.0,-4.2986,0.0,0.0,0.0,-4.3187,0.0,0.0,0.0,0.0,0.0,0.0,0.0,-4.6527,-4.7029,-4.7857,-4.8134,-4.8686,-4.9565,-4.959,-4.959,-4.959,-4.959,-4.959,-4.959,-4.959,-4.959,-4.959,-4.959,-4.959,-4.959,-4.959,-4.959,-4.959,-4.959,-4.959,-4.959,-4.959,-4.959,-4.959,-4.959,-4.959,-4.959,-4.959,-4.959,-4.959,-4.959,-4.959,-4.959,-4.959,-4.959,-4.959,-4.959,-4.959,-4.959,-4.959,-4.959,-4.959,-4.959,-4.959,-4.959,-4.959,-4.959,-4.959,-4.959,-4.959,-4.959,-4.959,-4.959,-4.959,-4.959,-4.959,-4.959,-4.959,-4.959,-4.959,-4.959,-4.959,-4.959,-4.959,-4.959,-4.959,-4.959,-4.959,-4.959,-4.959,-4.959,-4.959,-4.959,-4.959,-4.959,-4.959,-4.9364,-4.9113,-4.8862,-4.8209,-4.7908,-4.4016,0.0,0.0,0.0,0.0,0.0,0.0,0.0,0.0,0.0,0.0,0.0,0.0,0.0,-4.2986,-4.2986,0.0,-4.2986,0.0,-4.2986,0.0,0.0,0.0,0.0,0.0,0.0,0.0,0.0,0.0,-4.6702,-4.7631,-4.7832,-4.836,-4.9339,-4.9515,-4.959,-4.959,-4.959,-4.959,-4.959,-4.959,-4.959,-4.959,-4.959,-4.959,-4.959,-4.959,-4.959,-4.959,-4.959,-4.959,-4.959,-4.959,-4.959,-4.959,-4.959,-4.959,-4.959,-4.959,-4.959,-4.959,-4.959,-4.959,-4.959,-4.959,-4.959,-4.959,-4.959,-4.959,-4.959,-4.959,-4.959,-4.959,-4.959,-4.959,-4.959,-4.959,-4.959,-4.959,-4.959,-4.959,-4.959,-4.959,-4.959,-4.959,-4.959,-4.959,-4.959,-4.959,-4.959,-4.959,-4.959,-4.959,-4.959,-4.959,-4.959,-4.959,-4.959,-4.959,-4.959,-4.959,-4.959,-4.959,-4.959,-4.959,-4.959,-4.959,-4.959,-4.959,-4.9565,-4.8761,-4.8385,0.0,0.0,0.0,-4.3915,0.0,0.0,0.0,0.0,-4.2986,0.0,0.0,0.0,0.0,-4.2986,-4.2986,-4.2986,-4.2986,0.0,0.0,0.0,0.0,0.0,0.0,0.0,0.0,0.0,0.0,0.0,0.0,0.0,-4.7129,-4.7631,-4.8184,-4.8786,-4.9314,-4.959,-4.959,-4.959,-4.959,-4.959,-4.959,-4.959,-4.959,-4.959,-4.959,-4.959,-4.959,-4.959,-4.959,-4.959,-4.959,-4.959,-4.959,-4.959,-4.959,-4.959,-4.959,-4.959,-4.959,-4.959,-4.959,-4.959,-4.959,-4.959,-4.959,-4.959,-4.959,-4.959,-4.959,-4.959,-4.959,-4.959,-4.959,-4.959,-4.959,-4.959,-4.959,-4.959,-4.959,-4.959,-4.959,-4.959,-4.959,-4.959,-4.959,-4.959,-4.959,-4.959,-4.959,-4.959,-4.959,-4.959,-4.959,-4.959,-4.959,-4.959,-4.959,-4.959,-4.959,-4.959,-4.959,-4.959,-4.959,-4.959,-4.959,-4.959,-4.959,-4.959,-4.959,-4.959,-4.9565,-4.954,0.0,0.0,-4.4593,-4.4392,0.0,0.0,0.0,0.0,0.0,0.0,0.0,0.0,0.0,-4.3212,-4.2986,-4.2986,-4.2986,-4.2986,0.0,0.0,0.0,0.0,0.0,0.0,0.0,0.0,0.0,0.0,-4.6301,0.0,0.0,-4.7631,-4.8184,-4.8761,-4.9314,-4.959,-4.959,-4.959,-4.959,-4.959,-4.959,-4.959,-4.959,-4.959,-4.959,-4.959,-4.959,-4.959,-4.959,-4.959,-4.959,-4.959,-4.959,-4.959,-4.959,-4.959,-4.959,-4.959,-4.959,-4.959,-4.959,-4.959,-4.959,-4.959,-4.959,-4.959,-4.959,-4.959,-4.959,-4.959,-4.959,-4.959,-4.959,-4.959,-4.959,-4.959,-4.959,-4.959,-4.959,-4.959,-4.959,-4.959,-4.959,-4.959,-4.959,-4.959,-4.959,-4.959,-4.959,-4.959,-4.959,-4.959,-4.959,-4.959,-4.959,-4.959,-4.959,-4.959,-4.959,-4.959,-4.959,-4.959,-4.959,-4.959,-4.959,-4.959,-4.959,-4.959,-4.959,-4.959,-4.959,-4.959,-4.5773,-4.5497,0.0,-4.4995,-4.4945,0.0,-4.4669,0.0,0.0,0.0,0.0,0.0,0.0,-4.379,-4.3489,-4.3313,-4.3263,-4.3212,0.0,-4.2986,0.0,0.0,0.0,-4.379,0.0,0.0,0.0,-4.625,-4.6301,-4.6476,0.0,0.0,-4.8083,-4.846,-4.9213,-4.959,-4.959,-4.959,-4.959,-4.959,-4.959,-4.959,-4.959,-4.959,-4.959,-4.959,-4.959,-4.959,-4.959,-4.959,-4.959,-4.959,-4.959,-4.959,-4.959,-4.959,-4.959,-4.959,-4.959,-4.959,-4.959,-4.959,-4.959,-4.959,-4.959,-4.959,-4.959,-4.959,-4.959,-4.959,-4.959,-4.959,-4.959,-4.959,-4.959,-4.959,-4.959,-4.959,-4.959,-4.959,-4.959,-4.959,-4.959,-4.959,-4.959,-4.959,-4.959,-4.959,-4.959,-4.959,-4.959,-4.959,-4.959,-4.959,-4.959,-4.959,-4.959,-4.959,-4.959,-4.959,-4.959,-4.959,-4.969,-4.9891,-4.969,-4.969,-4.9891,-4.969,-4.959,-4.959,-4.959,-4.959]},{"header":{"parameterUnit":"m.s-1","parameterCategory":1,"la1":30.6,"la2":29.2853,"lo1":-89.7004,"lo2":-87.6739,"dy":0.0162,"dx":0.0183,"nx":112,"ny":82,"refTime":"2024-04-25T12:00:00:Z","depth":0,"parameterNumber":3,"parameterNumberName":"V-component_of_WINDS"},"data":[0.0,0.0,0.0,0.0,0.0,0.0,0.0,0.0,0.0,0.0,0.0,0.0,0.0,0.0,0.0,0.0,0.0,0.0,0.0,0.0,0.0,0.0,0.0,0.0,0.0,0.0,0.0,0.0,0.0,0.0,0.0,0.0,0.0,0.0,0.0,0.0,0.0,0.0,0.0,0.0,0.0,0.0,0.0,0.0,0.0,0.0,0.0,0.0,0.0,0.0,0.0,0.0,0.0,0.0,0.0,0.0,0.0,0.0,0.0,0.0,0.0,0.0,0.0,0.0,0.0,0.0,0.0,0.0,0.0,0.0,0.0,0.0,0.0,0.0,0.0,0.0,0.0,0.0,0.0,0.0,0.0,0.0,0.0,0.0,0.0,0.0,0.0,0.0,0.0,0.0,3.4387,3.5515,3.5132,3.465,3.4198,3.4073,3.3796,3.3244,0.0,0.0,0.0,0.0,0.0,0.0,0.0,0.0,0.0,0.0,0.0,0.0,0.0,0.0,0.0,0.0,0.0,0.0,0.0,0.0,0.0,0.0,0.0,0.0,0.0,0.0,0.0,0.0,0.0,0.0,0.0,0.0,0.0,0.0,0.0,0.0,0.0,0.0,0.0,0.0,0.0,0.0,0.0,0.0,0.0,0.0,0.0,0.0,0.0,0.0,0.0,0.0,0.0,0.0,0.0,0.0,0.0,0.0,0.0,0.0,0.0,0.0,0.0,0.0,0.0,0.0,0.0,0.0,0.0,0.0,0.0,0.0,0.0,0.0,0.0,0.0,0.0,0.0,0.0,0.0,0.0,0.0,0.0,0.0,0.0,0.0,0.0,0.0,0.0,0.0,0.0,0.0,0.0,0.0,0.0,0.0,0.0,0.0,0.0,0.0,0.0,0.0,0.0,0.0,3.6043,3.6232,3.5755,3.5332,3.5257,3.4831,3.4349,3.3796,0.0,0.0,0.0,0.0,0.0,0.0,0.0,0.0,0.0,0.0,0.0,0.0,0.0,0.0,0.0,0.0,0.0,0.0,0.0,0.0,0.0,0.0,0.0,0.0,0.0,0.0,0.0,0.0,0.0,0.0,0.0,0.0,0.0,0.0,0.0,0.0,0.0,0.0,0.0,0.0,0.0,0.0,0.0,0.0,0.0,0.0,0.0,0.0,0.0,0.0,0.0,0.0,0.0,0.0,0.0,0.0,0.0,0.0,0.0,0.0,0.0,0.0,0.0,0.0,0.0,0.0,0.0,0.0,0.0,0.0,0.0,0.0,0.0,0.0,0.0,0.0,0.0,0.0,0.0,0.0,0.0,0.0,0.0,0.0,0.0,0.0,0.0,0.0,0.0,0.0,0.0,0.0,0.0,0.0,0.0,0.0,0.0,0.0,0.0,0.0,0.0,0.0,0.0,3.6405,3.6405,3.6405,3.6132,3.5881,3.5533,3.5257,3.4881,3.4374,3.3822,0.0,0.0,0.0,0.0,0.0,0.0,0.0,0.0,0.0,0.0,0.0,0.0,0.0,0.0,0.0,0.0,0.0,0.0,0.0,0.0,0.0,0.0,0.0,0.0,0.0,0.0,0.0,0.0,0.0,0.0,0.0,0.0,0.0,0.0,0.0,0.0,0.0,0.0,0.0,0.0,0.0,0.0,0.0,0.0,0.0,0.0,0.0,0.0,0.0,0.0,0.0,0.0,0.0,0.0,0.0,0.0,0.0,0.0,0.0,0.0,0.0,0.0,0.0,0.0,0.0,0.0,0.0,0.0,0.0,0.0,0.0,0.0,0.0,0.0,0.0,0.0,0.0,0.0,0.0,0.0,0.0,0.0,0.0,0.0,0.0,0.0,0.0,0.0,0.0,0.0,0.0,0.0,0.0,0.0,0.0,0.0,0.0,0.0,0.0,0.0,0.0,0.0,3.6405,3.6405,3.6405,3.6405,3.6182,3.578,3.5683,3.5504,3.4906,3.4525,0.0,0.0,0.0,0.0,0.0,0.0,0.0,0.0,0.0,0.0,0.0,0.0,0.0,0.0,0.0,0.0,0.0,0.0,0.0,0.0,0.0,0.0,0.0,0.0,0.0,0.0,0.0,0.0,0.0,0.0,0.0,0.0,0.0,0.0,0.0,0.0,0.0,0.0,0.0,0.0,0.0,0.0,0.0,0.0,0.0,0.0,0.0,0.0,0.0,0.0,0.0,0.0,0.0,0.0,0.0,0.0,0.0,0.0,0.0,0.0,0.0,0.0,0.0,0.0,0.0,0.0,0.0,0.0,0.0,0.0,0.0,0.0,0.0,0.0,0.0,0.0,0.0,0.0,0.0,0.0,0.0,0.0,0.0,0.0,0.0,0.0,0.0,0.0,0.0,0.0,0.0,0.0,0.0,0.0,0.0,0.0,0.0,0.0,0.0,0.0,0.0,0.0,3.6405,3.6405,3.6405,3.6405,3.638,3.6355,3.6355,3.6081,3.5483,3.5408,0.0,0.0,0.0,0.0,0.0,0.0,0.0,0.0,0.0,0.0,0.0,0.0,0.0,0.0,0.0,0.0,0.0,0.0,0.0,0.0,0.0,0.0,0.0,0.0,0.0,0.0,0.0,0.0,0.0,0.0,0.0,0.0,0.0,0.0,0.0,0.0,0.0,0.0,0.0,0.0,0.0,0.0,0.0,0.0,0.0,0.0,0.0,0.0,0.0,0.0,0.0,0.0,0.0,0.0,0.0,0.0,0.0,0.0,0.0,0.0,0.0,0.0,0.0,0.0,0.0,0.0,0.0,0.0,0.0,0.0,0.0,0.0,0.0,0.0,0.0,0.0,0.0,0.0,0.0,0.0,0.0,0.0,0.0,0.0,0.0,0.0,0.0,0.0,0.0,0.0,0.0,0.0,0.0,0.0,0.0,0.0,0.0,0.0,0.0,0.0,0.0,0.0,3.6405,3.6405,3.6405,3.6405,3.6405,3.6405,3.6405,3.6329,3.6081,0.0,0.0,0.0,0.0,0.0,0.0,0.0,0.0,0.0,0.0,0.0,0.0,0.0,0.0,0.0,0.0,0.0,0.0,0.0,0.0,0.0,0.0,0.0,0.0,0.0,0.0,0.0,0.0,0.0,0.0,0.0,0.0,0.0,0.0,0.0,0.0,0.0,0.0,0.0,0.0,0.0,0.0,0.0,0.0,0.0,0.0,0.0,0.0,0.0,0.0,0.0,0.0,0.0,0.0,0.0,0.0,0.0,0.0,0.0,0.0,0.0,0.0,0.0,0.0,0.0,0.0,0.0,0.0,0.0,0.0,0.0,0.0,0.0,0.0,0.0,0.0,0.0,0.0,0.0,0.0,0.0,0.0,0.0,0.0,0.0,0.0,0.0,0.0,0.0,0.0,0.0,0.0,0.0,0.0,0.0,0.0,0.0,0.0,0.0,0.0,0.0,0.0,3.6681,3.6505,3.6405,3.6405,3.6405,3.6405,3.6405,3.6405,3.6405,3.6405,0.0,0.0,0.0,0.0,0.0,0.0,0.0,0.0,0.0,0.0,0.0,0.0,0.0,0.0,0.0,0.0,0.0,0.0,0.0,0.0,0.0,0.0,0.0,0.0,0.0,0.0,0.0,0.0,0.0,0.0,0.0,0.0,0.0,0.0,0.0,0.0,0.0,0.0,0.0,0.0,0.0,0.0,0.0,0.0,0.0,0.0,0.0,0.0,0.0,0.0,0.0,0.0,0.0,0.0,0.0,0.0,0.0,0.0,0.0,0.0,0.0,0.0,0.0,0.0,0.0,0.0,0.0,0.0,0.0,0.0,0.0,0.0,0.0,0.0,0.0,0.0,0.0,0.0,0.0,0.0,0.0,0.0,0.0,0.0,0.0,0.0,0.0,0.0,0.0,0.0,0.0,0.0,0.0,0.0,0.0,0.0,0.0,0.0,0.0,0.0,0.0,0.0,3.7186,3.6757,3.643,3.6405,3.6405,3.6405,3.6405,3.6405,3.6405,0.0,0.0,0.0,0.0,0.0,0.0,0.0,0.0,0.0,0.0,0.0,0.0,0.0,0.0,0.0,0.0,0.0,0.0,0.0,0.0,0.0,0.0,0.0,0.0,0.0,0.0,0.0,0.0,0.0,0.0,0.0,0.0,0.0,0.0,0.0,0.0,0.0,0.0,0.0,0.0,0.0,0.0,0.0,0.0,0.0,0.0,0.0,0.0,0.0,0.0,0.0,0.0,0.0,0.0,0.0,0.0,0.0,0.0,0.0,0.0,0.0,0.0,0.0,0.0,0.0,0.0,0.0,0.0,0.0,0.0,0.0,0.0,0.0,0.0,0.0,0.0,0.0,0.0,0.0,0.0,0.0,0.0,0.0,0.0,0.0,0.0,0.0,0.0,0.0,0.0,0.0,0.0,0.0,0.0,0.0,0.0,0.0,0.0,0.0,0.0,0.0,0.0,0.0,3.7764,3.7613,3.7362,3.6985,3.6935,3.6832,3.643,3.6405,3.6405,3.6405,0.0,0.0,0.0,0.0,0.0,0.0,0.0,0.0,0.0,0.0,0.0,0.0,0.0,0.0,0.0,0.0,0.0,0.0,0.0,0.0,0.0,0.0,0.0,0.0,0.0,0.0,0.0,0.0,0.0,0.0,0.0,0.0,0.0,0.0,0.0,0.0,0.0,0.0,0.0,0.0,0.0,0.0,0.0,0.0,0.0,0.0,0.0,0.0,0.0,0.0,0.0,0.0,0.0,0.0,0.0,0.0,0.0,0.0,0.0,0.0,0.0,0.0,0.0,0.0,0.0,0.0,0.0,0.0,0.0,0.0,0.0,0.0,0.0,0.0,0.0,0.0,0.0,0.0,0.0,0.0,0.0,0.0,0.0,0.0,0.0,0.0,0.0,0.0,0.0,0.0,0.0,0.0,0.0,0.0,0.0,0.0,0.0,0.0,0.0,0.0,0.0,0.0,3.8341,3.814,3.7889,3.7538,3.7312,3.7061,3.6757,3.6531,3.6405,3.6405,0.0,0.0,0.0,0.0,0.0,0.0,0.0,0.0,0.0,0.0,0.0,0.0,0.0,0.0,0.0,0.0,0.0,0.0,0.0,0.0,0.0,0.0,0.0,0.0,0.0,0.0,0.0,0.0,0.0,0.0,0.0,0.0,0.0,0.0,0.0,0.0,0.0,0.0,0.0,0.0,0.0,0.0,0.0,0.0,0.0,0.0,0.0,0.0,0.0,0.0,0.0,0.0,0.0,0.0,0.0,0.0,0.0,0.0,0.0,0.0,0.0,0.0,0.0,0.0,0.0,0.0,0.0,0.0,0.0,0.0,0.0,0.0,0.0,0.0,0.0,0.0,0.0,0.0,0.0,0.0,0.0,0.0,0.0,0.0,0.0,0.0,0.0,0.0,0.0,0.0,0.0,0.0,0.0,0.0,0.0,0.0,0.0,0.0,0.0,0.0,0.0,0.0,3.8994,3.8492,3.814,3.809,3.7638,3.7312,3.7262,3.6807,3.648,3.648,0.0,0.0,0.0,0.0,0.0,0.0,0.0,0.0,0.0,0.0,0.0,0.0,0.0,0.0,0.0,0.0,0.0,0.0,0.0,0.0,0.0,0.0,0.0,0.0,0.0,0.0,0.0,0.0,0.0,0.0,0.0,0.0,0.0,0.0,0.0,0.0,0.0,0.0,0.0,0.0,0.0,0.0,0.0,0.0,0.0,0.0,0.0,0.0,0.0,0.0,0.0,0.0,0.0,0.0,0.0,0.0,0.0,0.0,0.0,0.0,3.9697,0.0,0.0,0.0,0.0,0.0,0.0,0.0,0.0,0.0,0.0,0.0,0.0,0.0,0.0,0.0,0.0,0.0,0.0,0.0,0.0,0.0,0.0,0.0,0.0,0.0,0.0,0.0,0.0,0.0,0.0,0.0,0.0,0.0,0.0,0.0,0.0,0.0,0.0,0.0,0.0,0.0,3.9521,3.9421,3.917,3.8718,3.8642,3.8316,3.7864,3.7337,3.701,3.701,3.6656,0.0,0.0,0.0,0.0,0.0,0.0,0.0,0.0,0.0,0.0,0.0,0.0,0.0,0.0,0.0,0.0,0.0,0.0,0.0,0.0,0.0,0.0,0.0,0.0,0.0,0.0,0.0,0.0,0.0,0.0,0.0,0.0,0.0,0.0,0.0,0.0,0.0,0.0,0.0,0.0,0.0,0.0,0.0,0.0,0.0,0.0,0.0,0.0,0.0,0.0,0.0,0.0,0.0,0.0,0.0,0.0,0.0,0.0,0.0,0.0,3.9697,0.0,0.0,0.0,0.0,0.0,0.0,0.0,0.0,0.0,0.0,0.0,0.0,0.0,0.0,0.0,0.0,0.0,0.0,0.0,0.0,0.0,0.0,0.0,0.0,0.0,0.0,0.0,0.0,0.0,0.0,0.0,0.0,0.0,0.0,0.0,0.0,0.0,0.0,0.0,0.0,3.9697,3.9697,3.9597,3.9295,3.9019,3.8743,3.8442,3.7914,3.7462,3.7211,3.6958,0.0,0.0,0.0,0.0,0.0,0.0,0.0,0.0,0.0,0.0,0.0,0.0,0.0,0.0,0.0,0.0,0.0,0.0,0.0,0.0,0.0,0.0,0.0,0.0,0.0,0.0,0.0,0.0,0.0,0.0,0.0,0.0,0.0,0.0,0.0,0.0,0.0,0.0,0.0,0.0,0.0,0.0,0.0,0.0,0.0,0.0,0.0,0.0,0.0,0.0,0.0,0.0,0.0,4.0651,4.0902,4.1275,4.1275,4.1275,4.1225,4.0375,3.9973,3.9973,3.9973,0.0,0.0,0.0,0.0,0.0,0.0,0.0,0.0,0.0,0.0,0.0,0.0,0.0,0.0,0.0,0.0,0.0,0.0,0.0,0.0,0.0,0.0,0.0,0.0,3.9697,3.9697,0.0,0.0,0.0,0.0,0.0,0.0,0.0,0.0,0.0,0.0,0.0,0.0,3.9697,3.9697,3.9697,3.9697,3.927,3.907,3.907,3.8492,3.7914,3.7362,3.7236,3.6935,0.0,0.0,0.0,0.0,0.0,0.0,0.0,0.0,0.0,0.0,0.0,0.0,0.0,0.0,0.0,0.0,0.0,0.0,0.0,0.0,0.0,0.0,0.0,0.0,0.0,0.0,0.0,0.0,0.0,0.0,0.0,0.0,3.9496,3.9572,0.0,0.0,0.0,0.0,0.0,0.0,0.0,0.0,0.0,0.0,0.0,0.0,0.0,4.0651,4.1075,4.1075,4.11,4.1175,4.1175,4.12,4.1275,4.1275,4.1275,4.1275,4.1125,0.0,4.1075,4.1075,0.0,0.0,0.0,0.0,0.0,0.0,0.0,0.0,0.0,0.0,0.0,0.0,0.0,0.0,0.0,0.0,0.0,0.0,0.0,0.0,0.0,0.0,3.9697,3.9697,3.9697,3.9697,0.0,3.9697,3.9697,3.9697,3.9697,0.0,0.0,0.0,0.0,0.0,0.0,0.0,3.9697,3.9697,3.9697,3.9697,3.9622,3.9597,3.9597,3.9069,3.8517,3.7939,3.7437,3.6935,3.643,3.6405,0.0,0.0,0.0,0.0,0.0,0.0,0.0,0.0,0.0,0.0,0.0,0.0,0.0,0.0,0.0,0.0,0.0,0.0,0.0,0.0,0.0,0.0,0.0,0.0,0.0,0.0,0.0,0.0,0.0,3.9546,3.9697,3.9697,3.9697,3.9697,0.0,0.0,0.0,0.0,0.0,0.0,0.0,0.0,0.0,4.0924,4.0924,4.105,4.1275,4.1275,4.1505,4.1806,4.1806,4.1957,4.2258,4.2258,4.2258,4.2258,4.2258,4.2258,4.2208,4.1551,4.1275,4.1275,0.0,0.0,0.0,0.0,4.1275,4.1275,4.1275,4.1275,0.0,4.1275,0.0,0.0,0.0,0.0,0.0,0.0,0.0,0.0,0.0,0.0,4.0551,4.0224,4.0149,4.0074,3.9772,3.9697,3.9697,0.0,3.9697,3.9697,3.9697,0.0,0.0,0.0,0.0,3.9697,3.9697,3.9697,3.9697,3.9697,3.9697,3.9697,3.9697,3.9471,3.9094,3.8517,3.7965,3.7387,3.6883,3.6581,3.6405,0.0,0.0,0.0,0.0,0.0,0.0,0.0,0.0,0.0,0.0,0.0,0.0,0.0,0.0,0.0,0.0,0.0,0.0,0.0,0.0,0.0,0.0,0.0,0.0,0.0,0.0,0.0,0.0,3.9697,3.9747,3.9898,3.9898,3.9948,0.0,0.0,0.0,0.0,0.0,0.0,4.125,4.1275,4.1351,4.1555,4.1555,4.1605,4.1756,4.1702,4.1957,4.2414,4.2414,4.264,4.2986,4.2986,4.2986,4.2986,4.2986,4.2986,4.2911,4.2108,4.1702,4.1702,4.1702,4.1702,4.1702,4.1702,4.1702,4.1702,4.1702,4.1702,4.1702,4.1702,0.0,4.1731,4.158,0.0,0.0,0.0,0.0,4.1505,4.1326,4.1275,4.1175,4.0827,4.0674,4.0626,4.0199,4.0124,4.0023,0.0,3.9697,3.9697,3.9697,0.0,0.0,0.0,0.0,3.9697,3.9697,3.9697,3.9697,3.9697,3.9697,3.9697,3.9697,3.9697,3.9446,3.8944,3.8467,3.7914,3.7211,3.6832,3.6556,3.6405,0.0,0.0,0.0,0.0,0.0,0.0,0.0,0.0,0.0,0.0,0.0,0.0,0.0,0.0,0.0,0.0,0.0,0.0,0.0,0.0,0.0,0.0,0.0,0.0,0.0,0.0,0.0,0.0,0.0,4.04,4.0475,0.0,0.0,0.0,0.0,4.125,4.125,4.125,4.1275,4.1275,4.158,4.2162,4.2162,4.2414,4.2886,4.2886,4.2911,4.2936,4.2936,4.2961,4.2986,4.2986,4.2986,4.2986,4.2986,4.2986,4.2986,4.2911,4.2886,4.2886,4.2886,4.2886,4.2886,4.2886,4.2886,4.2886,4.2886,4.2886,4.2886,4.2886,4.2886,4.2811,4.2338,4.2539,0.0,0.0,4.2162,4.2037,4.148,4.1275,4.1275,4.125,4.125,4.1225,4.12,4.12,4.0953,0.0,3.9697,3.9697,3.9697,0.0,3.9697,3.9697,3.9697,3.9697,3.9697,3.9697,3.9697,3.9697,3.9697,3.9697,3.9697,3.9697,3.9446,3.8944,3.8894,3.8391,3.7236,3.7161,3.6933,3.6405,3.6405,0.0,0.0,0.0,0.0,0.0,0.0,0.0,0.0,0.0,0.0,0.0,0.0,0.0,0.0,0.0,0.0,0.0,0.0,0.0,0.0,0.0,0.0,0.0,0.0,0.0,0.0,0.0,0.0,4.0974,4.1,0.0,4.1275,4.1275,4.148,4.1831,4.1856,4.2032,4.2384,4.2384,4.2484,4.274,4.274,4.2961,4.3514,4.3514,4.3689,4.4041,4.4041,4.4041,4.4016,4.3664,4.3514,4.3489,4.3137,4.2986,4.2986,4.2986,4.2986,4.2986,4.2986,4.2986,4.2986,4.2986,4.2986,4.2986,4.2986,4.2986,4.2986,4.2986,4.2986,4.2936,4.2735,4.2866,4.2936,4.2791,4.274,4.269,4.2434,4.2384,4.2308,4.1957,4.1856,4.1756,4.1351,4.1275,4.1175,4.0774,4.0752,4.0752,4.0752,4.0752,4.0752,4.0752,4.0752,4.0752,4.0752,4.0752,4.0752,4.0752,4.0425,4.0224,4.0224,3.9898,3.9622,3.9421,3.9069,3.8743,3.8291,3.7563,3.7086,3.6933,3.6581,3.6405,0.0,0.0,0.0,0.0,0.0,0.0,0.0,0.0,0.0,0.0,0.0,0.0,0.0,0.0,0.0,0.0,0.0,0.0,0.0,0.0,0.0,0.0,0.0,0.0,0.0,4.105,4.1351,4.1605,4.1605,4.1681,4.1882,4.1882,4.2032,4.2464,4.2489,4.264,4.2961,4.3162,4.3263,4.3263,4.3438,4.3714,4.4066,4.4091,4.4267,4.4618,4.4618,4.4618,4.4618,4.4242,4.4091,4.4041,4.3489,4.3263,4.3237,4.3062,4.2986,4.2986,4.2986,4.2986,4.2986,4.2986,4.2986,4.2986,4.2986,4.2986,4.2986,4.2986,4.2986,4.2986,4.2986,4.2986,4.2986,4.2986,4.2986,4.2986,4.2986,4.2986,4.2886,4.2564,4.2489,4.2333,4.1982,4.1882,4.1882,4.1882,4.1526,4.1275,4.1275,4.1275,4.1275,4.1275,4.1275,4.1275,4.1275,4.1275,4.1275,4.1275,4.0949,4.0802,4.0802,4.03,3.9973,3.9973,3.9446,3.9069,3.8919,3.814,3.7563,3.7186,3.6681,3.6405,3.6405,0.0,0.0,0.0,0.0,0.0,0.0,0.0,0.0,0.0,0.0,0.0,0.0,0.0,0.0,0.0,0.0,0.0,0.0,0.0,0.0,0.0,0.0,0.0,4.1376,4.1326,4.158,4.2162,4.2238,4.2439,4.2936,4.2986,4.2986,4.3011,4.3011,4.3011,4.3037,4.3539,4.3815,4.3815,4.4342,4.4644,4.4644,4.4644,4.4669,4.4669,4.4669,4.4669,4.4669,4.4669,4.4644,4.4618,4.4066,4.3815,4.379,4.3237,4.3011,4.3011,4.2986,4.2986,4.2986,4.2986,4.2986,4.2986,4.2986,4.2986,4.2986,4.2986,4.2986,4.2986,4.2986,4.2986,4.2986,4.2986,4.2986,4.2986,4.2986,4.2986,4.2986,4.2986,4.2986,4.2986,4.2986,4.2986,4.2986,4.2986,4.2108,4.1326,4.1326,4.1326,4.1326,4.1326,4.1326,0.0,4.1326,4.1326,4.1326,4.1326,4.1326,4.13,4.13,4.0799,4.0551,4.0551,4.0023,3.9471,3.8994,3.8944,3.8341,3.7236,3.6707,3.643,3.643,0.0,0.0,0.0,0.0,0.0,0.0,0.0,0.0,0.0,0.0,0.0,0.0,0.0,0.0,0.0,0.0,0.0,0.0,0.0,0.0,0.0,4.266,4.2615,4.2007,4.2283,4.2585,4.2735,4.276,4.2811,4.2961,4.2986,4.3137,4.3539,4.3589,4.374,4.4141,4.4317,4.4392,4.4392,4.4543,4.4819,4.5246,4.5246,4.5447,4.5849,4.5849,4.5849,4.5824,4.5422,4.5246,4.5221,4.4644,4.4392,4.4392,4.4242,4.394,4.3539,4.3137,4.2986,4.2986,4.2986,4.2986,4.2986,4.2986,4.2986,4.2986,4.2986,4.2986,4.2986,4.2986,4.2986,4.2986,4.2986,4.2986,4.2986,4.2986,4.2986,4.2986,4.2986,4.2986,4.2986,4.2986,4.2986,4.2986,4.2986,4.2735,4.2534,4.2534,4.2534,4.2534,4.2534,4.2534,0.0,4.2534,4.2534,4.2534,4.2534,4.2158,4.1932,4.1932,4.143,4.1075,4.1075,4.0601,4.0224,4.0074,3.9295,3.8517,3.7789,3.7236,3.696,0.0,0.0,0.0,0.0,0.0,0.0,0.0,0.0,0.0,0.0,0.0,0.0,0.0,0.0,0.0,0.0,0.0,0.0,0.0,0.0,0.0,0.0,4.2986,4.2861,4.259,4.2816,4.2986,4.2986,4.2986,4.3062,4.3288,4.3313,4.3564,4.4091,4.4141,4.4292,4.4593,4.4844,4.4995,4.4995,4.5196,4.5598,4.6175,4.5949,4.61,4.6652,4.6426,4.6301,4.6301,4.5974,4.5824,0.0,4.5221,4.4995,4.497,4.4719,4.4443,0.0,0.0,0.0,0.0,0.0,4.2986,4.2986,4.2986,4.2986,4.2986,4.2986,4.2986,4.2986,4.2986,4.2986,4.2986,4.2986,4.2986,4.2986,4.2986,4.2986,4.2986,4.2986,4.2986,4.2986,4.2986,4.2986,4.2986,4.2986,4.2986,0.0,4.2986,4.2986,4.2986,4.2986,4.2986,4.2986,4.2986,4.2986,4.2986,4.2986,4.274,4.2564,4.2564,4.2007,0.0,0.0,0.0,4.0752,4.0526,3.9672,0.0,0.0,0.0,3.7538,3.7538,0.0,0.0,0.0,3.6433,3.6078,0.0,0.0,0.0,0.0,0.0,0.0,0.0,0.0,0.0,0.0,0.0,0.0,0.0,0.0,0.0,0.0,4.2986,4.2986,4.2986,4.2986,4.2986,4.2986,4.3037,4.3263,4.374,4.3865,4.4116,4.4669,4.4719,4.4744,4.4819,0.0,0.0,0.0,0.0,4.6728,4.723,4.6728,4.6728,4.7143,4.6728,4.6451,4.6401,4.6401,4.6376,4.6276,4.5799,4.5573,4.5547,4.502,4.4769,4.4669,4.4116,4.3564,4.3062,4.3062,4.3037,4.2986,4.2986,0.0,0.0,4.2986,4.2986,4.2986,4.2986,4.2986,4.2986,4.2986,4.2986,4.2986,4.2986,4.2986,4.2986,4.2986,4.2986,4.2986,4.2986,4.2986,4.2986,4.2986,4.2986,4.2986,4.2986,4.2986,4.2986,4.2986,4.2986,4.2986,4.2986,4.2986,4.2986,4.2986,0.0,0.0,4.2986,4.259,4.2313,4.2313,4.1731,4.1178,4.0626,4.0074,3.9546,3.9069,3.8442,3.809,3.809,3.804,3.8015,3.799,3.6935,3.6505,0.0,0.0,0.0,0.0,0.0,0.0,0.0,0.0,0.0,0.0,0.0,0.0,0.0,0.0,0.0,4.2986,4.2986,4.2986,4.2986,4.2986,4.2986,4.2986,4.3363,4.3689,4.379,4.4192,4.4694,4.5271,4.5321,4.5522,4.5949,4.6502,4.6803,4.6803,4.733,4.7657,4.7757,4.7657,4.7657,4.7757,0.0,0.0,4.6979,4.6979,4.6728,4.6301,4.62,4.615,4.615,4.6024,4.5723,4.5271,4.4694,4.4141,4.3639,4.3639,4.3363,4.2986,4.2986,4.2986,4.2986,4.2986,4.2986,4.2986,4.2986,4.2986,0.0,4.2986,4.2986,4.2986,4.2986,4.2986,4.2986,4.2986,4.2986,4.2986,4.2986,4.2986,4.2986,4.2986,4.2986,4.2986,4.2986,4.2986,4.2986,4.2986,4.2986,4.2986,4.2986,4.2986,4.2986,4.2986,4.2986,4.2986,4.2986,4.2886,4.2866,4.2866,4.2363,4.1756,4.115,4.0651,4.03,4.0199,3.922,3.8718,3.8693,3.8241,3.8015,3.799,3.7337,3.7036,0.0,0.0,0.0,0.0,0.0,0.0,0.0,0.0,0.0,0.0,0.0,4.2986,4.2986,0.0,4.2986,4.2986,4.2986,4.2986,4.2986,4.2986,4.3087,4.3363,4.3639,4.4016,4.4593,4.4895,4.5296,4.5849,4.5899,4.6125,4.6702,4.6918,4.7193,4.7506,4.7782,4.8033,4.8335,4.8058,4.8058,4.8335,4.8033,4.7782,4.7506,4.7193,4.6918,4.6702,4.6426,4.6301,4.6301,4.6301,4.615,4.5874,4.5573,4.4945,4.4217,4.4217,4.4041,4.3765,4.3489,4.3388,4.3338,4.3062,4.2986,4.2986,4.2986,4.2986,4.2986,4.2986,4.2986,4.2986,4.2986,4.2986,4.2986,4.2986,4.2986,4.2986,4.2986,4.2986,4.2986,4.2986,4.2986,4.2986,4.2986,4.2986,4.2986,4.2986,4.2986,4.2986,4.2986,4.2986,4.2986,4.2986,4.2986,4.2986,4.2986,4.2986,4.2986,4.2986,4.2766,4.2308,4.1781,4.148,4.1204,4.0874,4.0124,3.9697,3.9697,3.912,3.8843,3.8843,3.8291,3.7864,0.0,0.0,0.0,0.0,0.0,0.0,0.0,4.2986,4.2986,4.2986,4.2986,4.2986,4.2986,4.2986,4.2986,4.2986,4.2986,4.2986,4.2986,4.3062,4.3338,4.389,4.3966,4.4367,4.5397,4.5573,4.5824,4.6276,4.6401,4.6652,4.7043,4.733,4.7631,4.8058,4.8184,4.846,4.8937,4.846,4.846,4.8937,4.846,4.8184,4.8058,4.7631,4.733,4.7043,4.6552,4.6301,4.6301,4.6301,4.6301,4.6301,4.6301,4.5748,4.4945,4.4819,4.4719,4.4568,4.4116,4.3966,4.3865,4.3313,4.3137,4.3112,4.3011,4.2986,4.2986,4.2986,4.2986,4.2986,4.2986,4.2986,4.2986,4.2986,4.2986,4.2986,4.2986,4.2986,4.2986,4.2986,4.2986,4.2986,4.2986,4.2986,4.2986,4.2986,4.2986,4.2986,4.2986,4.2986,4.2986,4.2986,4.2986,4.2986,4.2986,4.2986,4.2986,4.2986,4.2986,4.2841,4.2389,4.2263,4.1957,4.1505,4.0953,4.0676,4.0676,4.0124,3.9848,3.9848,3.9295,3.8718,4.2585,4.2886,4.2911,4.2961,4.2986,4.2986,0.0,4.2986,4.2986,4.2986,4.2986,4.2986,4.2986,4.2986,4.2986,4.2986,4.2986,4.2986,4.2986,4.3388,4.3915,4.4468,4.4543,4.4794,4.5422,4.5924,4.625,4.6301,4.6753,4.7079,4.7068,4.8058,4.8611,4.8686,4.9163,4.9439,4.9515,4.9439,4.9439,4.9515,4.9439,4.9138,4.8686,4.8611,4.8058,4.7043,4.6552,4.6301,4.6301,4.6301,4.6301,4.6301,4.6301,4.6225,4.605,4.5573,4.507,4.4618,4.4543,4.4543,4.4443,4.389,4.3714,4.3614,4.3112,4.2986,4.2986,4.2986,4.2986,4.2986,4.2986,4.2986,4.2986,4.2986,4.2986,4.2986,4.2986,4.2986,4.2986,4.2986,4.2986,4.2986,4.2986,4.2986,4.2986,4.2986,4.2986,4.2986,4.2986,4.2986,4.2986,4.2986,4.2986,4.2986,4.2986,4.2986,4.2986,4.2986,4.2986,4.2961,4.2886,4.2464,4.2187,4.2112,4.153,4.12,4.12,4.0701,4.0425,4.04,3.9848,3.9295,4.276,4.2986,4.2986,4.2986,4.2986,4.2986,4.2986,4.2986,4.2986,4.2986,4.2986,4.2986,4.2986,4.2986,4.2986,4.2986,4.2986,4.2986,4.2986,4.3463,4.4016,4.4568,4.492,4.5347,4.5924,4.6175,4.6301,4.6301,4.6828,4.7255,4.7581,4.8335,4.8912,4.9238,4.9464,4.959,4.959,4.959,4.959,4.959,4.959,4.9464,4.9238,4.8912,4.8159,4.7129,4.6878,4.6602,4.6301,4.6301,4.6301,4.6301,4.6301,4.6301,4.6276,4.605,4.5824,4.5547,4.5246,4.5121,4.502,4.4468,4.4292,4.4242,4.4016,4.3714,4.3463,4.3463,4.3212,4.2986,4.2986,4.2986,4.2986,4.2986,4.2986,4.2986,4.2986,4.2986,4.2986,4.2986,4.2986,4.2986,4.2986,4.2986,4.2986,4.2986,4.2986,4.2986,4.2986,4.2986,4.2986,4.2986,4.2986,4.2986,4.2986,4.2986,4.2986,4.2986,4.2986,4.2986,4.2986,4.276,4.269,4.269,4.2082,4.1806,4.1806,4.1254,4.1003,4.0949,4.0752,4.035,4.2861,4.2986,4.2986,4.2986,4.2986,4.2986,4.2986,4.2986,4.2986,4.2986,4.2986,4.2986,4.2986,4.2986,4.2986,4.2986,4.2986,4.3037,4.3187,4.3689,4.4242,4.4794,4.5372,4.5874,4.6276,4.6301,4.6301,4.6301,4.6954,4.7506,4.7883,4.8611,4.9188,4.959,4.959,4.959,4.959,4.959,4.959,4.959,4.959,4.959,4.9565,4.9012,4.8335,4.7556,4.7255,4.6903,4.6527,4.6376,4.6301,4.6301,4.6301,4.6301,4.6301,4.6301,4.6301,4.625,4.5849,4.5723,4.5623,4.5045,4.4869,4.4844,4.4669,4.4342,4.4041,4.4041,4.374,4.3438,4.3438,4.3313,4.3212,4.3212,4.3087,4.2986,4.2986,4.2986,4.2986,4.2986,4.2986,4.2986,4.2986,4.2986,4.2986,4.2986,4.2986,4.2986,4.2986,4.2986,4.2986,4.2986,4.2986,4.2986,4.2986,4.2986,4.2986,4.2986,4.2986,4.2986,4.2986,4.2986,4.2986,4.2986,4.264,4.2439,4.2439,4.1831,4.1555,4.1555,4.1351,4.1075,4.2961,4.2986,4.2986,4.2986,4.2986,4.2986,4.2986,4.2986,4.2986,4.2986,4.2986,4.2986,4.2986,4.2986,4.2986,4.2986,4.2986,4.3162,4.3689,4.4242,4.4819,4.5397,4.5949,4.6301,4.6301,4.6301,4.6301,4.6301,4.728,4.7883,4.7908,4.8962,4.9565,4.959,4.959,4.959,4.959,4.959,4.959,4.959,4.959,4.959,4.9565,4.9012,4.8761,4.8661,4.7606,4.7068,4.7079,4.6527,4.6301,4.6301,4.6301,4.6301,4.6301,4.6301,4.6301,4.6301,4.6301,4.6276,4.62,4.5648,4.5472,4.5347,4.4794,4.4618,4.4593,4.4593,4.4593,4.4568,4.4568,4.4192,4.379,4.379,4.3363,4.2986,4.2986,4.2986,4.2986,4.2986,4.2986,4.2986,4.2986,4.2986,4.2986,4.2986,4.2986,4.2986,4.2986,4.2986,4.2986,4.2986,4.2986,4.2986,4.2986,4.2986,4.2986,4.2986,4.2986,4.2986,4.2986,4.2986,4.2986,4.2986,4.2961,4.2961,4.2961,4.2464,4.2187,4.2162,4.158,4.1275,4.2986,4.2986,4.2986,4.2986,4.2986,4.2986,4.2986,4.2986,4.2986,4.2986,4.2986,4.2986,4.2986,4.2986,4.2986,4.2986,4.2986,4.3162,4.3714,4.4267,4.4844,4.5422,4.5974,4.6301,4.6301,4.6301,4.6451,4.6828,4.7506,4.8083,4.846,4.9188,4.959,4.959,4.959,4.959,4.959,4.959,4.959,4.959,4.959,4.959,4.959,4.9414,4.9113,4.8761,4.8385,4.8008,4.7606,4.7079,4.6853,4.6828,4.6451,4.6301,4.6301,4.6301,4.6301,4.6301,4.6301,4.6301,4.6276,4.61,4.6024,4.5999,4.5799,4.5497,4.5196,4.5196,4.492,4.4618,4.4618,4.4493,4.4342,4.4342,4.4192,4.4066,4.4066,4.4066,4.4066,4.4066,4.4066,4.3966,4.3589,4.3514,4.3388,4.3037,4.2986,4.2986,4.2986,4.2986,4.2986,4.2986,4.2986,4.2986,4.2986,4.2986,4.2986,4.2986,4.2986,4.2986,4.2986,4.2986,4.2986,4.2986,4.2986,4.2986,4.2986,4.2841,4.2766,4.2766,4.2509,4.2233,4.2986,4.2986,4.2986,4.2986,4.2986,4.2986,4.2986,4.2986,4.2986,4.2986,4.2986,4.2986,4.2986,4.2986,4.2986,4.2986,4.2986,4.3237,4.3991,4.4392,4.492,4.5698,4.61,4.6301,4.6301,4.6502,4.6753,4.7043,4.7606,4.8159,4.8736,4.9289,4.959,4.959,4.959,4.959,4.959,4.959,4.959,4.959,4.959,4.959,4.959,4.959,4.9389,4.9063,4.8862,4.856,4.8184,4.7631,4.7405,4.7355,4.6828,4.6602,4.6577,4.6376,4.6301,4.6301,4.6301,4.6301,4.6301,4.6301,4.6301,4.6301,4.6301,4.6075,4.5773,4.5773,4.5522,4.5221,4.5221,4.5095,4.4945,4.4945,4.4769,4.4618,4.4618,4.4618,4.4618,4.4618,4.4618,4.4518,4.4166,4.394,4.3689,4.3313,4.3112,4.2986,4.2986,4.2986,4.2986,4.2986,4.2986,4.2986,4.2986,4.2986,4.2986,4.2986,4.2986,4.2986,4.2986,4.2986,4.2986,4.2986,4.2986,4.2986,4.2986,4.2986,4.2986,4.2986,4.2986,4.2841,4.2986,4.2986,4.2986,4.2986,4.2986,4.2986,4.2986,4.2986,4.2986,4.2986,4.2986,4.2986,4.2986,4.2986,4.2986,4.2986,4.2986,4.3363,4.4468,4.4618,4.5045,4.6175,4.6301,4.6326,4.6351,4.6828,4.7093,4.7143,0.0,4.8209,4.8786,4.9314,4.959,4.959,4.959,4.959,4.959,4.959,4.959,4.959,4.959,4.959,4.959,4.959,4.959,4.9565,4.9038,4.8812,4.8761,4.8184,4.7958,4.7908,4.738,4.7093,4.7079,4.6552,4.6326,4.6301,4.6301,4.6301,4.6301,4.6301,4.6301,4.6301,4.6301,4.6301,4.6301,4.6301,4.6301,4.6301,4.6301,4.5924,4.5522,4.5522,4.5121,4.4719,4.4719,4.4719,4.4719,4.4719,4.4694,4.4669,4.4669,4.4217,4.384,4.3815,4.3363,4.3011,4.2986,4.2986,4.2986,4.2986,4.2986,4.2986,4.2986,4.2986,4.2986,4.2986,4.2986,4.2986,4.2986,4.2986,4.2986,4.2986,4.2986,4.2986,4.2986,4.2986,4.2986,4.2986,4.2986,4.2986,4.2986,4.2986,4.2986,4.2986,4.2986,4.2986,4.2986,4.2986,4.2986,4.2986,4.2986,4.2986,4.2986,4.2986,4.2986,4.2986,4.2986,4.3363,4.4468,4.4618,4.5045,4.6175,4.6301,4.6476,4.6878,4.6993,4.7481,4.8284,4.8485,4.8786,4.9364,4.9515,4.959,4.959,4.959,4.959,4.959,4.959,4.959,4.959,4.959,4.959,4.959,4.959,4.959,4.959,4.9439,4.9389,4.9339,4.8786,4.856,4.8485,4.7933,4.7481,4.7043,4.6979,4.6652,4.6301,4.6301,4.6301,4.6301,4.6301,4.6301,4.6301,4.6301,4.6301,4.6301,4.6301,4.6301,4.6301,4.6301,4.62,4.61,4.61,4.5974,4.5874,4.5874,4.5874,4.5874,4.5874,4.5547,4.5271,4.5271,4.4794,4.4267,4.3865,4.3689,4.3438,4.3037,4.2986,4.2986,4.2986,4.2986,4.2986,4.2986,4.2986,4.2986,4.2986,4.2986,4.2986,4.2986,4.2986,4.2986,4.2986,4.2986,4.2986,4.2986,4.2986,4.2986,4.2986,4.2986,4.2986,4.2986,4.2986,4.2986,4.2986,4.2986,4.2986,4.2986,4.2986,4.2986,4.2986,4.2986,4.2986,4.2986,4.2986,4.2986,4.2986,4.2986,4.3363,4.4468,4.4618,4.5045,4.6175,4.6527,4.6803,4.7043,4.7581,4.8109,4.8736,4.8761,4.9012,4.9565,4.959,4.959,4.959,4.959,4.959,4.959,4.959,4.959,4.959,4.959,4.959,4.959,4.959,4.959,4.959,0.0,4.959,4.9565,4.9264,4.9138,4.9063,4.851,4.8109,4.7807,4.7244,4.6928,4.6652,4.6401,4.6301,4.6301,4.6301,4.6301,4.6301,4.6301,4.6301,4.6301,4.6301,4.6301,4.6301,4.6301,4.6301,4.6301,4.6301,4.6301,4.6301,4.6301,4.6301,4.6301,4.6301,4.6075,4.5849,4.5849,4.5372,4.4895,4.4593,4.4116,4.3689,4.3388,4.3137,4.2986,4.2986,4.2986,4.2986,4.2986,4.2986,4.2986,4.2986,4.2986,4.2986,4.2986,4.2986,4.2986,4.2986,4.2986,4.2986,4.2986,4.2986,4.2986,4.2986,4.2986,4.2986,4.2986,4.2986,4.2986,4.2986,4.2986,4.2986,4.2986,4.2986,4.2986,4.2986,4.2986,4.2986,4.2986,4.2986,4.2986,4.2986,4.2986,4.3363,4.4468,4.4618,4.5045,4.6175,4.6803,4.7093,4.723,4.8159,4.8812,4.8887,4.8887,4.9088,4.9565,4.959,4.959,4.959,4.959,4.959,4.959,4.959,4.959,4.959,4.959,4.959,4.959,4.959,4.959,4.959,4.959,0.0,4.959,4.959,4.959,4.954,4.9063,4.8837,4.8661,4.7707,4.7193,4.6993,4.6577,4.6376,4.6301,4.6301,4.6301,4.6301,4.6301,4.6301,4.6301,4.6301,4.6301,4.6301,4.6301,4.6301,4.6301,4.6301,4.6301,4.6301,4.6301,4.6301,4.6301,4.6301,4.6301,4.6301,4.6301,4.5924,4.5573,4.5497,4.4644,4.3966,4.3815,4.3313,4.2986,4.2986,4.2986,4.2986,4.2986,4.2986,4.2986,4.2986,4.2986,4.2986,4.2986,4.2986,4.2986,4.2986,4.2986,4.2986,4.2986,4.2986,4.2986,4.2986,4.2986,4.2986,4.2986,4.2986,4.2986,4.2986,4.2986,4.2986,4.2986,4.2986,4.2986,4.2986,4.2986,4.2986,4.2986,4.2986,4.2986,4.2986,4.2986,4.3363,4.4468,4.4618,4.5045,4.6175,4.6803,4.7244,4.7732,4.8385,4.8962,4.9414,4.9464,4.949,4.959,4.959,4.959,4.959,4.959,4.959,4.959,4.959,4.959,4.959,4.959,4.959,4.959,4.959,4.959,4.959,4.959,0.0,4.959,4.959,4.959,4.959,4.949,4.9163,4.8736,4.856,4.7908,4.7129,4.6968,4.6702,4.6301,4.6301,4.6301,4.6301,4.6301,4.6301,4.6301,4.6301,4.6301,4.6301,4.6301,4.6301,4.6301,4.6301,4.6301,4.6301,4.6301,4.6301,4.6301,4.6301,4.6301,4.6301,4.6301,4.6225,4.6024,4.5547,4.5321,4.4844,4.3915,4.3313,4.2986,4.2986,4.2986,4.2986,4.2986,4.2986,4.2986,4.2986,4.2986,4.2986,4.2986,4.2986,4.2986,4.2986,4.2986,4.2986,4.2986,4.2986,4.2986,4.2986,4.2986,4.2986,4.2986,4.2986,4.2986,4.2986,4.2986,4.2986,4.2986,4.2986,4.2986,4.2986,4.2986,4.2986,4.2986,4.2986,4.2986,4.2986,4.2986,4.3363,4.4468,4.4618,4.5045,4.6175,4.7029,4.7631,4.7883,4.8686,4.9314,4.9565,4.959,4.959,4.959,4.959,4.959,4.959,4.959,4.959,4.959,4.959,4.959,4.959,4.959,4.959,4.959,4.959,4.959,4.959,4.959,0.0,4.959,4.959,4.959,4.959,4.959,4.9439,4.9163,4.8887,4.8435,4.7908,4.733,4.6954,4.6702,4.6401,4.6301,4.6301,4.6301,4.6301,4.6301,4.6301,4.6301,4.6301,4.6301,4.6301,4.6301,4.6301,4.6301,4.6301,4.6301,4.6301,4.6301,4.6301,4.6301,4.6301,4.6301,4.6301,4.6225,4.5949,4.5673,4.5296,4.4744,4.394,4.3288,4.3011,4.2986,4.2986,4.2986,4.2986,4.2986,4.2986,4.2986,4.2986,4.2986,4.2986,4.2986,4.2986,4.2986,4.2986,4.2986,4.2986,4.2986,4.2986,4.2986,4.2986,4.2986,4.2986,4.2986,4.2986,4.2986,4.2986,4.2986,4.2986,4.2986,4.2986,4.2986,4.2986,4.2986,4.2986,4.2986,4.2986,4.2986,4.3363,4.4468,4.4618,4.5045,4.6175,4.7255,4.7908,4.7908,4.8937,4.959,4.959,4.959,4.959,4.959,4.959,4.959,4.959,4.959,4.959,4.959,4.959,4.959,4.959,4.959,4.959,4.959,4.959,4.959,4.959,4.959,0.0,0.0,4.959,4.959,4.959,4.959,4.959,4.954,4.9113,4.8862,4.8661,4.7782,4.733,4.7054,4.6627,4.6401,4.6301,4.6301,4.6301,4.6301,4.6301,4.6301,4.6301,4.6301,4.6301,4.6301,4.6301,4.6301,4.6301,4.6301,4.6301,4.6301,4.6301,4.6301,4.6301,4.6301,4.6301,4.6301,4.6301,4.5949,4.5623,4.5497,4.4593,4.3765,4.3212,4.3062,4.2986,4.2986,4.2986,4.2986,4.2986,4.2986,4.2986,4.2986,4.2986,4.2986,4.2986,4.2986,4.2986,4.2986,4.2986,4.2986,4.2986,4.2986,4.2986,4.2986,4.2986,4.2986,4.2986,4.2986,4.2986,4.2986,4.2986,4.2986,4.2986,4.2986,4.2986,4.2986,4.2986,4.2986,4.2986,4.2986,4.3363,4.4468,4.4618,4.5045,4.6175,4.7255,4.7908,4.7908,4.8937,4.959,4.959,4.959,4.959,4.959,4.959,4.959,4.959,4.959,4.959,4.959,4.959,4.959,4.959,4.959,4.959,4.959,4.959,4.959,4.959,4.959,0.0,0.0,4.959,4.959,4.959,4.959,4.959,4.959,4.954,4.9213,4.8825,4.8661,4.7983,4.7068,4.7018,4.6728,4.6301,4.6301,4.6301,4.6301,4.6301,4.6301,4.6301,4.6301,4.6301,4.6301,4.6301,4.6301,4.6301,4.6301,4.6301,4.6301,4.6301,4.6301,4.6301,4.6301,4.6301,4.6301,4.6301,4.6276,4.605,4.5547,4.4945,4.4342,4.379,4.3263,4.2986,4.2986,4.2986,4.2986,4.2986,4.2986,4.2986,4.2986,4.2986,4.2986,4.2986,4.2986,4.2986,4.2986,4.2986,4.2986,4.2986,4.2986,4.2986,4.2986,4.2986,4.2986,4.2986,4.2986,4.2986,4.2986,4.2986,4.2986,4.2986,4.2986,4.2986,4.2986,4.2986,4.2986,4.2986,4.2986,4.3363,4.4468,4.4618,4.5045,4.6175,4.7255,4.7908,4.7908,4.8937,4.959,4.959,4.959,4.959,4.959,4.959,4.959,4.959,4.959,4.959,4.959,4.959,4.959,4.959,4.959,4.959,4.959,4.959,4.959,4.959,4.959,0.0,0.0,4.959,4.959,4.959,4.959,4.959,4.959,4.959,4.9464,4.9213,4.8887,4.8485,4.8008,4.7355,4.6979,4.6753,4.6401,4.6301,4.6301,4.6301,4.6301,4.6301,4.6301,4.6301,4.6301,4.6301,4.6301,4.6301,4.6301,4.6301,4.6301,4.6301,4.6301,4.6301,4.6301,4.6301,4.6301,4.6301,4.6301,4.6225,4.6024,4.5196,4.4543,4.4317,4.3514,4.2986,4.2986,4.2986,4.2986,4.2986,4.2986,4.2986,4.2986,4.2986,4.2986,4.2986,4.2986,4.2986,4.2986,4.2986,4.2986,4.2986,4.2986,4.2986,4.2986,4.2986,4.2986,4.2986,4.2986,4.2986,4.2986,4.2986,4.2986,4.2986,4.2986,4.2986,4.2986,4.2986,4.2986,4.2986,4.2986,4.3363,4.4468,4.4618,4.5045,4.6175,4.7255,4.7908,4.7908,4.8937,4.959,4.959,4.959,4.959,4.959,4.959,4.959,4.959,4.959,4.959,4.959,4.959,4.959,4.959,4.959,4.959,4.959,4.959,4.959,4.959,4.959,0.0,0.0,4.959,4.959,4.959,4.959,4.959,4.959,4.959,4.959,4.954,4.9163,4.8912,4.8636,4.7857,4.7405,4.7054,4.6677,4.6451,4.6301,4.6301,4.6301,4.6301,4.6301,4.6301,4.6301,4.6301,4.6301,4.6301,4.6301,4.6301,4.6301,4.6301,4.6301,4.6301,4.6301,4.6301,4.6301,4.6301,4.6301,4.6301,4.6301,4.5472,4.4819,4.4644,4.379,4.3162,4.2986,4.2986,4.2986,4.2986,4.2986,4.2986,4.2986,4.2986,4.2986,4.2986,4.2986,4.2986,4.2986,4.2986,4.2986,4.2986,4.2986,4.2986,4.2986,4.2986,4.2986,4.2986,4.2986,4.2986,4.2986,4.2986,4.2986,4.2986,4.2986,4.2986,4.2986,4.2986,4.2986,4.2986,4.2986,4.3363,4.4468,4.4618,4.5045,4.6175,4.7255,4.7908,4.7908,4.8937,4.959,4.959,4.959,0.0,4.959,4.959,4.959,4.959,4.959,4.959,4.959,4.959,4.959,4.959,4.959,4.959,4.959,4.959,4.959,0.0,0.0,0.0,0.0,4.959,4.959,4.959,4.959,4.959,4.959,4.959,4.959,4.959,4.959,4.9238,4.8761,4.8825,4.8033,4.7068,4.7068,4.6753,4.6301,4.6301,4.6301,4.6301,4.6301,4.6301,4.6301,4.6301,4.6301,4.6301,4.6301,4.6301,4.6301,4.6301,4.6301,4.6301,4.6301,4.6301,4.6301,4.6301,4.6301,4.6301,4.6301,4.5824,4.5271,4.4694,4.4116,4.3564,4.3037,4.2986,4.2986,4.2986,4.2986,4.2986,4.2986,4.2986,4.2986,4.2986,4.2986,4.2986,4.2986,4.2986,4.2986,4.2986,4.2986,4.2986,4.2986,4.2986,4.2986,4.2986,4.2986,4.2986,4.2986,4.2986,4.2986,4.2986,4.2986,4.2986,4.2986,4.2986,4.2986,4.2986,4.2986,4.3237,4.3966,4.4392,4.4895,4.5648,4.7029,4.8209,4.8987,4.9389,4.959,4.959,4.959,4.959,4.959,4.959,4.959,4.959,4.959,4.959,4.959,4.959,4.959,4.959,4.959,4.959,4.959,4.959,4.959,0.0,0.0,0.0,0.0,4.959,4.959,4.959,4.959,4.959,4.959,4.959,4.959,4.959,4.959,4.949,4.9264,4.8887,4.8535,4.8109,4.7355,4.6753,4.6301,4.6301,4.6301,4.6301,4.6301,4.6301,4.6301,4.6301,4.6301,4.6301,4.6301,4.6301,4.6301,4.6301,4.6301,4.6301,4.6301,4.6301,4.6301,4.6301,4.7146,4.7802,4.7802,4.7308,4.6794,4.6221,4.4718,4.3589,4.3037,4.2986,4.2986,4.2986,4.2986,4.3381,4.4318,4.4372,4.4372,4.4372,4.4372,4.3907,4.2986,4.2986,4.2986,4.2986,4.2986,4.2986,4.2986,4.2986,4.2986,4.2986,4.2986,4.2986,4.2986,4.2986,4.2986,4.2986,4.2986,4.2986,4.2986,4.2986,4.2986,4.2986,4.2986,4.3237,4.4016,4.4418,4.507,4.625,4.728,4.836,4.949,4.959,4.959,4.959,4.959,4.959,4.959,4.959,4.959,4.959,4.959,4.959,4.959,4.959,4.959,4.959,4.959,4.959,4.959,4.959,4.959,0.0,0.0,0.0,0.0,4.959,4.959,4.959,4.959,4.959,4.959,4.959,4.959,4.959,4.959,4.959,4.954,4.9188,4.8937,4.856,4.7481,4.6753,4.6301,4.6301,4.6301,4.6301,4.6301,4.6301,4.6301,4.6301,4.6301,4.6301,4.6301,4.6301,4.6301,4.6301,4.6301,4.6301,4.6301,4.6301,4.6481,4.7027,4.7919,4.8705,4.9251,4.9042,4.8418,4.7298,4.6327,4.5252,4.4181,4.3896,4.3768,4.3768,4.3768,4.4126,4.4994,4.4994,4.4994,4.4994,4.4994,4.4589,4.3768,4.3768,4.3768,4.3768,4.324,4.2986,0.0,4.2986,4.2986,4.2986,4.2986,4.2986,4.2986,4.2986,0.0,4.2986,4.2986,4.2986,4.2986,4.2986,4.2986,4.2986,4.2986,4.3338,4.4418,4.4644,4.5497,4.7657,4.7908,4.836,4.949,4.959,4.959,4.959,4.959,4.959,4.959,4.959,4.959,4.959,4.959,4.959,4.959,4.959,4.959,4.959,4.959,4.959,4.959,4.959,4.959,0.0,0.0,0.0,0.0,4.959,4.959,4.959,4.959,4.959,4.959,4.959,4.959,4.959,4.959,4.959,4.959,4.959,4.9213,4.8586,4.7556,4.6853,4.6351,4.6326,4.6301,4.6301,4.6301,4.6301,4.6301,4.6301,4.6301,4.6301,4.6301,4.6361,4.6481,4.6481,4.6516,4.6576,4.6481,4.6516,4.7027,4.83,4.8705,4.9308,5.0713,5.0878,5.016,4.8222,4.8573,4.8243,4.638,4.5553,4.5155,4.5155,4.5155,4.5209,4.5289,4.5289,4.5262,4.5155,4.5048,4.5048,4.5155,4.5048,4.4994,4.4994,4.3713,4.3129,4.2986,0.0,4.2986,4.2986,4.2986,4.2986,0.0,4.2986,4.2986,4.2986,4.2986,4.2986,4.2986,4.2986,4.2986,4.2986,4.2986,4.3212,4.389,4.4744,4.5924,4.7707,4.7908,4.836,4.949,4.959,4.959,4.959,4.959,4.959,4.959,4.959,4.959,4.959,4.959,4.959,4.959,4.959,4.959,4.959,4.959,4.959,4.959,4.959,4.959,0.0,0.0,0.0,4.959,4.959,4.959,4.959,4.959,4.959,4.959,4.959,4.959,4.959,4.959,4.959,4.959,4.959,4.9213,4.8711,4.846,4.7707,4.6853,4.6426,4.6301,4.6301,4.6301,4.6301,4.6301,4.6301,4.6301,4.6301,4.6301,4.7205,4.7977,4.7977,4.8908,4.9338,4.821,4.8908,4.9395,4.8647,5.0463,5.2079,5.2402,5.2455,5.2092,5.1173,5.023,4.954,4.9234,4.7608,4.6578,4.6578,4.6578,4.7094,4.8189,4.8239,4.7707,4.663,4.5555,4.5502,4.6578,4.5502,4.4994,4.4994,4.4671,4.4535,4.2986,4.2986,4.2986,4.2986,4.2986,4.2986,4.2986,4.2986,4.2986,4.2986,4.2986,4.2986,4.2986,4.2986,4.2986,4.2986,4.2986,4.3263,4.4066,4.5146,4.6376,4.7757,4.7908,4.836,4.949,4.959,4.959,4.959,4.959,4.959,4.959,4.959,4.959,4.959,4.959,4.959,4.959,4.959,4.959,4.959,4.959,4.959,4.959,4.959,4.959,0.0,0.0,0.0,4.959,4.959,4.959,4.959,4.959,4.959,4.959,4.959,4.959,4.959,4.959,4.959,4.959,4.959,4.9389,4.9113,4.8837,4.8872,4.8641,4.7086,4.6502,4.6301,4.6301,4.6301,4.6301,4.6301,4.6301,4.6301,4.6301,4.7475,4.8474,4.8474,4.9678,5.0435,4.9678,5.0157,5.0657,5.0574,5.1972,5.3256,5.3912,5.4016,5.361,5.263,5.2104,5.1506,5.0659,4.9868,4.9052,4.8139,4.8088,4.8389,4.9161,4.921,4.8837,4.8088,4.7299,4.7299,4.8088,4.7299,4.6578,4.5978,4.5978,4.5608,4.2986,4.2986,4.2986,4.2986,4.2986,4.2986,4.2986,4.2986,4.2986,4.2986,4.2986,4.2986,4.2986,4.2986,4.2986,4.2986,4.3112,4.3589,4.4618,4.5648,4.6702,4.7782,4.7908,4.836,4.949,4.959,4.959,4.959,4.959,4.959,4.959,4.959,4.959,4.959,4.959,4.959,4.959,4.959,4.959,4.959,4.959,4.959,4.959,4.959,4.959,4.959,0.0,0.0,4.959,4.959,4.959,4.959,4.959,4.959,4.959,4.959,4.959,4.959,4.959,4.959,4.959,4.959,4.959,4.9515,4.9038,5.0017,5.0725,4.8406,4.745,4.7095,4.6993,4.6815,4.6636,4.6636,4.6636,4.6636,4.6636,4.7977,4.9194,4.9194,5.0407,5.1318,5.1098,5.1263,5.1753,5.2857,5.3174,5.3808,5.5027,5.5179,5.4743,5.3466,5.3985,5.3594,5.165,5.2014,5.1606,4.9756,4.9562,4.9504,4.9504,4.9308,4.9308,4.9504,4.9308,4.9308,4.9504,4.9308,4.8589,4.7402,4.7402,4.6785,4.2986,4.2986,4.2986,4.2986,4.2986,4.2986,4.2986,4.2986,4.2986,4.2986,4.2986,4.2986,4.2986,4.2986,4.2986,4.2986,4.3765,4.4593,4.5271,4.5899,4.6702,4.7782,4.7908,4.836,4.949,4.959,4.959,4.959,4.959,4.959,4.959,4.959,4.959,4.959,4.959,4.959,4.959,4.959,4.959,4.959,4.959,4.959,4.959,4.959,4.959,4.959,0.0,4.959,4.959,4.959,4.959,4.959,4.959,4.959,4.959,4.959,4.959,4.959,4.959,4.959,4.959,4.959,4.959,4.9565,4.949,5.0264,5.1091,5.069,5.0741,5.0699,5.0181,4.9137,4.8152,4.8152,4.8152,4.8152,4.8152,5.0351,5.2295,5.2295,5.3518,5.4119,5.2857,5.3675,5.4171,5.3121,5.4068,5.4976,5.5179,5.5179,5.5128,5.4896,5.4988,5.466,5.3803,5.3316,5.2707,5.178,5.1214,5.0917,5.0917,4.9776,4.9727,5.087,4.9776,4.9776,5.0917,4.9776,4.9112,4.8886,4.8886,4.8738,4.3184,4.2986,4.2986,4.2986,4.2986,4.2986,4.2986,4.2986,4.2986,4.2986,4.2986,4.2986,4.2986,4.2986,4.3062,4.3363,4.4091,4.4819,4.5422,4.6225,4.7054,4.7807,4.8184,4.8686,4.9515,4.959,4.959,4.959,4.959,4.959,4.959,4.959,4.959,4.959,4.959,4.959,4.959,4.959,4.959,4.959,4.959,4.959,4.959,4.959,4.959,4.959,0.0,4.959,4.959,4.959,4.959,4.959,4.959,4.959,4.959,4.959,5.0142,5.0916,5.0916,5.0916,5.0916,5.0916,5.0308,4.959,4.959,5.1148,5.2848,5.2523,5.2072,5.1653,5.1349,5.0459,4.9678,4.9678,4.9678,4.9678,4.9678,5.1455,5.3016,5.3016,5.42,5.4976,5.4304,5.4743,5.4976,5.4304,5.4743,5.5179,5.5179,5.5179,5.5179,5.5179,5.5179,5.491,5.4281,5.3922,5.3144,5.1768,5.1379,5.1229,5.1229,5.0603,5.0555,5.1182,5.0603,5.0603,5.1229,5.0603,4.9921,4.921,4.9921,4.9873,4.3351,4.324,4.3381,4.3073,4.2986,4.2986,4.2986,4.2986,4.2986,4.2986,4.2986,4.2986,4.2986,4.2986,4.3212,4.389,4.4342,4.4869,4.5573,4.6527,4.733,4.7857,4.841,4.8987,4.954,4.959,4.959,4.959,4.959,0.0,4.959,4.959,4.959,4.959,4.959,4.959,4.959,4.959,4.959,4.959,4.959,4.959,4.959,4.959,4.959,4.959,4.959,4.959,4.959,4.959,4.959,4.959,4.959,4.959,4.959,4.959,5.06,5.1989,5.1989,5.2271,5.2578,5.2578,5.1767,5.0727,5.0727,5.2727,5.4806,5.4332,5.3696,5.3133,5.2851,5.2125,5.143,5.1291,5.1263,5.1263,5.1263,5.2455,5.3518,5.3518,5.4406,5.5179,5.5179,5.5179,5.5179,5.5179,5.5179,5.5179,5.5179,5.5179,5.5179,5.5179,5.5179,5.491,5.4281,5.4221,5.3414,5.1558,5.1319,5.1229,5.1229,5.1229,5.1229,5.1229,5.1229,5.1229,5.1229,5.1229,5.065,4.9679,5.0698,5.065,4.3351,4.3907,4.4589,4.3295,4.2986,4.2986,4.2986,4.2986,4.2986,4.2986,4.2986,4.2986,4.2986,4.2986,4.3313,4.4392,4.4593,4.4995,4.61,4.6753,4.733,4.7857,4.841,4.8987,4.954,4.959,4.959,4.959,4.959,0.0,4.959,4.959,4.959,4.959,4.959,4.959,4.959,4.959,4.959,4.959,4.959,4.959,4.959,4.959,4.959,4.959,4.959,4.959,4.959,4.959,4.959,4.959,4.959,4.959,4.959,4.959,5.06,5.1989,5.1989,5.3005,5.4208,5.4208,5.4149,5.4029,5.4029,5.5211,5.6537,5.6479,5.7053,5.7345,5.6206,5.4791,5.3547,5.2972,5.2857,5.2857,5.2857,5.4016,5.5027,5.5027,5.5128,5.5179,5.5179,5.5179,5.5179,5.5179,5.5179,5.5179,5.5179,5.5179,5.5179,5.5179,5.5179,5.491,5.4281,5.4221,5.3623,5.2217,5.1558,5.1229,5.1229,5.1229,5.1229,5.1229,5.1229,5.1229,5.1229,5.1229,5.1152,5.1058,5.1182,5.1152,4.4833,4.4643,4.4887,4.4372,4.3602,4.2986,4.2986,4.2986,4.2986,4.2986,4.2986,4.2986,4.2986,4.3263,4.374,4.4493,4.492,4.5422,4.62,4.7054,4.7682,4.7883,4.8711,4.9364,4.9565,4.959,4.959,4.959,4.959,0.0,4.959,4.959,4.959,4.959,4.959,4.959,4.959,4.959,4.959,4.959,4.959,4.959,4.959,4.959,4.959,4.959,4.959,4.959,4.959,4.959,4.959,4.959,4.959,4.959,4.959,4.959,5.1268,5.3489,5.3489,5.4505,5.5849,5.5849,5.5152,5.4386,5.4386,5.5502,5.6736,5.6736,5.7684,5.853,5.7633,5.637,5.5293,5.5056,5.465,5.4355,5.4355,5.4794,5.5179,5.5179,5.5179,5.5179,5.5179,5.5179,5.5179,5.5179,5.5179,5.5179,5.5179,5.5179,5.5179,5.5179,5.5179,5.5089,5.485,5.4431,5.3982,5.3473,5.2426,5.1648,5.1229,5.1229,5.1229,5.1229,5.1229,5.1229,5.1229,5.1229,5.1229,5.1229,5.1229,5.1229,4.6317,4.5978,4.6213,4.5767,4.4994,4.4155,4.3768,4.3295,4.3129,4.3547,4.3295,4.2986,4.2986,4.3438,4.3991,4.4543,4.5121,4.5673,4.6225,4.7079,4.7732,4.7883,4.8761,4.9414,4.9565,4.959,4.959,4.959,0.0,0.0,0.0,4.959,4.959,4.959,4.959,4.959,4.959,4.959,4.959,4.959,4.959,4.959,4.959,4.959,4.959,4.959,4.959,4.959,4.9654,5.0142,5.0689,5.1105,5.1105,5.079,5.0436,5.0916,5.2482,5.4446,5.4976,5.6137,5.744,5.744,5.6736,5.5877,5.5877,5.6622,5.744,5.744,5.8276,5.9009,5.856,5.7603,5.6675,5.6286,5.5837,5.5448,5.5239,5.5179,5.5179,5.5179,5.5179,5.5179,5.5179,5.5179,5.5179,5.5179,5.5179,5.5179,5.5179,5.5179,5.5179,5.5179,5.5179,5.5179,5.5179,5.479,5.4431,5.4221,5.3354,5.2456,5.1558,5.1319,5.1229,5.1229,5.1229,5.1229,5.1229,5.1229,5.1229,5.1229,5.1229,5.1229,4.7503,4.8139,4.8837,4.7453,4.7094,4.6733,4.5342,4.4016,4.3381,4.4725,4.3907,4.2986,4.2986,4.3438,4.3991,4.4543,4.5121,4.5673,4.6225,4.6778,4.733,4.7857,4.841,4.8987,4.954,4.959,4.959,4.959,0.0,0.0,0.0,4.959,4.959,4.959,4.959,4.959,4.959,4.959,4.959,4.959,4.959,4.959,4.959,4.959,4.959,4.959,4.959,4.9654,4.9783,5.1393,5.2944,5.4386,5.4386,5.3429,5.2209,5.379,5.4386,5.4623,5.6194,5.7749,5.9099,5.9099,5.9099,5.9099,5.9099,5.9099,5.9099,5.9099,5.9099,5.9099,5.9099,5.862,5.7812,5.6496,5.6248,5.6038,5.5329,5.5179,5.5179,5.5179,5.5179,5.5179,5.5179,5.5179,5.5179,5.5179,5.5179,5.5179,5.5179,5.5179,5.5179,5.5179,5.5179,5.5179,5.5179,5.5179,5.491,5.4251,5.4221,5.3593,5.2247,5.1588,5.1229,5.1229,5.1229,5.1229,5.1229,5.1229,5.1229,5.1229,5.1229,5.1229,4.8964,4.8886,4.9112,4.8688,4.7808,4.7248,4.7808,4.6135,4.4535,4.4941,4.3907,4.3087,4.3489,4.4016,4.4568,4.5146,4.5698,4.6125,4.6276,4.6778,4.733,4.7857,4.841,4.8987,4.954,4.959,4.959,4.959,0.0,0.0,0.0,4.959,4.959,4.959,4.959,4.959,4.959,4.959,4.959,4.959,4.959,4.959,4.959,4.959,5.0181,5.1268,5.1268,5.1927,5.3032,5.3489,5.3969,5.4386,5.4386,5.4089,5.373,5.4208,5.5094,5.6079,5.6537,5.7749,5.9099,5.9099,5.9099,5.9099,5.9099,5.9099,5.9099,5.9099,5.9099,5.9099,5.9099,5.8949,5.859,5.7752,5.6825,5.6188,5.5927,5.5508,5.5179,5.5179,5.5179,5.5179,5.5179,5.5179,5.5179,5.5179,5.5179,5.5179,5.5179,5.5179,5.5179,5.5179,5.5179,5.5179,5.5179,5.5179,5.5119,5.491,5.4461,5.3803,5.2935,5.2247,5.1917,5.1917,5.1439,5.1229,5.1229,5.1229,5.1229,5.1229,5.1229,5.1229,5.0191,4.9969,4.9969,4.9969,4.8964,4.8189,4.9014,4.6991,4.4994,4.4994,4.3907,4.3137,4.3689,4.4242,4.4819,4.5397,4.5949,4.6301,4.6301,4.6602,4.7004,4.7531,4.8083,4.8661,4.9213,4.9464,4.959,0.0,0.0,0.0,0.0,4.959,4.959,4.959,4.959,4.959,4.959,5.0245,5.0537,5.0537,5.1231,5.1518,5.1455,5.0853,5.1079,5.2051,5.27,5.385,5.5327,5.5327,5.5676,5.628,5.628,5.5877,5.5385,5.605,5.6451,5.6792,5.744,5.8276,5.9099,5.9099,5.9099,5.9099,5.9099,5.9099,5.9099,5.9099,5.9099,5.9099,5.9099,5.9099,5.8949,5.8291,5.7513,5.6795,5.6286,5.5867,5.5508,5.5239,5.5179,5.5179,5.5179,5.5179,5.5179,5.5179,5.5179,5.5179,5.5179,5.5179,5.5179,5.5179,5.5179,5.5179,5.5179,5.5179,5.5179,5.5179,5.482,5.4401,5.3982,5.3084,5.2456,5.2217,5.1798,5.1468,5.1229,5.1229,5.1229,5.1229,5.1229,5.1229,5.1229,5.1229,5.1229,5.1229,5.0191,4.921,4.9357,4.7197,4.5209,4.5209,4.4126,4.3386,4.3992,4.4407,4.4878,4.5624,4.6094,4.6301,4.6301,4.6301,4.6527,4.7079,4.7556,4.8146,4.8939,4.9341,4.9604,0.0,0.0,0.0,0.0,4.995,4.995,4.9847,4.9847,4.9847,4.9847,5.1268,5.2086,5.2209,5.367,5.4386,5.4327,5.2883,5.2271,5.2516,5.4149,5.5618,5.6905,5.6905,5.7804,5.9099,5.9099,5.8221,5.7075,5.858,5.8166,5.7131,5.858,5.9099,5.9099,5.9099,5.9099,5.9099,5.9099,5.9099,5.9099,5.9099,5.9099,5.9099,5.9099,5.9099,5.8949,5.8351,5.8118,5.7782,5.6526,5.6248,5.5987,5.5329,5.5179,5.5179,5.5179,5.5179,5.5179,5.5179,5.5179,5.5179,5.5179,5.5179,5.5179,5.5179,5.5179,5.5179,5.5179,5.5179,5.5179,5.5179,5.5179,5.5179,5.5179,5.3952,5.2995,5.2396,5.2306,5.1977,5.1319,5.1319,5.1289,5.1229,5.1229,5.1229,5.1229,5.1229,5.1229,5.1229,5.0191,4.9455,5.0555,4.8638,4.663,4.663,4.5555,4.4903,4.6058,4.5354,4.5327,4.7522,4.6951,4.6301,4.6301,4.6301,4.6527,4.7079,4.723,4.815,5.0454,4.9657,0.0,0.0,0.0,0.0,5.1492,5.2666,5.2788,5.1492,5.1492,5.1492,5.1492,5.1865,5.2639,0.0,5.4208,5.4386,5.4386,5.4029,5.4564,5.5763,5.7384,5.8276,5.858,5.858,5.8798,5.9099,5.9099,5.8882,5.8634,5.8991,5.8882,5.8634,5.8991,5.9099,5.9099,5.9099,5.9099,5.9099,5.9099,5.9099,5.9099,5.9099,5.9099,5.9099,5.9099,5.9099,5.9069,5.8919,5.8501,5.7902,5.7064,5.6526,5.5987,5.5329,5.5179,5.5179,5.5179,5.5179,5.5179,5.5179,5.5179,5.5179,5.5179,5.5179,5.5179,5.5179,5.5179,5.5179,5.5179,5.5179,5.5179,5.5179,5.5179,5.5179,5.5179,5.4431,5.3922,5.3773,5.3234,5.2636,5.1977,5.1977,5.1708,5.1229,5.1229,5.1229,5.1229,5.1229,5.1229,5.1229,5.065,5.0335,5.1058,5.0095,4.8886,4.8239,4.6991,4.6381,4.7649,4.6622,4.6451,4.915,4.7743,4.6815,4.8184,4.7802,4.7486,4.7709,4.8655,4.9522,5.0247,5.0741,0.0,0.0,0.0,5.3126,5.3126,5.3187,5.3248,5.3126,5.2394,5.2332,5.3126,5.3882,5.4654,5.5502,5.628,5.6622,5.6622,5.5849,5.6394,5.7915,5.8743,5.9099,5.9099,5.9099,5.9099,5.9099,5.9099,5.9099,5.9099,5.9099,5.9099,5.9099,5.9099,5.9099,5.9099,5.9099,5.9099,5.9099,5.9099,5.9099,5.9099,5.9099,5.9099,5.9099,5.9099,5.9099,5.9099,5.9099,5.883,5.8321,5.7304,5.6825,5.6346,5.5388,5.5179,5.5179,5.5179,5.5179,5.5179,5.5179,5.5179,5.5179,5.5179,5.5179,5.5179,5.5179,5.5179,5.5179,5.5179,5.5179,5.5179,5.5179,5.5179,5.5179,5.5179,5.485,5.4521,5.4221,5.3862,5.3354,5.2665,5.2665,5.2486,5.2157,5.1828,5.1678,5.1229,5.1229,5.1229,5.1229,5.1229,5.1229,5.1229,5.1229,5.0917,4.9776,4.8439,4.7787,4.8928,4.7975,4.7914,5.0491,4.8713,4.7893,5.038,4.9678,4.8851,4.8851,5.0395,5.1062,5.017,0.0,0.0,0.0,0.0,5.48,5.48,5.3763,5.3703,5.4741,5.3522,5.3489,5.48,5.6079,5.6849,5.7131,5.844,5.9099,5.9045,5.7719,5.786,5.9099,5.9099,5.9099,5.9099,5.9099,5.9099,5.9099,5.9099,5.9099,5.9099,5.9099,5.9099,5.9099,5.9099,5.9099,5.9099,5.9099,5.9099,5.9099,5.9099,5.9099,5.9099,5.9099,5.9099,5.9099,5.9099,5.9099,5.9099,5.9099,5.9099,5.877,5.7543,5.7184,5.6765,5.5598,5.5269,5.5179,5.5179,5.5179,5.5179,5.5179,5.5179,5.5179,5.5179,5.5179,5.5179,5.5179,5.5179,5.5179,5.5179,5.5179,5.5179,5.5179,5.5179,5.5179,5.5179,5.5179,5.494,5.4401,5.4371,5.4042,5.3354,5.3354,5.3294,5.3174,5.2606,5.2366,5.1229,5.1229,5.1229,5.1229,5.1229,5.1229,5.1229,5.1229,5.1152,5.0964,4.9873,4.9115,4.9861,4.927,4.9299,5.149,5.0873,5.0268,5.0657,5.0546,5.0435,5.0435,5.0657,5.1488,5.312,0.0,0.0,0.0,5.6022,5.6366,5.6366,5.7496,5.7608,5.6423,5.6194,5.6194,5.6366,5.6622,5.7384,5.8798,5.8991,5.9099,5.9099,5.8882,5.8936,5.9099,5.9099,5.9099,5.9099,5.9099,5.9099,5.9099,5.9099,5.9099,5.9099,5.9099,5.9099,5.9099,5.9099,5.9099,5.9099,5.9099,5.9099,5.9099,5.9099,5.9099,5.9099,5.9099,5.9099,5.9099,5.9099,5.9099,5.9099,5.9099,5.9099,5.889,5.8141,5.7513,5.6885,5.6166,5.5598,5.5179,5.5179,5.5179,5.5179,5.5179,5.5179,5.5179,5.5179,5.5179,5.5179,5.5179,5.5179,5.5179,5.5179,5.5179,5.5179,5.5179,5.5179,5.5179,5.5179,5.5179,5.5149,5.5059,5.5059,5.473,5.4072,5.4072,5.3773,5.3174,5.3084,5.3054,5.1229,5.1229,5.1229,5.1229,5.1229,5.1229,5.1229,5.1229,5.1229,5.1229,5.0745,5.0541,5.1218,5.063,5.08,5.2909,5.1815,5.1318,5.2987,5.2509,5.1997,5.1997,5.2722,5.329,5.3391,0.0,0.0,0.0,5.7114,5.7643,5.7996,5.786,5.786,5.8026,5.7187,5.7131,5.8026,5.8026,5.8386,5.9099,5.9099,5.9099,5.9099,5.9099,5.9099,5.9099,5.9099,5.9099,5.9099,5.9099,5.9099,5.9099,5.9099,5.9099,5.9099,5.9099,5.9099,5.9099,5.9099,5.9099,5.9099,5.9099,5.9099,5.9099,5.9099,5.9099,5.9099,5.9099,5.9099,5.9099,5.9099,5.9099,5.9099,5.9099,5.9099,5.9039,5.874,5.7842,5.6795,5.5807,5.5388,5.5179,5.5179,5.5179,5.5179,5.5179,5.5179,5.5179,5.5179,5.5179,5.5179,5.5179,5.5179,5.5179,5.5179,5.5179,5.5179,5.5179,5.5179,5.5179,5.5179,5.5179,5.5179,5.5179,5.5179,5.5029,5.476,5.476,5.461,5.4311,5.3922,5.3743,5.1229,5.1229,5.1229,5.1229,5.1229,5.1229,5.1229,5.1229,5.1229,5.1229,5.1229,5.1379,5.1858,5.1601,5.19,5.3684,5.2613,5.2415,5.4896,5.4252,5.3571,5.3571,5.4509,5.4743,5.3675,0.0,0.0,0.0,5.7723,5.8411,5.9069,5.797,5.786,5.9045,5.7915,5.7915,5.9099,5.9099,5.9099,5.9099,5.9099,5.9099,5.9099,5.9099,5.9099,5.9099,5.9099,5.9099,5.9099,5.9099,5.9099,5.9099,5.9099,5.9099,5.9099,5.9099,5.9099,5.9099,5.9099,5.9099,5.9099,5.9099,5.9099,5.9099,5.9099,5.9099,5.9099,5.9099,5.9099,5.9099,5.9099,5.9099,5.9099,5.9099,5.9099,5.9009,5.868,5.7812,5.6705,5.5448,5.5179,5.5179,5.5179,5.5179,5.5179,5.5179,5.5179,5.5179,5.5179,5.5179,5.5179,5.5179,5.5179,5.5179,5.5179,5.5179,5.5179,5.5179,5.5179,5.5179,5.5179,5.5179,5.5179,5.5179,5.5179,5.5179,5.5179,5.5179,5.5179,5.5179,5.47,5.4461,5.1229,5.1229,5.1229,5.1229,5.1229,5.1229,5.1229,5.1229,5.1229,5.1229,5.1229,5.1229,5.1259,5.175,5.236,5.3114,5.3704,5.4311,5.5089,5.5128,5.5078,5.5078,5.5128,5.5179,0.0,0.0,0.0,0.0,5.7723,5.8411,5.9069,5.9045,5.8991,5.9099,5.9045,5.9045,5.9099,5.9099,5.9099,5.9099,5.9099,5.9099,5.9099,5.9099,5.9099,5.9099,5.9099,5.9099,5.9099,5.9099,5.9099,5.9099,5.9099,5.9099,5.9099,5.9099,5.9099,5.9099,5.9099,5.9099,5.9099,5.9099,5.9099,5.9099,5.9099,5.9099,5.9099,5.9099,5.9099,5.9099,5.9099,5.9099,5.9099,5.9099,5.9099,5.874,5.7483,5.7154,5.6705,5.5448,5.5179,5.5179,5.5179,5.5179,5.5179,5.5179,5.5179,5.5179,5.5179,5.5179,5.5179,5.5179,5.5179,5.5179,5.5179,5.5179,5.5179,5.5179,5.5179,5.5179,5.5179,5.5179,5.5179,5.5179,5.5179,5.5179,5.5179,5.5179,5.5179,5.5179,5.5149,5.5149,5.1229,5.1229,5.1229,5.1229,5.1229,5.1229,5.1229,5.1229,5.1229,5.1229,5.1229,5.1229,5.1229,5.1768,5.2426,5.3084,5.3773,5.4431,5.5089,5.5179,5.5179,5.5179,5.5179,5.5179,0.0,0.0,0.0,0.0,0.0,5.7752,5.8441,5.889,5.9099,5.9099,5.9099,5.9099,5.9099,5.9099,5.9099,5.9099,5.9099,5.9099,5.9099,5.9099,5.9099,5.9099,5.9099,5.9099,5.9099,5.9099,5.9099,5.9099,5.9099,5.9099,5.9099,5.9099,5.9099,5.9099,5.9099,5.9099,5.9099,5.9099,5.9099,5.9099,5.9099,5.9099,5.9099,5.9099,5.9099,5.9099,5.9099,5.9099,5.9099,5.9099,5.9099,5.886,5.7962,5.7393,5.6825,5.5987,5.5478,5.5179,5.5179,5.5179,5.5179,5.5179,5.5179,5.5179,5.5179,5.5179,5.5179,5.5179,5.5179,5.5179,5.5179,5.5179,5.5179,5.5179,5.5179,5.5179,5.5179,5.5179,5.5179,5.5179,5.5179,5.5179,5.5179,5.5179,5.5179,5.5179,5.5179,5.5179,5.1229,5.1229,5.1229,5.1229,5.1229,5.1229,5.1229,5.1229,5.1229,5.1229,5.1229,5.1229,5.1229,5.1558,5.2097,5.2755,5.3414,5.4102,5.476,5.5059,5.5179,5.5179,5.5179,5.5179,0.0,0.0,0.0,0.0,0.0,0.0,5.8082,5.874,5.9099,5.9099,5.9099,5.9099,5.9099,5.9099,5.9099,5.9099,5.9099,5.9099,5.9099,5.9099,5.9099,5.9099,5.9099,5.9099,5.9099,5.9099,5.9099,5.9099,5.9099,5.9099,5.9099,5.9099,5.9099,5.9099,5.9099,5.9099,5.9099,5.9099,5.9099,5.9099,5.9099,5.9099,5.9099,5.9099,5.9099,5.9099,5.9099,5.9099,5.9099,5.9099,5.9099,5.8979,5.856,5.7932,5.7244,5.6615,5.6137,5.5837,5.5837,5.5837,5.5837,5.5837,5.5837,5.5837,5.5837,5.5837,5.5748,5.5538,5.5538,5.5418,5.5209,5.5179,5.5179,5.5179,5.5179,5.5179,5.5179,5.5179,5.5179,5.5179,5.5179,5.5179,5.5179,5.5179,5.5179,5.5179,5.5179,5.5179,0.0,0.0,0.0,5.1229,5.1229,5.1229,5.1229,5.1229,5.1229,5.1229,5.1229,5.1229,5.1229,5.1229,5.1439,5.2067,5.2725,5.3384,5.4102,5.476,5.5179,5.5179,5.5179,0.0,0.0,0.0,0.0,0.0,5.6705,5.7363,5.8052,5.874,5.9099,5.9099,5.9099,5.9099,5.9099,5.9099,5.9099,5.9099,5.9099,5.9099,5.9099,5.9099,5.9099,5.9099,5.9099,5.9099,5.9099,5.9099,5.9099,5.9099,5.9099,5.9099,5.9099,5.9099,5.9099,5.9099,5.9099,5.9099,5.9099,5.9099,5.9099,5.9099,5.9099,5.9099,5.9099,5.9099,5.9099,5.9099,5.9099,5.9099,5.9099,5.9099,5.9099,5.9099,5.9099,5.859,5.7962,5.7244,5.7094,5.7094,5.7094,5.7094,5.7094,5.7094,5.7094,5.7094,5.7094,5.7094,5.6855,5.6308,5.6248,5.5927,5.5269,5.5209,5.5209,5.5179,5.5179,5.5179,5.5179,5.5179,5.5179,5.5179,5.5179,5.5179,5.5179,5.5179,5.5179,5.5179,5.5179,5.5179,5.1229,0.0,0.0,0.0,0.0,0.0,5.1229,5.1229,5.1229,5.1229,5.1229,5.1229,5.1229,5.1229,5.1289,5.1468,5.2037,5.2875,5.4042,5.4371,5.467,5.5119,5.5179,0.0,0.0,0.0,0.0,0.0,5.6077,5.6705,5.7334,5.8471,5.9099,5.9099,5.9099,5.9099,5.9099,5.9099,5.9099,5.9099,5.9099,5.9099,5.9099,5.9099,5.9099,5.9099,5.9099,5.9099,5.9099,5.9099,5.9099,5.9099,5.9099,5.9099,5.9099,5.9099,5.9099,5.9099,5.9099,5.9099,5.9099,5.9099,5.9099,5.9099,5.9099,5.9099,5.9099,5.9099,5.9099,5.9099,5.9099,5.9099,5.9099,5.9099,5.9099,5.9099,5.9099,5.8949,5.865,5.7962,5.7423,5.7094,5.7094,5.7094,5.7094,5.7094,5.7094,5.7094,5.7094,5.7094,5.7034,5.6855,5.6825,5.6585,5.6008,5.5897,5.5688,5.5209,5.5179,5.5179,5.5179,5.5179,5.5179,5.5179,5.5179,5.5179,5.5179,5.5179,5.5179,5.5179,5.5179,5.5179,5.1229,5.1229,5.1229,5.1229,0.0,0.0,5.1229,5.1229,5.1229,5.1229,5.1229,5.1229,5.1229,5.1229,5.1229,5.1229,5.1528,5.2157,5.3234,5.3862,5.4341,5.473,5.5029,0.0,0.0,5.5179,5.5179,5.5179,5.5807,5.6555,5.7483,5.853,5.9099,5.9099,5.9099,5.9099,5.9099,5.9099,5.9099,5.9099,5.9099,5.9099,5.9099,5.9099,5.9099,5.9099,5.9099,5.9099,5.9099,5.9099,5.9099,5.9099,5.9099,5.9099,5.9099,5.9099,5.9099,5.9099,5.9099,5.9099,5.9099,5.9099,5.9099,5.9099,5.9099,5.9099,5.9099,5.9099,5.9099,5.9099,5.9099,5.9099,5.9099,5.9099,5.9099,5.9099,5.9099,5.9099,5.8979,5.859,5.8201,5.7932,5.7932,5.7932,5.7932,5.7932,5.7932,5.7932,5.7932,5.7932,5.7842,5.7543,5.7513,5.7274,5.6615,5.6555,5.6406,5.6017,5.5748,5.5598,5.5598,5.5329,5.5179,5.5179,5.5179,5.5179,5.5179,5.5179,5.5179,5.5179,5.5179,5.5179,5.1229,5.1229,5.1229,5.1229,5.1229,0.0,5.1229,5.1229,5.1229,5.1229,5.1229,5.1229,5.1229,5.1229,5.1229,5.1229,5.1229,5.1439,5.2097,5.3234,5.4042,5.4192,5.473,0.0,5.5179,5.5179,5.5179,5.5179,5.5867,5.6765,5.7962,5.871,5.9099,5.9099,5.9099,5.9099,5.9099,5.9099,5.9099,5.9099,5.9099,5.9099,5.9099,5.9099,5.9099,5.9099,5.9099,5.9099,5.9099,5.9099,5.9099,5.9099,5.9099,5.9099,5.9099,5.9099,5.9099,5.9099,5.9099,5.9099,5.9099,5.9099,5.9099,5.9099,5.9099,5.9099,5.9099,5.9099,5.9099,5.9099,5.9099,5.9099,5.9099,5.9099,5.9099,5.9099,5.9099,5.9099,5.9099,5.9099,5.9099,5.9099,5.9099,5.9099,5.9099,5.9099,5.9099,5.9099,5.9099,5.9099,5.889,5.8291,5.8231,5.7962,5.7274,5.7214,5.7184,5.7094,5.6585,5.6286,5.6286,5.5718,5.5388,5.5388,5.5388,5.5388,5.5388,5.5269,5.5179,5.5179,5.5179,5.5179,5.1229,5.1229,5.1229,5.1229,5.1229,0.0,5.1229,5.1229,5.1229,5.1229,5.1229,5.1229,5.1229,5.1229,5.1229,5.1229,5.1229,5.1439,5.2097,5.2426,5.2995,5.4072,5.4311,0.0,5.5149,5.5179,5.5179,5.5179,5.6256,5.7034,5.7274,5.8441,5.9099,5.9099,5.9099,5.9099,5.9099,5.9099,5.9099,5.9099,5.9099,5.9099,5.9099,5.9099,5.9099,5.9099,5.9099,5.9099,5.9099,5.9099,5.9099,5.9099,5.9099,5.9099,5.9099,5.9099,5.9099,5.9099,5.9099,5.9099,5.9099,5.9099,5.9099,5.9099,5.9099,5.9099,5.9099,5.9099,5.9099,5.9099,5.9099,5.9099,5.9099,5.9099,5.9099,5.9099,5.9099,5.9099,5.9099,5.9099,5.9099,5.9099,5.9099,5.9099,5.9099,5.9099,5.9099,5.9099,5.9099,5.9099,5.9069,5.8919,5.8919,5.865,5.7992,5.7932,5.7693,5.7124,5.6974,5.6915,5.6915,5.6795,5.6735,5.6735,5.6735,5.6735,5.6735,5.5688,5.5179,5.5179,5.5179,5.5179,5.1229,5.1229,5.1229,5.1229,5.1229,0.0,0.0,5.1229,5.1229,5.1229,5.1229,5.1229,5.1229,5.1229,5.1229,5.1229,5.1229,5.1319,5.1648,5.2007,5.2576,5.3563,0.0,0.0,5.5119,5.5179,5.5179,5.5179,5.6077,5.6765,5.7064,5.8052,5.877,5.9099,5.9099,5.9099,5.9099,5.9099,5.9099,5.9099,5.9099,5.9099,5.9099,5.9099,5.9099,5.9099,5.9099,5.9099,5.9099,5.9099,5.9099,5.9099,5.9099,5.9099,5.9099,5.9099,5.9099,5.9099,5.9099,5.9099,5.9099,5.9099,5.9099,5.9099,5.9099,5.9099,5.9099,5.9099,5.9099,5.9099,5.9099,5.9099,5.9099,5.9099,5.9099,5.9099,5.9099,5.9099,5.9099,5.9099,5.9099,5.9099,5.9099,5.9099,5.9099,5.9099,5.9099,5.9099,5.9099,5.9099,5.9099,5.9099,5.9099,5.8979,5.865,5.862,5.8471,5.8112,5.7782,5.7603,5.7603,5.7274,5.7094,5.7094,5.7094,5.7094,5.7094,5.6466,5.5987,5.5658,5.5359,5.5179,5.1229,5.1229,5.1229,5.1229,5.1229,5.1229,0.0,0.0,0.0,5.1229,5.1229,5.1229,5.1229,0.0,0.0,5.1229,0.0,0.0,0.0,5.1678,0.0,5.2905,0.0,0.0,5.494,5.5119,5.5179,5.5179,5.5807,5.6436,5.7064,5.7752,5.8441,5.9069,5.9099,5.9099,5.9099,5.9099,5.9099,5.9099,5.9099,5.9099,5.9099,5.9099,5.9099,5.9099,5.9099,5.9099,5.9099,5.9099,5.9099,5.9099,5.9099,5.9099,5.9099,5.9099,5.9099,5.9099,5.9099,5.9099,5.9099,5.9099,5.9099,5.9099,5.9099,5.9099,5.9099,5.9099,5.9099,5.9099,5.9099,5.9099,5.9099,5.9099,5.9099,5.9099,5.9099,5.9099,5.9099,5.9099,5.9099,5.9099,5.9099,5.9099,5.9099,5.9099,5.9099,5.9099,5.9099,5.9099,5.9099,5.9099,5.9099,5.9099,5.9099,5.9099,5.9099,5.9099,5.859,5.8321,5.8321,5.7782,5.7483,5.7483,5.7483,5.7483,5.7483,5.7363,5.6974,5.6346,5.5807,5.5568,5.1229,5.1229,5.1229,5.1229,5.1229,5.1229,0.0,0.0,5.1229,5.1229,0.0,0.0,5.1229,0.0,0.0,0.0,0.0,0.0,5.1229,5.1289,5.1558,5.2247,5.2905,0.0,0.0,5.485,5.5179,5.5179,5.5807,5.6436,5.7064,5.7752,5.8441,5.9069,5.9099,5.9099,5.9099,5.9099,5.9099,5.9099,5.9099,5.9099,5.9099,5.9099,5.9099,5.9099,5.9099,5.9099,5.9099,5.9099,5.9099,5.9099,5.9099,5.9099,5.9099,5.9099,5.9099,5.9099,5.9099,5.9099,5.9099,5.9099,5.9099,5.9099,5.9099,5.9099,5.9099,5.9099,5.9099,5.9099,5.9099,5.9099,5.9099,5.9099,5.9099,5.9099,5.9099,5.9099,5.9099,5.9099,5.9099,5.9099,5.9099,5.9099,5.9099,5.9099,5.9099,5.9099,5.9099,5.9099,5.9099,5.9099,5.9099,5.9099,5.9099,5.9099,5.9099,5.9099,5.9039,5.9009,5.9009,5.8919,5.889,5.889,5.889,5.889,5.889,5.8291,5.7663,5.7004,5.6915,5.6885,5.1798,5.1498,5.1229,0.0,0.0,0.0,5.1229,0.0,5.1229,0.0,0.0,0.0,0.0,0.0,0.0,0.0,5.1229,0.0,0.0,0.0,5.1468,0.0,0.0,0.0,0.0,0.0,0.0,0.0,5.5448,5.6047,5.7034,5.7363,5.8022,5.9069,5.9099,5.9099,5.9099,5.9099,5.9099,5.9099,5.9099,5.9099,5.9099,5.9099,5.9099,5.9099,5.9099,5.9099,5.9099,5.9099,5.9099,5.9099,5.9099,5.9099,5.9099,5.9099,5.9099,5.9099,5.9099,5.9099,5.9099,5.9099,5.9099,5.9099,5.9099,5.9099,5.9099,5.9099,5.9099,5.9099,5.9099,5.9099,5.9099,5.9099,5.9099,5.9099,5.9099,5.9099,5.9099,5.9099,5.9099,5.9099,5.9099,5.9099,5.9099,5.9099,5.9099,5.9099,5.9099,5.9099,5.9099,5.9099,5.9099,5.9099,5.9099,5.9099,5.9099,5.9099,5.9099,5.9099,5.9099,5.9099,5.9099,5.9099,5.9099,5.9099,5.9099,5.883,5.853,5.8231,5.7453,5.7094,5.2456,0.0,0.0,0.0,0.0,0.0,0.0,0.0,0.0,0.0,0.0,0.0,0.0,0.0,5.1229,5.1229,0.0,5.1229,0.0,5.1229,0.0,0.0,0.0,0.0,0.0,0.0,0.0,0.0,0.0,5.5658,5.6765,5.7004,5.7633,5.88,5.9009,5.9099,5.9099,5.9099,5.9099,5.9099,5.9099,5.9099,5.9099,5.9099,5.9099,5.9099,5.9099,5.9099,5.9099,5.9099,5.9099,5.9099,5.9099,5.9099,5.9099,5.9099,5.9099,5.9099,5.9099,5.9099,5.9099,5.9099,5.9099,5.9099,5.9099,5.9099,5.9099,5.9099,5.9099,5.9099,5.9099,5.9099,5.9099,5.9099,5.9099,5.9099,5.9099,5.9099,5.9099,5.9099,5.9099,5.9099,5.9099,5.9099,5.9099,5.9099,5.9099,5.9099,5.9099,5.9099,5.9099,5.9099,5.9099,5.9099,5.9099,5.9099,5.9099,5.9099,5.9099,5.9099,5.9099,5.9099,5.9099,5.9099,5.9099,5.9099,5.9099,5.9099,5.9099,5.9069,5.8112,5.7663,0.0,0.0,0.0,5.2336,0.0,0.0,0.0,0.0,5.1229,0.0,0.0,0.0,0.0,5.1229,5.1229,5.1229,5.1229,0.0,0.0,0.0,0.0,0.0,0.0,0.0,0.0,0.0,0.0,0.0,0.0,0.0,5.6166,5.6765,5.7423,5.8141,5.877,5.9099,5.9099,5.9099,5.9099,5.9099,5.9099,5.9099,5.9099,5.9099,5.9099,5.9099,5.9099,5.9099,5.9099,5.9099,5.9099,5.9099,5.9099,5.9099,5.9099,5.9099,5.9099,5.9099,5.9099,5.9099,5.9099,5.9099,5.9099,5.9099,5.9099,5.9099,5.9099,5.9099,5.9099,5.9099,5.9099,5.9099,5.9099,5.9099,5.9099,5.9099,5.9099,5.9099,5.9099,5.9099,5.9099,5.9099,5.9099,5.9099,5.9099,5.9099,5.9099,5.9099,5.9099,5.9099,5.9099,5.9099,5.9099,5.9099,5.9099,5.9099,5.9099,5.9099,5.9099,5.9099,5.9099,5.9099,5.9099,5.9099,5.9099,5.9099,5.9099,5.9099,5.9099,5.9099,5.9069,5.9039,0.0,0.0,5.3144,5.2905,0.0,0.0,0.0,0.0,0.0,0.0,0.0,0.0,0.0,5.1498,5.1229,5.1229,5.1229,5.1229,0.0,0.0,0.0,0.0,0.0,0.0,0.0,0.0,0.0,0.0,5.5179,0.0,0.0,5.6765,5.7423,5.8112,5.877,5.9099,5.9099,5.9099,5.9099,5.9099,5.9099,5.9099,5.9099,5.9099,5.9099,5.9099,5.9099,5.9099,5.9099,5.9099,5.9099,5.9099,5.9099,5.9099,5.9099,5.9099,5.9099,5.9099,5.9099,5.9099,5.9099,5.9099,5.9099,5.9099,5.9099,5.9099,5.9099,5.9099,5.9099,5.9099,5.9099,5.9099,5.9099,5.9099,5.9099,5.9099,5.9099,5.9099,5.9099,5.9099,5.9099,5.9099,5.9099,5.9099,5.9099,5.9099,5.9099,5.9099,5.9099,5.9099,5.9099,5.9099,5.9099,5.9099,5.9099,5.9099,5.9099,5.9099,5.9099,5.9099,5.9099,5.9099,5.9099,5.9099,5.9099,5.9099,5.9099,5.9099,5.9099,5.9099,5.9099,5.9099,5.4551,5.4221,0.0,5.3623,5.3563,0.0,5.3234,0.0,0.0,0.0,0.0,0.0,0.0,5.2187,5.1828,5.1618,5.1558,5.1498,0.0,5.1229,0.0,0.0,0.0,5.2187,0.0,0.0,0.0,5.5119,5.5179,5.5388,0.0,0.0,5.7304,5.7752,5.865,5.9099,5.9099,5.9099,5.9099,5.9099,5.9099,5.9099,5.9099,5.9099,5.9099,5.9099,5.9099,5.9099,5.9099,5.9099,5.9099,5.9099,5.9099,5.9099,5.9099,5.9099,5.9099,5.9099,5.9099,5.9099,5.9099,5.9099,5.9099,5.9099,5.9099,5.9099,5.9099,5.9099,5.9099,5.9099,5.9099,5.9099,5.9099,5.9099,5.9099,5.9099,5.9099,5.9099,5.9099,5.9099,5.9099,5.9099,5.9099,5.9099,5.9099,5.9099,5.9099,5.9099,5.9099,5.9099,5.9099,5.9099,5.9099,5.9099,5.9099,5.9099,5.9099,5.9099,5.9099,5.9099,5.9099,5.9099,5.9219,5.9458,5.9219,5.9219,5.9458,5.9219,5.9099,5.9099,5.9099,5.9099]}]]